<?xml version="1.0" encoding="UTF-8" standalone="no" ?>
<gpx xmlns="http://www.topografix.com/GPX/1/1" xmlns:xsi="http://www.w3.org/2001/XMLSchema-instance" xsi:schemaLocation="http://www.topografix.com/GPX/1/1 http://www.topografix.com/GPX/1/1/gpx.xsd" version="1.1" creator="VisuGPX - https://www.visugpx.com">
  <metadata>
    <name>Barbieres - La Ferrure</name>
  </metadata>
  <trk>
    <name><![CDATA[Randonnée du 24/05/2021 à 06:47]]></name>
    <trkseg>
      <trkpt lat="44.95128" lon="5.1457">
        <ele>436</ele>
        <time>2021-05-23T08:37:20+02:00</time>
      </trkpt>
      <trkpt lat="44.95124" lon="5.1457">
        <ele>436</ele>
        <time>2021-05-23T08:37:37+02:00</time>
      </trkpt>
      <trkpt lat="44.95127" lon="5.1457">
        <ele>436</ele>
        <time>2021-05-23T08:37:52+02:00</time>
      </trkpt>
      <trkpt lat="44.95128" lon="5.14572">
        <ele>436</ele>
        <time>2021-05-23T08:38:08+02:00</time>
      </trkpt>
      <trkpt lat="44.95128" lon="5.14577">
        <ele>436</ele>
        <time>2021-05-23T08:38:27+02:00</time>
      </trkpt>
      <trkpt lat="44.9513" lon="5.14578">
        <ele>436</ele>
        <time>2021-05-23T08:38:46+02:00</time>
      </trkpt>
      <trkpt lat="44.95134" lon="5.14579">
        <ele>436</ele>
        <time>2021-05-23T08:39:05+02:00</time>
      </trkpt>
      <trkpt lat="44.95134" lon="5.14578">
        <ele>436</ele>
        <time>2021-05-23T08:39:24+02:00</time>
      </trkpt>
      <trkpt lat="44.95133" lon="5.14574">
        <ele>436</ele>
        <time>2021-05-23T08:39:41+02:00</time>
      </trkpt>
      <trkpt lat="44.9513" lon="5.14573">
        <ele>436</ele>
        <time>2021-05-23T08:39:56+02:00</time>
      </trkpt>
      <trkpt lat="44.95129" lon="5.14569">
        <ele>436</ele>
        <time>2021-05-23T08:40:19+02:00</time>
      </trkpt>
      <trkpt lat="44.95127" lon="5.14566">
        <ele>436</ele>
        <time>2021-05-23T08:40:27+02:00</time>
      </trkpt>
      <trkpt lat="44.95124" lon="5.14559">
        <ele>436</ele>
        <time>2021-05-23T08:40:32+02:00</time>
      </trkpt>
      <trkpt lat="44.95113" lon="5.14536">
        <ele>435</ele>
        <time>2021-05-23T08:40:48+02:00</time>
      </trkpt>
      <trkpt lat="44.95103" lon="5.14523">
        <ele>435</ele>
        <time>2021-05-23T08:41:01+02:00</time>
      </trkpt>
      <trkpt lat="44.95089" lon="5.14507">
        <ele>435</ele>
        <time>2021-05-23T08:41:16+02:00</time>
      </trkpt>
      <trkpt lat="44.95074" lon="5.14491">
        <ele>437</ele>
        <time>2021-05-23T08:41:32+02:00</time>
      </trkpt>
      <trkpt lat="44.95062" lon="5.14483">
        <ele>438</ele>
        <time>2021-05-23T08:41:46+02:00</time>
      </trkpt>
      <trkpt lat="44.95051" lon="5.14476">
        <ele>440</ele>
        <time>2021-05-23T08:42:00+02:00</time>
      </trkpt>
      <trkpt lat="44.95042" lon="5.14474">
        <ele>441</ele>
        <time>2021-05-23T08:42:08+02:00</time>
      </trkpt>
      <trkpt lat="44.9503" lon="5.14472">
        <ele>443</ele>
        <time>2021-05-23T08:42:22+02:00</time>
      </trkpt>
      <trkpt lat="44.9502" lon="5.14475">
        <ele>444</ele>
        <time>2021-05-23T08:42:34+02:00</time>
      </trkpt>
      <trkpt lat="44.95004" lon="5.14481">
        <ele>445</ele>
        <time>2021-05-23T08:42:50+02:00</time>
      </trkpt>
      <trkpt lat="44.94988" lon="5.14489">
        <ele>446</ele>
        <time>2021-05-23T08:43:05+02:00</time>
      </trkpt>
      <trkpt lat="44.94975" lon="5.14497">
        <ele>447</ele>
        <time>2021-05-23T08:43:15+02:00</time>
      </trkpt>
      <trkpt lat="44.9497" lon="5.145">
        <ele>448</ele>
        <time>2021-05-23T08:43:28+02:00</time>
      </trkpt>
      <trkpt lat="44.94957" lon="5.14504">
        <ele>449</ele>
        <time>2021-05-23T08:43:44+02:00</time>
      </trkpt>
      <trkpt lat="44.94946" lon="5.14511">
        <ele>451</ele>
        <time>2021-05-23T08:43:57+02:00</time>
      </trkpt>
      <trkpt lat="44.94933" lon="5.1452">
        <ele>451</ele>
        <time>2021-05-23T08:44:11+02:00</time>
      </trkpt>
      <trkpt lat="44.9492" lon="5.14526">
        <ele>452</ele>
        <time>2021-05-23T08:44:24+02:00</time>
      </trkpt>
      <trkpt lat="44.94909" lon="5.14533">
        <ele>452</ele>
        <time>2021-05-23T08:44:36+02:00</time>
      </trkpt>
      <trkpt lat="44.94892" lon="5.14542">
        <ele>454</ele>
        <time>2021-05-23T08:44:51+02:00</time>
      </trkpt>
      <trkpt lat="44.94876" lon="5.14554">
        <ele>455</ele>
        <time>2021-05-23T08:45:07+02:00</time>
      </trkpt>
      <trkpt lat="44.9486" lon="5.14564">
        <ele>455</ele>
        <time>2021-05-23T08:45:23+02:00</time>
      </trkpt>
      <trkpt lat="44.94846" lon="5.14575">
        <ele>455</ele>
        <time>2021-05-23T08:45:40+02:00</time>
      </trkpt>
      <trkpt lat="44.94845" lon="5.14576">
        <ele>455</ele>
        <time>2021-05-23T08:45:55+02:00</time>
      </trkpt>
      <trkpt lat="44.94846" lon="5.14577">
        <ele>455</ele>
        <time>2021-05-23T08:46:11+02:00</time>
      </trkpt>
      <trkpt lat="44.9484" lon="5.14569">
        <ele>456</ele>
        <time>2021-05-23T08:46:27+02:00</time>
      </trkpt>
      <trkpt lat="44.94832" lon="5.1456">
        <ele>458</ele>
        <time>2021-05-23T08:46:40+02:00</time>
      </trkpt>
      <trkpt lat="44.94822" lon="5.14549">
        <ele>462</ele>
        <time>2021-05-23T08:46:54+02:00</time>
      </trkpt>
      <trkpt lat="44.94814" lon="5.14544">
        <ele>464</ele>
        <time>2021-05-23T08:47:08+02:00</time>
      </trkpt>
      <trkpt lat="44.94805" lon="5.14545">
        <ele>466</ele>
        <time>2021-05-23T08:47:21+02:00</time>
      </trkpt>
      <trkpt lat="44.94795" lon="5.14543">
        <ele>468</ele>
        <time>2021-05-23T08:47:35+02:00</time>
      </trkpt>
      <trkpt lat="44.94787" lon="5.14541">
        <ele>469</ele>
        <time>2021-05-23T08:47:50+02:00</time>
      </trkpt>
      <trkpt lat="44.94781" lon="5.1454">
        <ele>471</ele>
        <time>2021-05-23T08:48:04+02:00</time>
      </trkpt>
      <trkpt lat="44.94775" lon="5.14539">
        <ele>472</ele>
        <time>2021-05-23T08:48:18+02:00</time>
      </trkpt>
      <trkpt lat="44.94767" lon="5.14537">
        <ele>474</ele>
        <time>2021-05-23T08:48:32+02:00</time>
      </trkpt>
      <trkpt lat="44.9476" lon="5.14534">
        <ele>477</ele>
        <time>2021-05-23T08:48:46+02:00</time>
      </trkpt>
      <trkpt lat="44.94758" lon="5.14531">
        <ele>478</ele>
        <time>2021-05-23T08:48:59+02:00</time>
      </trkpt>
      <trkpt lat="44.94753" lon="5.14527">
        <ele>479</ele>
        <time>2021-05-23T08:49:13+02:00</time>
      </trkpt>
      <trkpt lat="44.94747" lon="5.14522">
        <ele>481</ele>
        <time>2021-05-23T08:49:29+02:00</time>
      </trkpt>
      <trkpt lat="44.94744" lon="5.14519">
        <ele>482</ele>
        <time>2021-05-23T08:49:48+02:00</time>
      </trkpt>
      <trkpt lat="44.94739" lon="5.14515">
        <ele>484</ele>
        <time>2021-05-23T08:50:02+02:00</time>
      </trkpt>
      <trkpt lat="44.94733" lon="5.14509">
        <ele>487</ele>
        <time>2021-05-23T08:50:17+02:00</time>
      </trkpt>
      <trkpt lat="44.94723" lon="5.14505">
        <ele>490</ele>
        <time>2021-05-23T08:50:32+02:00</time>
      </trkpt>
      <trkpt lat="44.94712" lon="5.14502">
        <ele>493</ele>
        <time>2021-05-23T08:50:46+02:00</time>
      </trkpt>
      <trkpt lat="44.94705" lon="5.145">
        <ele>495</ele>
        <time>2021-05-23T08:51:00+02:00</time>
      </trkpt>
      <trkpt lat="44.94697" lon="5.14495">
        <ele>496</ele>
        <time>2021-05-23T08:51:14+02:00</time>
      </trkpt>
      <trkpt lat="44.94691" lon="5.14493">
        <ele>498</ele>
        <time>2021-05-23T08:51:29+02:00</time>
      </trkpt>
      <trkpt lat="44.94683" lon="5.14489">
        <ele>501</ele>
        <time>2021-05-23T08:51:44+02:00</time>
      </trkpt>
      <trkpt lat="44.94675" lon="5.14485">
        <ele>504</ele>
        <time>2021-05-23T08:52:01+02:00</time>
      </trkpt>
      <trkpt lat="44.9467" lon="5.14481">
        <ele>506</ele>
        <time>2021-05-23T08:52:13+02:00</time>
      </trkpt>
      <trkpt lat="44.94665" lon="5.14477">
        <ele>508</ele>
        <time>2021-05-23T08:52:25+02:00</time>
      </trkpt>
      <trkpt lat="44.94659" lon="5.14472">
        <ele>510</ele>
        <time>2021-05-23T08:52:41+02:00</time>
      </trkpt>
      <trkpt lat="44.94654" lon="5.14468">
        <ele>512</ele>
        <time>2021-05-23T08:52:54+02:00</time>
      </trkpt>
      <trkpt lat="44.94649" lon="5.14462">
        <ele>514</ele>
        <time>2021-05-23T08:53:08+02:00</time>
      </trkpt>
      <trkpt lat="44.94644" lon="5.14457">
        <ele>516</ele>
        <time>2021-05-23T08:53:24+02:00</time>
      </trkpt>
      <trkpt lat="44.94638" lon="5.14451">
        <ele>519</ele>
        <time>2021-05-23T08:53:38+02:00</time>
      </trkpt>
      <trkpt lat="44.94632" lon="5.1445">
        <ele>521</ele>
        <time>2021-05-23T08:53:52+02:00</time>
      </trkpt>
      <trkpt lat="44.94628" lon="5.14448">
        <ele>522</ele>
        <time>2021-05-23T08:54:04+02:00</time>
      </trkpt>
      <trkpt lat="44.94623" lon="5.14446">
        <ele>524</ele>
        <time>2021-05-23T08:54:21+02:00</time>
      </trkpt>
      <trkpt lat="44.94616" lon="5.14441">
        <ele>527</ele>
        <time>2021-05-23T08:54:36+02:00</time>
      </trkpt>
      <trkpt lat="44.94611" lon="5.14439">
        <ele>529</ele>
        <time>2021-05-23T08:54:51+02:00</time>
      </trkpt>
      <trkpt lat="44.94606" lon="5.14435">
        <ele>531</ele>
        <time>2021-05-23T08:55:08+02:00</time>
      </trkpt>
      <trkpt lat="44.946" lon="5.14431">
        <ele>533</ele>
        <time>2021-05-23T08:55:22+02:00</time>
      </trkpt>
      <trkpt lat="44.94593" lon="5.14425">
        <ele>535</ele>
        <time>2021-05-23T08:55:37+02:00</time>
      </trkpt>
      <trkpt lat="44.9459" lon="5.14419">
        <ele>538</ele>
        <time>2021-05-23T08:55:51+02:00</time>
      </trkpt>
      <trkpt lat="44.94588" lon="5.14412">
        <ele>540</ele>
        <time>2021-05-23T08:56:06+02:00</time>
      </trkpt>
      <trkpt lat="44.94584" lon="5.14407">
        <ele>543</ele>
        <time>2021-05-23T08:56:19+02:00</time>
      </trkpt>
      <trkpt lat="44.94577" lon="5.144">
        <ele>545</ele>
        <time>2021-05-23T08:56:35+02:00</time>
      </trkpt>
      <trkpt lat="44.9457" lon="5.14397">
        <ele>547</ele>
        <time>2021-05-23T08:56:49+02:00</time>
      </trkpt>
      <trkpt lat="44.94562" lon="5.14395">
        <ele>548</ele>
        <time>2021-05-23T08:57:00+02:00</time>
      </trkpt>
      <trkpt lat="44.94554" lon="5.14391">
        <ele>550</ele>
        <time>2021-05-23T08:57:13+02:00</time>
      </trkpt>
      <trkpt lat="44.94543" lon="5.14385">
        <ele>551</ele>
        <time>2021-05-23T08:57:28+02:00</time>
      </trkpt>
      <trkpt lat="44.94529" lon="5.14378">
        <ele>553</ele>
        <time>2021-05-23T08:57:43+02:00</time>
      </trkpt>
      <trkpt lat="44.94519" lon="5.14373">
        <ele>554</ele>
        <time>2021-05-23T08:57:58+02:00</time>
      </trkpt>
      <trkpt lat="44.9451" lon="5.14369">
        <ele>555</ele>
        <time>2021-05-23T08:58:11+02:00</time>
      </trkpt>
      <trkpt lat="44.94495" lon="5.14364">
        <ele>557</ele>
        <time>2021-05-23T08:58:28+02:00</time>
      </trkpt>
      <trkpt lat="44.94482" lon="5.1436">
        <ele>559</ele>
        <time>2021-05-23T08:58:44+02:00</time>
      </trkpt>
      <trkpt lat="44.94472" lon="5.14356">
        <ele>561</ele>
        <time>2021-05-23T08:58:57+02:00</time>
      </trkpt>
      <trkpt lat="44.94467" lon="5.14366">
        <ele>561</ele>
        <time>2021-05-23T08:59:08+02:00</time>
      </trkpt>
      <trkpt lat="44.94461" lon="5.14373">
        <ele>563</ele>
        <time>2021-05-23T08:59:19+02:00</time>
      </trkpt>
      <trkpt lat="44.94456" lon="5.14382">
        <ele>565</ele>
        <time>2021-05-23T08:59:33+02:00</time>
      </trkpt>
      <trkpt lat="44.9445" lon="5.14388">
        <ele>567</ele>
        <time>2021-05-23T08:59:50+02:00</time>
      </trkpt>
      <trkpt lat="44.94447" lon="5.14396">
        <ele>568</ele>
        <time>2021-05-23T09:00:05+02:00</time>
      </trkpt>
      <trkpt lat="44.94442" lon="5.14405">
        <ele>570</ele>
        <time>2021-05-23T09:00:19+02:00</time>
      </trkpt>
      <trkpt lat="44.9444" lon="5.14415">
        <ele>571</ele>
        <time>2021-05-23T09:00:32+02:00</time>
      </trkpt>
      <trkpt lat="44.94435" lon="5.14424">
        <ele>572</ele>
        <time>2021-05-23T09:00:46+02:00</time>
      </trkpt>
      <trkpt lat="44.9443" lon="5.14435">
        <ele>574</ele>
        <time>2021-05-23T09:01:02+02:00</time>
      </trkpt>
      <trkpt lat="44.94427" lon="5.14442">
        <ele>575</ele>
        <time>2021-05-23T09:01:15+02:00</time>
      </trkpt>
      <trkpt lat="44.94424" lon="5.14451">
        <ele>576</ele>
        <time>2021-05-23T09:01:29+02:00</time>
      </trkpt>
      <trkpt lat="44.9442" lon="5.14461">
        <ele>578</ele>
        <time>2021-05-23T09:01:43+02:00</time>
      </trkpt>
      <trkpt lat="44.94417" lon="5.14468">
        <ele>579</ele>
        <time>2021-05-23T09:01:56+02:00</time>
      </trkpt>
      <trkpt lat="44.94411" lon="5.14476">
        <ele>581</ele>
        <time>2021-05-23T09:02:09+02:00</time>
      </trkpt>
      <trkpt lat="44.944" lon="5.14484">
        <ele>585</ele>
        <time>2021-05-23T09:02:26+02:00</time>
      </trkpt>
      <trkpt lat="44.94388" lon="5.14493">
        <ele>589</ele>
        <time>2021-05-23T09:02:42+02:00</time>
      </trkpt>
      <trkpt lat="44.94383" lon="5.14501">
        <ele>589</ele>
        <time>2021-05-23T09:02:58+02:00</time>
      </trkpt>
      <trkpt lat="44.94379" lon="5.14497">
        <ele>591</ele>
        <time>2021-05-23T09:03:30+02:00</time>
      </trkpt>
      <trkpt lat="44.94383" lon="5.14491">
        <ele>591</ele>
        <time>2021-05-23T09:04:01+02:00</time>
      </trkpt>
      <trkpt lat="44.94387" lon="5.14493">
        <ele>589</ele>
        <time>2021-05-23T09:04:32+02:00</time>
      </trkpt>
      <trkpt lat="44.94387" lon="5.14492">
        <ele>589</ele>
        <time>2021-05-23T09:04:58+02:00</time>
      </trkpt>
      <trkpt lat="44.94389" lon="5.14497">
        <ele>588</ele>
        <time>2021-05-23T09:05:25+02:00</time>
      </trkpt>
      <trkpt lat="44.94383" lon="5.14496">
        <ele>590</ele>
        <time>2021-05-23T09:05:51+02:00</time>
      </trkpt>
      <trkpt lat="44.94374" lon="5.14504">
        <ele>590</ele>
        <time>2021-05-23T09:06:09+02:00</time>
      </trkpt>
      <trkpt lat="44.94364" lon="5.14509">
        <ele>592</ele>
        <time>2021-05-23T09:06:20+02:00</time>
      </trkpt>
      <trkpt lat="44.9435" lon="5.14514">
        <ele>594</ele>
        <time>2021-05-23T09:06:33+02:00</time>
      </trkpt>
      <trkpt lat="44.94339" lon="5.14519">
        <ele>595</ele>
        <time>2021-05-23T09:06:44+02:00</time>
      </trkpt>
      <trkpt lat="44.9433" lon="5.14526">
        <ele>595</ele>
        <time>2021-05-23T09:06:55+02:00</time>
      </trkpt>
      <trkpt lat="44.94318" lon="5.14533">
        <ele>597</ele>
        <time>2021-05-23T09:07:07+02:00</time>
      </trkpt>
      <trkpt lat="44.94306" lon="5.14539">
        <ele>598</ele>
        <time>2021-05-23T09:07:20+02:00</time>
      </trkpt>
      <trkpt lat="44.94291" lon="5.14539">
        <ele>598</ele>
        <time>2021-05-23T09:07:35+02:00</time>
      </trkpt>
      <trkpt lat="44.94278" lon="5.14527">
        <ele>599</ele>
        <time>2021-05-23T09:07:51+02:00</time>
      </trkpt>
      <trkpt lat="44.94265" lon="5.14518">
        <ele>599</ele>
        <time>2021-05-23T09:08:04+02:00</time>
      </trkpt>
      <trkpt lat="44.94253" lon="5.14512">
        <ele>599</ele>
        <time>2021-05-23T09:08:19+02:00</time>
      </trkpt>
      <trkpt lat="44.9424" lon="5.14505">
        <ele>600</ele>
        <time>2021-05-23T09:08:33+02:00</time>
      </trkpt>
      <trkpt lat="44.94224" lon="5.14501">
        <ele>602</ele>
        <time>2021-05-23T09:08:47+02:00</time>
      </trkpt>
      <trkpt lat="44.94213" lon="5.145">
        <ele>604</ele>
        <time>2021-05-23T09:08:59+02:00</time>
      </trkpt>
      <trkpt lat="44.942" lon="5.14507">
        <ele>604</ele>
        <time>2021-05-23T09:09:12+02:00</time>
      </trkpt>
      <trkpt lat="44.94186" lon="5.14509">
        <ele>605</ele>
        <time>2021-05-23T09:09:25+02:00</time>
      </trkpt>
      <trkpt lat="44.94172" lon="5.14505">
        <ele>607</ele>
        <time>2021-05-23T09:09:40+02:00</time>
      </trkpt>
      <trkpt lat="44.94161" lon="5.14494">
        <ele>611</ele>
        <time>2021-05-23T09:09:56+02:00</time>
      </trkpt>
      <trkpt lat="44.94151" lon="5.14486">
        <ele>613</ele>
        <time>2021-05-23T09:10:08+02:00</time>
      </trkpt>
      <trkpt lat="44.94145" lon="5.14483">
        <ele>614</ele>
        <time>2021-05-23T09:10:14+02:00</time>
      </trkpt>
      <trkpt lat="44.9413" lon="5.14482">
        <ele>616</ele>
        <time>2021-05-23T09:10:29+02:00</time>
      </trkpt>
      <trkpt lat="44.9412" lon="5.1449">
        <ele>617</ele>
        <time>2021-05-23T09:10:42+02:00</time>
      </trkpt>
      <trkpt lat="44.94119" lon="5.14489">
        <ele>617</ele>
        <time>2021-05-23T09:10:53+02:00</time>
      </trkpt>
      <trkpt lat="44.94115" lon="5.14482">
        <ele>620</ele>
        <time>2021-05-23T09:11:19+02:00</time>
      </trkpt>
      <trkpt lat="44.94115" lon="5.14481">
        <ele>621</ele>
        <time>2021-05-23T09:11:36+02:00</time>
      </trkpt>
      <trkpt lat="44.94115" lon="5.14484">
        <ele>620</ele>
        <time>2021-05-23T09:11:47+02:00</time>
      </trkpt>
      <trkpt lat="44.94115" lon="5.14489">
        <ele>619</ele>
        <time>2021-05-23T09:12:02+02:00</time>
      </trkpt>
      <trkpt lat="44.94113" lon="5.14492">
        <ele>618</ele>
        <time>2021-05-23T09:12:14+02:00</time>
      </trkpt>
      <trkpt lat="44.94109" lon="5.14495">
        <ele>619</ele>
        <time>2021-05-23T09:12:29+02:00</time>
      </trkpt>
      <trkpt lat="44.94101" lon="5.14499">
        <ele>621</ele>
        <time>2021-05-23T09:12:44+02:00</time>
      </trkpt>
      <trkpt lat="44.94096" lon="5.14503">
        <ele>622</ele>
        <time>2021-05-23T09:12:58+02:00</time>
      </trkpt>
      <trkpt lat="44.9409" lon="5.14506">
        <ele>624</ele>
        <time>2021-05-23T09:13:10+02:00</time>
      </trkpt>
      <trkpt lat="44.94087" lon="5.14514">
        <ele>624</ele>
        <time>2021-05-23T09:13:26+02:00</time>
      </trkpt>
      <trkpt lat="44.94082" lon="5.14515">
        <ele>627</ele>
        <time>2021-05-23T09:13:38+02:00</time>
      </trkpt>
      <trkpt lat="44.94077" lon="5.14516">
        <ele>630</ele>
        <time>2021-05-23T09:13:53+02:00</time>
      </trkpt>
      <trkpt lat="44.94071" lon="5.14523">
        <ele>633</ele>
        <time>2021-05-23T09:14:09+02:00</time>
      </trkpt>
      <trkpt lat="44.94067" lon="5.14528">
        <ele>635</ele>
        <time>2021-05-23T09:14:22+02:00</time>
      </trkpt>
      <trkpt lat="44.94064" lon="5.14534">
        <ele>637</ele>
        <time>2021-05-23T09:14:36+02:00</time>
      </trkpt>
      <trkpt lat="44.9406" lon="5.14543">
        <ele>639</ele>
        <time>2021-05-23T09:14:51+02:00</time>
      </trkpt>
      <trkpt lat="44.94061" lon="5.14553">
        <ele>637</ele>
        <time>2021-05-23T09:15:04+02:00</time>
      </trkpt>
      <trkpt lat="44.94058" lon="5.14562">
        <ele>638</ele>
        <time>2021-05-23T09:15:18+02:00</time>
      </trkpt>
      <trkpt lat="44.94053" lon="5.1457">
        <ele>639</ele>
        <time>2021-05-23T09:15:30+02:00</time>
      </trkpt>
      <trkpt lat="44.94053" lon="5.14572">
        <ele>639</ele>
        <time>2021-05-23T09:15:50+02:00</time>
      </trkpt>
      <trkpt lat="44.94045" lon="5.14575">
        <ele>643</ele>
        <time>2021-05-23T09:16:06+02:00</time>
      </trkpt>
      <trkpt lat="44.94037" lon="5.14573">
        <ele>646</ele>
        <time>2021-05-23T09:16:25+02:00</time>
      </trkpt>
      <trkpt lat="44.94031" lon="5.14572">
        <ele>650</ele>
        <time>2021-05-23T09:16:38+02:00</time>
      </trkpt>
      <trkpt lat="44.94026" lon="5.14567">
        <ele>652</ele>
        <time>2021-05-23T09:16:51+02:00</time>
      </trkpt>
      <trkpt lat="44.94021" lon="5.14564">
        <ele>655</ele>
        <time>2021-05-23T09:17:04+02:00</time>
      </trkpt>
      <trkpt lat="44.94016" lon="5.1456">
        <ele>658</ele>
        <time>2021-05-23T09:17:21+02:00</time>
      </trkpt>
      <trkpt lat="44.94013" lon="5.14563">
        <ele>659</ele>
        <time>2021-05-23T09:17:36+02:00</time>
      </trkpt>
      <trkpt lat="44.94009" lon="5.14564">
        <ele>661</ele>
        <time>2021-05-23T09:17:48+02:00</time>
      </trkpt>
      <trkpt lat="44.94003" lon="5.1457">
        <ele>662</ele>
        <time>2021-05-23T09:18:04+02:00</time>
      </trkpt>
      <trkpt lat="44.93997" lon="5.14576">
        <ele>664</ele>
        <time>2021-05-23T09:18:23+02:00</time>
      </trkpt>
      <trkpt lat="44.93992" lon="5.14581">
        <ele>666</ele>
        <time>2021-05-23T09:18:43+02:00</time>
      </trkpt>
      <trkpt lat="44.93984" lon="5.14582">
        <ele>670</ele>
        <time>2021-05-23T09:19:00+02:00</time>
      </trkpt>
      <trkpt lat="44.93981" lon="5.14583">
        <ele>671</ele>
        <time>2021-05-23T09:19:14+02:00</time>
      </trkpt>
      <trkpt lat="44.93978" lon="5.14582">
        <ele>673</ele>
        <time>2021-05-23T09:19:30+02:00</time>
      </trkpt>
      <trkpt lat="44.93978" lon="5.14585">
        <ele>673</ele>
        <time>2021-05-23T09:19:45+02:00</time>
      </trkpt>
      <trkpt lat="44.93977" lon="5.14585">
        <ele>673</ele>
        <time>2021-05-23T09:20:09+02:00</time>
      </trkpt>
      <trkpt lat="44.93977" lon="5.14584">
        <ele>674</ele>
        <time>2021-05-23T09:20:35+02:00</time>
      </trkpt>
      <trkpt lat="44.93976" lon="5.14586">
        <ele>674</ele>
        <time>2021-05-23T09:21:02+02:00</time>
      </trkpt>
      <trkpt lat="44.93977" lon="5.14588">
        <ele>674</ele>
        <time>2021-05-23T09:21:32+02:00</time>
      </trkpt>
      <trkpt lat="44.93973" lon="5.14584">
        <ele>676</ele>
        <time>2021-05-23T09:21:59+02:00</time>
      </trkpt>
      <trkpt lat="44.9398" lon="5.14595">
        <ele>673</ele>
        <time>2021-05-23T09:22:20+02:00</time>
      </trkpt>
      <trkpt lat="44.93977" lon="5.14612">
        <ele>675</ele>
        <time>2021-05-23T09:22:35+02:00</time>
      </trkpt>
      <trkpt lat="44.93974" lon="5.14629">
        <ele>679</ele>
        <time>2021-05-23T09:22:48+02:00</time>
      </trkpt>
      <trkpt lat="44.93983" lon="5.14646">
        <ele>679</ele>
        <time>2021-05-23T09:23:03+02:00</time>
      </trkpt>
      <trkpt lat="44.93989" lon="5.14664">
        <ele>681</ele>
        <time>2021-05-23T09:23:17+02:00</time>
      </trkpt>
      <trkpt lat="44.93994" lon="5.1468">
        <ele>679</ele>
        <time>2021-05-23T09:23:29+02:00</time>
      </trkpt>
      <trkpt lat="44.93983" lon="5.14683">
        <ele>683</ele>
        <time>2021-05-23T09:23:46+02:00</time>
      </trkpt>
      <trkpt lat="44.93975" lon="5.14683">
        <ele>685</ele>
        <time>2021-05-23T09:24:00+02:00</time>
      </trkpt>
      <trkpt lat="44.93967" lon="5.14683">
        <ele>688</ele>
        <time>2021-05-23T09:24:14+02:00</time>
      </trkpt>
      <trkpt lat="44.93956" lon="5.14682">
        <ele>691</ele>
        <time>2021-05-23T09:24:31+02:00</time>
      </trkpt>
      <trkpt lat="44.93947" lon="5.14684">
        <ele>693</ele>
        <time>2021-05-23T09:24:48+02:00</time>
      </trkpt>
      <trkpt lat="44.93947" lon="5.14683">
        <ele>693</ele>
        <time>2021-05-23T09:25:05+02:00</time>
      </trkpt>
      <trkpt lat="44.93933" lon="5.14682">
        <ele>697</ele>
        <time>2021-05-23T09:25:22+02:00</time>
      </trkpt>
      <trkpt lat="44.93926" lon="5.1468">
        <ele>699</ele>
        <time>2021-05-23T09:25:36+02:00</time>
      </trkpt>
      <trkpt lat="44.93918" lon="5.14684">
        <ele>700</ele>
        <time>2021-05-23T09:25:53+02:00</time>
      </trkpt>
      <trkpt lat="44.93911" lon="5.14682">
        <ele>703</ele>
        <time>2021-05-23T09:26:06+02:00</time>
      </trkpt>
      <trkpt lat="44.93901" lon="5.14684">
        <ele>705</ele>
        <time>2021-05-23T09:26:22+02:00</time>
      </trkpt>
      <trkpt lat="44.93894" lon="5.14678">
        <ele>709</ele>
        <time>2021-05-23T09:26:36+02:00</time>
      </trkpt>
      <trkpt lat="44.93884" lon="5.14672">
        <ele>712</ele>
        <time>2021-05-23T09:26:54+02:00</time>
      </trkpt>
      <trkpt lat="44.93876" lon="5.1467">
        <ele>712</ele>
        <time>2021-05-23T09:27:08+02:00</time>
      </trkpt>
      <trkpt lat="44.9387" lon="5.14663">
        <ele>714</ele>
        <time>2021-05-23T09:27:23+02:00</time>
      </trkpt>
      <trkpt lat="44.93868" lon="5.14662">
        <ele>714</ele>
        <time>2021-05-23T09:27:28+02:00</time>
      </trkpt>
      <trkpt lat="44.93863" lon="5.14654">
        <ele>716</ele>
        <time>2021-05-23T09:27:42+02:00</time>
      </trkpt>
      <trkpt lat="44.9386" lon="5.14649">
        <ele>717</ele>
        <time>2021-05-23T09:27:58+02:00</time>
      </trkpt>
      <trkpt lat="44.93863" lon="5.14649">
        <ele>717</ele>
        <time>2021-05-23T09:28:15+02:00</time>
      </trkpt>
      <trkpt lat="44.93864" lon="5.14649">
        <ele>717</ele>
        <time>2021-05-23T09:28:35+02:00</time>
      </trkpt>
      <trkpt lat="44.93866" lon="5.14648">
        <ele>717</ele>
        <time>2021-05-23T09:28:54+02:00</time>
      </trkpt>
      <trkpt lat="44.93861" lon="5.14654">
        <ele>716</ele>
        <time>2021-05-23T09:29:19+02:00</time>
      </trkpt>
      <trkpt lat="44.93862" lon="5.14656">
        <ele>716</ele>
        <time>2021-05-23T09:29:41+02:00</time>
      </trkpt>
      <trkpt lat="44.93862" lon="5.14654">
        <ele>716</ele>
        <time>2021-05-23T09:30:02+02:00</time>
      </trkpt>
      <trkpt lat="44.93866" lon="5.14654">
        <ele>716</ele>
        <time>2021-05-23T09:30:26+02:00</time>
      </trkpt>
      <trkpt lat="44.93864" lon="5.1465">
        <ele>717</ele>
        <time>2021-05-23T09:31:00+02:00</time>
      </trkpt>
      <trkpt lat="44.93862" lon="5.14651">
        <ele>717</ele>
        <time>2021-05-23T09:31:18+02:00</time>
      </trkpt>
      <trkpt lat="44.93864" lon="5.14651">
        <ele>717</ele>
        <time>2021-05-23T09:31:41+02:00</time>
      </trkpt>
      <trkpt lat="44.93861" lon="5.1465">
        <ele>717</ele>
        <time>2021-05-23T09:32:04+02:00</time>
      </trkpt>
      <trkpt lat="44.9386" lon="5.14647">
        <ele>718</ele>
        <time>2021-05-23T09:32:32+02:00</time>
      </trkpt>
      <trkpt lat="44.93859" lon="5.1464">
        <ele>719</ele>
        <time>2021-05-23T09:32:53+02:00</time>
      </trkpt>
      <trkpt lat="44.9386" lon="5.1464">
        <ele>719</ele>
        <time>2021-05-23T09:33:10+02:00</time>
      </trkpt>
      <trkpt lat="44.93863" lon="5.14647">
        <ele>718</ele>
        <time>2021-05-23T09:33:32+02:00</time>
      </trkpt>
      <trkpt lat="44.9386" lon="5.14649">
        <ele>717</ele>
        <time>2021-05-23T09:33:51+02:00</time>
      </trkpt>
      <trkpt lat="44.93853" lon="5.14645">
        <ele>716</ele>
        <time>2021-05-23T09:34:06+02:00</time>
      </trkpt>
      <trkpt lat="44.93845" lon="5.1464">
        <ele>715</ele>
        <time>2021-05-23T09:34:17+02:00</time>
      </trkpt>
      <trkpt lat="44.93835" lon="5.14635">
        <ele>714</ele>
        <time>2021-05-23T09:34:30+02:00</time>
      </trkpt>
      <trkpt lat="44.93826" lon="5.1463">
        <ele>714</ele>
        <time>2021-05-23T09:34:42+02:00</time>
      </trkpt>
      <trkpt lat="44.93814" lon="5.14624">
        <ele>713</ele>
        <time>2021-05-23T09:34:56+02:00</time>
      </trkpt>
      <trkpt lat="44.93801" lon="5.1462">
        <ele>712</ele>
        <time>2021-05-23T09:35:11+02:00</time>
      </trkpt>
      <trkpt lat="44.93787" lon="5.14617">
        <ele>711</ele>
        <time>2021-05-23T09:35:26+02:00</time>
      </trkpt>
      <trkpt lat="44.93773" lon="5.14613">
        <ele>712</ele>
        <time>2021-05-23T09:35:40+02:00</time>
      </trkpt>
      <trkpt lat="44.93761" lon="5.14609">
        <ele>713</ele>
        <time>2021-05-23T09:35:54+02:00</time>
      </trkpt>
      <trkpt lat="44.9375" lon="5.14608">
        <ele>714</ele>
        <time>2021-05-23T09:36:08+02:00</time>
      </trkpt>
      <trkpt lat="44.93736" lon="5.14613">
        <ele>713</ele>
        <time>2021-05-23T09:36:21+02:00</time>
      </trkpt>
      <trkpt lat="44.93722" lon="5.14614">
        <ele>713</ele>
        <time>2021-05-23T09:36:36+02:00</time>
      </trkpt>
      <trkpt lat="44.93709" lon="5.1462">
        <ele>710</ele>
        <time>2021-05-23T09:36:50+02:00</time>
      </trkpt>
      <trkpt lat="44.93698" lon="5.14622">
        <ele>709</ele>
        <time>2021-05-23T09:37:00+02:00</time>
      </trkpt>
      <trkpt lat="44.9369" lon="5.14632">
        <ele>709</ele>
        <time>2021-05-23T09:37:13+02:00</time>
      </trkpt>
      <trkpt lat="44.93679" lon="5.14641">
        <ele>709</ele>
        <time>2021-05-23T09:37:28+02:00</time>
      </trkpt>
      <trkpt lat="44.93674" lon="5.14658">
        <ele>710</ele>
        <time>2021-05-23T09:37:44+02:00</time>
      </trkpt>
      <trkpt lat="44.93666" lon="5.14668">
        <ele>712</ele>
        <time>2021-05-23T09:38:01+02:00</time>
      </trkpt>
      <trkpt lat="44.93656" lon="5.14678">
        <ele>714</ele>
        <time>2021-05-23T09:38:17+02:00</time>
      </trkpt>
      <trkpt lat="44.93645" lon="5.14685">
        <ele>717</ele>
        <time>2021-05-23T09:38:35+02:00</time>
      </trkpt>
      <trkpt lat="44.93636" lon="5.14692">
        <ele>718</ele>
        <time>2021-05-23T09:38:50+02:00</time>
      </trkpt>
      <trkpt lat="44.93625" lon="5.14693">
        <ele>716</ele>
        <time>2021-05-23T09:39:02+02:00</time>
      </trkpt>
      <trkpt lat="44.93617" lon="5.14685">
        <ele>714</ele>
        <time>2021-05-23T09:39:14+02:00</time>
      </trkpt>
      <trkpt lat="44.93605" lon="5.14681">
        <ele>713</ele>
        <time>2021-05-23T09:39:27+02:00</time>
      </trkpt>
      <trkpt lat="44.93594" lon="5.14675">
        <ele>712</ele>
        <time>2021-05-23T09:39:40+02:00</time>
      </trkpt>
      <trkpt lat="44.93577" lon="5.1467">
        <ele>711</ele>
        <time>2021-05-23T09:39:55+02:00</time>
      </trkpt>
      <trkpt lat="44.93559" lon="5.1467">
        <ele>711</ele>
        <time>2021-05-23T09:40:12+02:00</time>
      </trkpt>
      <trkpt lat="44.93548" lon="5.14671">
        <ele>711</ele>
        <time>2021-05-23T09:40:25+02:00</time>
      </trkpt>
      <trkpt lat="44.9353" lon="5.14672">
        <ele>710</ele>
        <time>2021-05-23T09:40:40+02:00</time>
      </trkpt>
      <trkpt lat="44.93526" lon="5.14672">
        <ele>710</ele>
        <time>2021-05-23T09:40:54+02:00</time>
      </trkpt>
      <trkpt lat="44.93522" lon="5.14675">
        <ele>709</ele>
        <time>2021-05-23T09:41:21+02:00</time>
      </trkpt>
      <trkpt lat="44.9352" lon="5.14677">
        <ele>708</ele>
        <time>2021-05-23T09:41:49+02:00</time>
      </trkpt>
      <trkpt lat="44.93518" lon="5.14678">
        <ele>708</ele>
        <time>2021-05-23T09:42:23+02:00</time>
      </trkpt>
      <trkpt lat="44.9352" lon="5.14675">
        <ele>708</ele>
        <time>2021-05-23T09:42:51+02:00</time>
      </trkpt>
      <trkpt lat="44.93519" lon="5.14673">
        <ele>708</ele>
        <time>2021-05-23T09:43:15+02:00</time>
      </trkpt>
      <trkpt lat="44.93514" lon="5.14671">
        <ele>708</ele>
        <time>2021-05-23T09:43:24+02:00</time>
      </trkpt>
      <trkpt lat="44.93513" lon="5.14669">
        <ele>708</ele>
        <time>2021-05-23T09:43:26+02:00</time>
      </trkpt>
      <trkpt lat="44.93505" lon="5.14661">
        <ele>706</ele>
        <time>2021-05-23T09:43:35+02:00</time>
      </trkpt>
      <trkpt lat="44.9349" lon="5.14651">
        <ele>703</ele>
        <time>2021-05-23T09:43:47+02:00</time>
      </trkpt>
      <trkpt lat="44.93475" lon="5.14641">
        <ele>700</ele>
        <time>2021-05-23T09:44:03+02:00</time>
      </trkpt>
      <trkpt lat="44.93467" lon="5.14637">
        <ele>700</ele>
        <time>2021-05-23T09:44:11+02:00</time>
      </trkpt>
      <trkpt lat="44.93457" lon="5.14629">
        <ele>700</ele>
        <time>2021-05-23T09:44:25+02:00</time>
      </trkpt>
      <trkpt lat="44.93454" lon="5.14628">
        <ele>700</ele>
        <time>2021-05-23T09:44:38+02:00</time>
      </trkpt>
      <trkpt lat="44.93456" lon="5.14628">
        <ele>700</ele>
        <time>2021-05-23T09:44:57+02:00</time>
      </trkpt>
      <trkpt lat="44.93457" lon="5.14629">
        <ele>700</ele>
        <time>2021-05-23T09:45:19+02:00</time>
      </trkpt>
      <trkpt lat="44.93457" lon="5.14629">
        <ele>700</ele>
        <time>2021-05-23T09:45:49+02:00</time>
      </trkpt>
      <trkpt lat="44.93457" lon="5.14629">
        <ele>700</ele>
        <time>2021-05-23T09:46:08+02:00</time>
      </trkpt>
      <trkpt lat="44.93456" lon="5.14628">
        <ele>700</ele>
        <time>2021-05-23T09:46:31+02:00</time>
      </trkpt>
      <trkpt lat="44.93455" lon="5.14629">
        <ele>700</ele>
        <time>2021-05-23T09:46:55+02:00</time>
      </trkpt>
      <trkpt lat="44.93455" lon="5.14626">
        <ele>700</ele>
        <time>2021-05-23T09:47:20+02:00</time>
      </trkpt>
      <trkpt lat="44.93457" lon="5.14624">
        <ele>700</ele>
        <time>2021-05-23T09:47:53+02:00</time>
      </trkpt>
      <trkpt lat="44.93457" lon="5.14629">
        <ele>700</ele>
        <time>2021-05-23T09:48:22+02:00</time>
      </trkpt>
      <trkpt lat="44.93453" lon="5.14636">
        <ele>700</ele>
        <time>2021-05-23T09:48:38+02:00</time>
      </trkpt>
      <trkpt lat="44.9345" lon="5.14641">
        <ele>700</ele>
        <time>2021-05-23T09:48:57+02:00</time>
      </trkpt>
      <trkpt lat="44.93445" lon="5.14648">
        <ele>700</ele>
        <time>2021-05-23T09:49:13+02:00</time>
      </trkpt>
      <trkpt lat="44.93439" lon="5.14662">
        <ele>701</ele>
        <time>2021-05-23T09:49:31+02:00</time>
      </trkpt>
      <trkpt lat="44.93429" lon="5.14668">
        <ele>701</ele>
        <time>2021-05-23T09:49:45+02:00</time>
      </trkpt>
      <trkpt lat="44.93418" lon="5.14673">
        <ele>702</ele>
        <time>2021-05-23T09:50:00+02:00</time>
      </trkpt>
      <trkpt lat="44.93403" lon="5.14678">
        <ele>706</ele>
        <time>2021-05-23T09:50:16+02:00</time>
      </trkpt>
      <trkpt lat="44.9339" lon="5.14683">
        <ele>711</ele>
        <time>2021-05-23T09:50:30+02:00</time>
      </trkpt>
      <trkpt lat="44.93384" lon="5.14692">
        <ele>715</ele>
        <time>2021-05-23T09:50:47+02:00</time>
      </trkpt>
      <trkpt lat="44.93375" lon="5.14696">
        <ele>718</ele>
        <time>2021-05-23T09:51:05+02:00</time>
      </trkpt>
      <trkpt lat="44.93377" lon="5.14704">
        <ele>718</ele>
        <time>2021-05-23T09:51:22+02:00</time>
      </trkpt>
      <trkpt lat="44.9337" lon="5.14714">
        <ele>722</ele>
        <time>2021-05-23T09:51:40+02:00</time>
      </trkpt>
      <trkpt lat="44.93367" lon="5.14722">
        <ele>724</ele>
        <time>2021-05-23T09:51:58+02:00</time>
      </trkpt>
      <trkpt lat="44.93368" lon="5.14738">
        <ele>725</ele>
        <time>2021-05-23T09:52:19+02:00</time>
      </trkpt>
      <trkpt lat="44.93363" lon="5.14751">
        <ele>728</ele>
        <time>2021-05-23T09:52:38+02:00</time>
      </trkpt>
      <trkpt lat="44.93359" lon="5.14763">
        <ele>731</ele>
        <time>2021-05-23T09:52:55+02:00</time>
      </trkpt>
      <trkpt lat="44.93357" lon="5.1478">
        <ele>733</ele>
        <time>2021-05-23T09:53:13+02:00</time>
      </trkpt>
      <trkpt lat="44.93354" lon="5.14797">
        <ele>734</ele>
        <time>2021-05-23T09:53:31+02:00</time>
      </trkpt>
      <trkpt lat="44.93348" lon="5.14809">
        <ele>738</ele>
        <time>2021-05-23T09:53:49+02:00</time>
      </trkpt>
      <trkpt lat="44.93345" lon="5.14816">
        <ele>739</ele>
        <time>2021-05-23T09:54:03+02:00</time>
      </trkpt>
      <trkpt lat="44.93337" lon="5.14825">
        <ele>744</ele>
        <time>2021-05-23T09:54:22+02:00</time>
      </trkpt>
      <trkpt lat="44.93331" lon="5.14834">
        <ele>746</ele>
        <time>2021-05-23T09:54:38+02:00</time>
      </trkpt>
      <trkpt lat="44.93323" lon="5.14841">
        <ele>747</ele>
        <time>2021-05-23T09:54:55+02:00</time>
      </trkpt>
      <trkpt lat="44.93312" lon="5.14844">
        <ele>748</ele>
        <time>2021-05-23T09:55:11+02:00</time>
      </trkpt>
      <trkpt lat="44.93299" lon="5.14843">
        <ele>748</ele>
        <time>2021-05-23T09:55:24+02:00</time>
      </trkpt>
      <trkpt lat="44.93285" lon="5.14838">
        <ele>749</ele>
        <time>2021-05-23T09:55:42+02:00</time>
      </trkpt>
      <trkpt lat="44.9327" lon="5.1483">
        <ele>750</ele>
        <time>2021-05-23T09:55:58+02:00</time>
      </trkpt>
      <trkpt lat="44.93261" lon="5.14823">
        <ele>749</ele>
        <time>2021-05-23T09:56:11+02:00</time>
      </trkpt>
      <trkpt lat="44.93249" lon="5.1482">
        <ele>749</ele>
        <time>2021-05-23T09:56:27+02:00</time>
      </trkpt>
      <trkpt lat="44.93239" lon="5.1482">
        <ele>749</ele>
        <time>2021-05-23T09:56:41+02:00</time>
      </trkpt>
      <trkpt lat="44.93229" lon="5.14822">
        <ele>749</ele>
        <time>2021-05-23T09:56:57+02:00</time>
      </trkpt>
      <trkpt lat="44.93226" lon="5.14819">
        <ele>750</ele>
        <time>2021-05-23T09:57:10+02:00</time>
      </trkpt>
      <trkpt lat="44.93223" lon="5.14819">
        <ele>750</ele>
        <time>2021-05-23T09:57:45+02:00</time>
      </trkpt>
      <trkpt lat="44.93226" lon="5.1482">
        <ele>749</ele>
        <time>2021-05-23T09:58:09+02:00</time>
      </trkpt>
      <trkpt lat="44.93218" lon="5.14822">
        <ele>750</ele>
        <time>2021-05-23T09:58:23+02:00</time>
      </trkpt>
      <trkpt lat="44.9321" lon="5.14827">
        <ele>750</ele>
        <time>2021-05-23T09:58:37+02:00</time>
      </trkpt>
      <trkpt lat="44.93195" lon="5.14831">
        <ele>750</ele>
        <time>2021-05-23T09:58:52+02:00</time>
      </trkpt>
      <trkpt lat="44.9318" lon="5.14828">
        <ele>750</ele>
        <time>2021-05-23T09:59:05+02:00</time>
      </trkpt>
      <trkpt lat="44.93169" lon="5.14834">
        <ele>750</ele>
        <time>2021-05-23T09:59:21+02:00</time>
      </trkpt>
      <trkpt lat="44.9316" lon="5.14842">
        <ele>750</ele>
        <time>2021-05-23T09:59:33+02:00</time>
      </trkpt>
      <trkpt lat="44.93147" lon="5.14853">
        <ele>750</ele>
        <time>2021-05-23T09:59:47+02:00</time>
      </trkpt>
      <trkpt lat="44.93131" lon="5.14851">
        <ele>749</ele>
        <time>2021-05-23T10:00:03+02:00</time>
      </trkpt>
      <trkpt lat="44.93124" lon="5.14836">
        <ele>746</ele>
        <time>2021-05-23T10:00:17+02:00</time>
      </trkpt>
      <trkpt lat="44.93117" lon="5.14832">
        <ele>745</ele>
        <time>2021-05-23T10:00:32+02:00</time>
      </trkpt>
      <trkpt lat="44.93115" lon="5.14833">
        <ele>745</ele>
        <time>2021-05-23T10:00:34+02:00</time>
      </trkpt>
      <trkpt lat="44.93107" lon="5.14848">
        <ele>745</ele>
        <time>2021-05-23T10:00:48+02:00</time>
      </trkpt>
      <trkpt lat="44.93098" lon="5.14861">
        <ele>746</ele>
        <time>2021-05-23T10:01:03+02:00</time>
      </trkpt>
      <trkpt lat="44.93091" lon="5.14868">
        <ele>745</ele>
        <time>2021-05-23T10:01:14+02:00</time>
      </trkpt>
      <trkpt lat="44.93087" lon="5.14872">
        <ele>745</ele>
        <time>2021-05-23T10:01:28+02:00</time>
      </trkpt>
      <trkpt lat="44.93086" lon="5.14872">
        <ele>745</ele>
        <time>2021-05-23T10:01:30+02:00</time>
      </trkpt>
      <trkpt lat="44.93074" lon="5.14888">
        <ele>745</ele>
        <time>2021-05-23T10:01:46+02:00</time>
      </trkpt>
      <trkpt lat="44.93064" lon="5.14902">
        <ele>745</ele>
        <time>2021-05-23T10:02:01+02:00</time>
      </trkpt>
      <trkpt lat="44.93057" lon="5.14912">
        <ele>746</ele>
        <time>2021-05-23T10:02:16+02:00</time>
      </trkpt>
      <trkpt lat="44.93054" lon="5.14919">
        <ele>746</ele>
        <time>2021-05-23T10:02:34+02:00</time>
      </trkpt>
      <trkpt lat="44.93044" lon="5.14935">
        <ele>744</ele>
        <time>2021-05-23T10:02:50+02:00</time>
      </trkpt>
      <trkpt lat="44.93041" lon="5.14942">
        <ele>743</ele>
        <time>2021-05-23T10:02:58+02:00</time>
      </trkpt>
      <trkpt lat="44.93032" lon="5.14954">
        <ele>742</ele>
        <time>2021-05-23T10:03:13+02:00</time>
      </trkpt>
      <trkpt lat="44.9302" lon="5.14967">
        <ele>741</ele>
        <time>2021-05-23T10:03:29+02:00</time>
      </trkpt>
      <trkpt lat="44.93008" lon="5.14978">
        <ele>740</ele>
        <time>2021-05-23T10:03:45+02:00</time>
      </trkpt>
      <trkpt lat="44.92997" lon="5.14992">
        <ele>740</ele>
        <time>2021-05-23T10:03:59+02:00</time>
      </trkpt>
      <trkpt lat="44.92984" lon="5.1501">
        <ele>740</ele>
        <time>2021-05-23T10:04:15+02:00</time>
      </trkpt>
      <trkpt lat="44.92972" lon="5.15023">
        <ele>740</ele>
        <time>2021-05-23T10:04:30+02:00</time>
      </trkpt>
      <trkpt lat="44.92961" lon="5.15034">
        <ele>739</ele>
        <time>2021-05-23T10:04:45+02:00</time>
      </trkpt>
      <trkpt lat="44.92954" lon="5.15042">
        <ele>739</ele>
        <time>2021-05-23T10:04:58+02:00</time>
      </trkpt>
      <trkpt lat="44.92949" lon="5.15047">
        <ele>739</ele>
        <time>2021-05-23T10:05:15+02:00</time>
      </trkpt>
      <trkpt lat="44.92945" lon="5.15048">
        <ele>739</ele>
        <time>2021-05-23T10:05:33+02:00</time>
      </trkpt>
      <trkpt lat="44.92943" lon="5.15046">
        <ele>739</ele>
        <time>2021-05-23T10:05:52+02:00</time>
      </trkpt>
      <trkpt lat="44.9294" lon="5.15054">
        <ele>740</ele>
        <time>2021-05-23T10:06:04+02:00</time>
      </trkpt>
      <trkpt lat="44.92928" lon="5.15064">
        <ele>741</ele>
        <time>2021-05-23T10:06:20+02:00</time>
      </trkpt>
      <trkpt lat="44.92918" lon="5.15073">
        <ele>743</ele>
        <time>2021-05-23T10:06:34+02:00</time>
      </trkpt>
      <trkpt lat="44.92912" lon="5.15079">
        <ele>745</ele>
        <time>2021-05-23T10:06:46+02:00</time>
      </trkpt>
      <trkpt lat="44.92901" lon="5.15089">
        <ele>748</ele>
        <time>2021-05-23T10:07:04+02:00</time>
      </trkpt>
      <trkpt lat="44.92893" lon="5.15094">
        <ele>750</ele>
        <time>2021-05-23T10:07:18+02:00</time>
      </trkpt>
      <trkpt lat="44.92885" lon="5.15102">
        <ele>752</ele>
        <time>2021-05-23T10:07:34+02:00</time>
      </trkpt>
      <trkpt lat="44.92879" lon="5.15109">
        <ele>753</ele>
        <time>2021-05-23T10:07:47+02:00</time>
      </trkpt>
      <trkpt lat="44.92875" lon="5.15122">
        <ele>755</ele>
        <time>2021-05-23T10:08:01+02:00</time>
      </trkpt>
      <trkpt lat="44.92869" lon="5.15132">
        <ele>757</ele>
        <time>2021-05-23T10:08:16+02:00</time>
      </trkpt>
      <trkpt lat="44.92862" lon="5.15142">
        <ele>759</ele>
        <time>2021-05-23T10:08:32+02:00</time>
      </trkpt>
      <trkpt lat="44.92857" lon="5.1515">
        <ele>759</ele>
        <time>2021-05-23T10:08:43+02:00</time>
      </trkpt>
      <trkpt lat="44.92851" lon="5.15161">
        <ele>760</ele>
        <time>2021-05-23T10:08:57+02:00</time>
      </trkpt>
      <trkpt lat="44.92842" lon="5.1517">
        <ele>761</ele>
        <time>2021-05-23T10:09:12+02:00</time>
      </trkpt>
      <trkpt lat="44.92835" lon="5.15181">
        <ele>762</ele>
        <time>2021-05-23T10:09:28+02:00</time>
      </trkpt>
      <trkpt lat="44.92827" lon="5.1519">
        <ele>763</ele>
        <time>2021-05-23T10:09:45+02:00</time>
      </trkpt>
      <trkpt lat="44.92821" lon="5.15201">
        <ele>764</ele>
        <time>2021-05-23T10:09:59+02:00</time>
      </trkpt>
      <trkpt lat="44.92813" lon="5.15215">
        <ele>767</ele>
        <time>2021-05-23T10:10:15+02:00</time>
      </trkpt>
      <trkpt lat="44.92803" lon="5.15226">
        <ele>770</ele>
        <time>2021-05-23T10:10:31+02:00</time>
      </trkpt>
      <trkpt lat="44.92797" lon="5.15236">
        <ele>770</ele>
        <time>2021-05-23T10:10:44+02:00</time>
      </trkpt>
      <trkpt lat="44.92788" lon="5.15248">
        <ele>773</ele>
        <time>2021-05-23T10:11:02+02:00</time>
      </trkpt>
      <trkpt lat="44.92781" lon="5.15254">
        <ele>776</ele>
        <time>2021-05-23T10:11:17+02:00</time>
      </trkpt>
      <trkpt lat="44.9277" lon="5.15265">
        <ele>779</ele>
        <time>2021-05-23T10:11:35+02:00</time>
      </trkpt>
      <trkpt lat="44.92761" lon="5.15267">
        <ele>781</ele>
        <time>2021-05-23T10:11:53+02:00</time>
      </trkpt>
      <trkpt lat="44.92753" lon="5.1527">
        <ele>783</ele>
        <time>2021-05-23T10:12:09+02:00</time>
      </trkpt>
      <trkpt lat="44.92742" lon="5.15274">
        <ele>785</ele>
        <time>2021-05-23T10:12:24+02:00</time>
      </trkpt>
      <trkpt lat="44.92735" lon="5.15281">
        <ele>787</ele>
        <time>2021-05-23T10:12:39+02:00</time>
      </trkpt>
      <trkpt lat="44.92726" lon="5.15287">
        <ele>789</ele>
        <time>2021-05-23T10:12:56+02:00</time>
      </trkpt>
      <trkpt lat="44.92718" lon="5.15293">
        <ele>791</ele>
        <time>2021-05-23T10:13:11+02:00</time>
      </trkpt>
      <trkpt lat="44.92709" lon="5.15296">
        <ele>793</ele>
        <time>2021-05-23T10:13:26+02:00</time>
      </trkpt>
      <trkpt lat="44.92701" lon="5.153">
        <ele>794</ele>
        <time>2021-05-23T10:13:40+02:00</time>
      </trkpt>
      <trkpt lat="44.92691" lon="5.15305">
        <ele>797</ele>
        <time>2021-05-23T10:13:56+02:00</time>
      </trkpt>
      <trkpt lat="44.92679" lon="5.15312">
        <ele>800</ele>
        <time>2021-05-23T10:14:13+02:00</time>
      </trkpt>
      <trkpt lat="44.92667" lon="5.15319">
        <ele>802</ele>
        <time>2021-05-23T10:14:31+02:00</time>
      </trkpt>
      <trkpt lat="44.92658" lon="5.15323">
        <ele>804</ele>
        <time>2021-05-23T10:14:46+02:00</time>
      </trkpt>
      <trkpt lat="44.92653" lon="5.15329">
        <ele>806</ele>
        <time>2021-05-23T10:15:02+02:00</time>
      </trkpt>
      <trkpt lat="44.92644" lon="5.15333">
        <ele>808</ele>
        <time>2021-05-23T10:15:16+02:00</time>
      </trkpt>
      <trkpt lat="44.92631" lon="5.15333">
        <ele>809</ele>
        <time>2021-05-23T10:15:32+02:00</time>
      </trkpt>
      <trkpt lat="44.9262" lon="5.15332">
        <ele>808</ele>
        <time>2021-05-23T10:15:48+02:00</time>
      </trkpt>
      <trkpt lat="44.92617" lon="5.15332">
        <ele>808</ele>
        <time>2021-05-23T10:16:03+02:00</time>
      </trkpt>
      <trkpt lat="44.92616" lon="5.1533">
        <ele>807</ele>
        <time>2021-05-23T10:16:25+02:00</time>
      </trkpt>
      <trkpt lat="44.92613" lon="5.15332">
        <ele>808</ele>
        <time>2021-05-23T10:16:45+02:00</time>
      </trkpt>
      <trkpt lat="44.92612" lon="5.15332">
        <ele>808</ele>
        <time>2021-05-23T10:17:07+02:00</time>
      </trkpt>
      <trkpt lat="44.92614" lon="5.1533">
        <ele>808</ele>
        <time>2021-05-23T10:17:33+02:00</time>
      </trkpt>
      <trkpt lat="44.92612" lon="5.15329">
        <ele>807</ele>
        <time>2021-05-23T10:17:54+02:00</time>
      </trkpt>
      <trkpt lat="44.92613" lon="5.15331">
        <ele>808</ele>
        <time>2021-05-23T10:18:11+02:00</time>
      </trkpt>
      <trkpt lat="44.92615" lon="5.15331">
        <ele>808</ele>
        <time>2021-05-23T10:18:32+02:00</time>
      </trkpt>
      <trkpt lat="44.92615" lon="5.15334">
        <ele>808</ele>
        <time>2021-05-23T10:18:58+02:00</time>
      </trkpt>
      <trkpt lat="44.92613" lon="5.15338">
        <ele>808</ele>
        <time>2021-05-23T10:19:28+02:00</time>
      </trkpt>
      <trkpt lat="44.92614" lon="5.1533">
        <ele>807</ele>
        <time>2021-05-23T10:19:53+02:00</time>
      </trkpt>
      <trkpt lat="44.92618" lon="5.15331">
        <ele>808</ele>
        <time>2021-05-23T10:20:20+02:00</time>
      </trkpt>
      <trkpt lat="44.92615" lon="5.15332">
        <ele>808</ele>
        <time>2021-05-23T10:20:38+02:00</time>
      </trkpt>
      <trkpt lat="44.92612" lon="5.15336">
        <ele>808</ele>
        <time>2021-05-23T10:20:51+02:00</time>
      </trkpt>
      <trkpt lat="44.92604" lon="5.15346">
        <ele>806</ele>
        <time>2021-05-23T10:21:05+02:00</time>
      </trkpt>
      <trkpt lat="44.92593" lon="5.15361">
        <ele>804</ele>
        <time>2021-05-23T10:21:21+02:00</time>
      </trkpt>
      <trkpt lat="44.9258" lon="5.15372">
        <ele>802</ele>
        <time>2021-05-23T10:21:36+02:00</time>
      </trkpt>
      <trkpt lat="44.9257" lon="5.15383">
        <ele>801</ele>
        <time>2021-05-23T10:21:50+02:00</time>
      </trkpt>
      <trkpt lat="44.92559" lon="5.15398">
        <ele>801</ele>
        <time>2021-05-23T10:22:05+02:00</time>
      </trkpt>
      <trkpt lat="44.92552" lon="5.15409">
        <ele>800</ele>
        <time>2021-05-23T10:22:18+02:00</time>
      </trkpt>
      <trkpt lat="44.92548" lon="5.15413">
        <ele>799</ele>
        <time>2021-05-23T10:22:36+02:00</time>
      </trkpt>
      <trkpt lat="44.92544" lon="5.15415">
        <ele>799</ele>
        <time>2021-05-23T10:22:57+02:00</time>
      </trkpt>
      <trkpt lat="44.92546" lon="5.15413">
        <ele>799</ele>
        <time>2021-05-23T10:23:19+02:00</time>
      </trkpt>
      <trkpt lat="44.9254" lon="5.15422">
        <ele>798</ele>
        <time>2021-05-23T10:23:32+02:00</time>
      </trkpt>
      <trkpt lat="44.9253" lon="5.15445">
        <ele>798</ele>
        <time>2021-05-23T10:23:49+02:00</time>
      </trkpt>
      <trkpt lat="44.92522" lon="5.15458">
        <ele>798</ele>
        <time>2021-05-23T10:24:05+02:00</time>
      </trkpt>
      <trkpt lat="44.92518" lon="5.15465">
        <ele>797</ele>
        <time>2021-05-23T10:24:18+02:00</time>
      </trkpt>
      <trkpt lat="44.92513" lon="5.15478">
        <ele>798</ele>
        <time>2021-05-23T10:24:30+02:00</time>
      </trkpt>
      <trkpt lat="44.92509" lon="5.15493">
        <ele>799</ele>
        <time>2021-05-23T10:24:46+02:00</time>
      </trkpt>
      <trkpt lat="44.92501" lon="5.15501">
        <ele>800</ele>
        <time>2021-05-23T10:25:09+02:00</time>
      </trkpt>
      <trkpt lat="44.92496" lon="5.15521">
        <ele>802</ele>
        <time>2021-05-23T10:25:24+02:00</time>
      </trkpt>
      <trkpt lat="44.92488" lon="5.15541">
        <ele>805</ele>
        <time>2021-05-23T10:25:39+02:00</time>
      </trkpt>
      <trkpt lat="44.92482" lon="5.15556">
        <ele>807</ele>
        <time>2021-05-23T10:25:53+02:00</time>
      </trkpt>
      <trkpt lat="44.9247" lon="5.1557">
        <ele>810</ele>
        <time>2021-05-23T10:26:07+02:00</time>
      </trkpt>
      <trkpt lat="44.92462" lon="5.15585">
        <ele>812</ele>
        <time>2021-05-23T10:26:23+02:00</time>
      </trkpt>
      <trkpt lat="44.92454" lon="5.15598">
        <ele>814</ele>
        <time>2021-05-23T10:26:38+02:00</time>
      </trkpt>
      <trkpt lat="44.92449" lon="5.15607">
        <ele>816</ele>
        <time>2021-05-23T10:26:52+02:00</time>
      </trkpt>
      <trkpt lat="44.92447" lon="5.1562">
        <ele>819</ele>
        <time>2021-05-23T10:27:10+02:00</time>
      </trkpt>
      <trkpt lat="44.92446" lon="5.15629">
        <ele>821</ele>
        <time>2021-05-23T10:27:27+02:00</time>
      </trkpt>
      <trkpt lat="44.92441" lon="5.15638">
        <ele>822</ele>
        <time>2021-05-23T10:27:43+02:00</time>
      </trkpt>
      <trkpt lat="44.92433" lon="5.15643">
        <ele>822</ele>
        <time>2021-05-23T10:27:57+02:00</time>
      </trkpt>
      <trkpt lat="44.92427" lon="5.15652">
        <ele>824</ele>
        <time>2021-05-23T10:28:11+02:00</time>
      </trkpt>
      <trkpt lat="44.92421" lon="5.15664">
        <ele>827</ele>
        <time>2021-05-23T10:28:25+02:00</time>
      </trkpt>
      <trkpt lat="44.92412" lon="5.1568">
        <ele>829</ele>
        <time>2021-05-23T10:28:44+02:00</time>
      </trkpt>
      <trkpt lat="44.92407" lon="5.15691">
        <ele>830</ele>
        <time>2021-05-23T10:28:57+02:00</time>
      </trkpt>
      <trkpt lat="44.92404" lon="5.15704">
        <ele>832</ele>
        <time>2021-05-23T10:29:11+02:00</time>
      </trkpt>
      <trkpt lat="44.92397" lon="5.15717">
        <ele>836</ele>
        <time>2021-05-23T10:29:27+02:00</time>
      </trkpt>
      <trkpt lat="44.92389" lon="5.15727">
        <ele>838</ele>
        <time>2021-05-23T10:29:41+02:00</time>
      </trkpt>
      <trkpt lat="44.92383" lon="5.15732">
        <ele>838</ele>
        <time>2021-05-23T10:29:53+02:00</time>
      </trkpt>
      <trkpt lat="44.92378" lon="5.15741">
        <ele>839</ele>
        <time>2021-05-23T10:30:08+02:00</time>
      </trkpt>
      <trkpt lat="44.92368" lon="5.15752">
        <ele>842</ele>
        <time>2021-05-23T10:30:25+02:00</time>
      </trkpt>
      <trkpt lat="44.92359" lon="5.15762">
        <ele>844</ele>
        <time>2021-05-23T10:30:38+02:00</time>
      </trkpt>
      <trkpt lat="44.92349" lon="5.15769">
        <ele>845</ele>
        <time>2021-05-23T10:30:54+02:00</time>
      </trkpt>
      <trkpt lat="44.92339" lon="5.15776">
        <ele>847</ele>
        <time>2021-05-23T10:31:11+02:00</time>
      </trkpt>
      <trkpt lat="44.92329" lon="5.15781">
        <ele>847</ele>
        <time>2021-05-23T10:31:26+02:00</time>
      </trkpt>
      <trkpt lat="44.92321" lon="5.1579">
        <ele>849</ele>
        <time>2021-05-23T10:31:42+02:00</time>
      </trkpt>
      <trkpt lat="44.92314" lon="5.15799">
        <ele>851</ele>
        <time>2021-05-23T10:31:58+02:00</time>
      </trkpt>
      <trkpt lat="44.92311" lon="5.15809">
        <ele>854</ele>
        <time>2021-05-23T10:32:15+02:00</time>
      </trkpt>
      <trkpt lat="44.92307" lon="5.15817">
        <ele>857</ele>
        <time>2021-05-23T10:32:31+02:00</time>
      </trkpt>
      <trkpt lat="44.923" lon="5.15822">
        <ele>858</ele>
        <time>2021-05-23T10:32:45+02:00</time>
      </trkpt>
      <trkpt lat="44.92295" lon="5.15827">
        <ele>859</ele>
        <time>2021-05-23T10:33:02+02:00</time>
      </trkpt>
      <trkpt lat="44.92292" lon="5.15834">
        <ele>861</ele>
        <time>2021-05-23T10:33:14+02:00</time>
      </trkpt>
      <trkpt lat="44.92288" lon="5.15838">
        <ele>862</ele>
        <time>2021-05-23T10:33:30+02:00</time>
      </trkpt>
      <trkpt lat="44.92282" lon="5.15844">
        <ele>864</ele>
        <time>2021-05-23T10:33:45+02:00</time>
      </trkpt>
      <trkpt lat="44.9228" lon="5.15851">
        <ele>867</ele>
        <time>2021-05-23T10:34:00+02:00</time>
      </trkpt>
      <trkpt lat="44.92274" lon="5.15858">
        <ele>869</ele>
        <time>2021-05-23T10:34:17+02:00</time>
      </trkpt>
      <trkpt lat="44.9227" lon="5.15864">
        <ele>871</ele>
        <time>2021-05-23T10:34:29+02:00</time>
      </trkpt>
      <trkpt lat="44.92267" lon="5.1587">
        <ele>873</ele>
        <time>2021-05-23T10:34:43+02:00</time>
      </trkpt>
      <trkpt lat="44.92264" lon="5.15874">
        <ele>874</ele>
        <time>2021-05-23T10:34:57+02:00</time>
      </trkpt>
      <trkpt lat="44.92259" lon="5.15876">
        <ele>875</ele>
        <time>2021-05-23T10:35:10+02:00</time>
      </trkpt>
      <trkpt lat="44.92258" lon="5.15883">
        <ele>878</ele>
        <time>2021-05-23T10:35:25+02:00</time>
      </trkpt>
      <trkpt lat="44.92254" lon="5.15889">
        <ele>881</ele>
        <time>2021-05-23T10:35:40+02:00</time>
      </trkpt>
      <trkpt lat="44.92249" lon="5.15893">
        <ele>882</ele>
        <time>2021-05-23T10:35:54+02:00</time>
      </trkpt>
      <trkpt lat="44.92248" lon="5.159">
        <ele>885</ele>
        <time>2021-05-23T10:36:11+02:00</time>
      </trkpt>
      <trkpt lat="44.92244" lon="5.15904">
        <ele>887</ele>
        <time>2021-05-23T10:36:28+02:00</time>
      </trkpt>
      <trkpt lat="44.92241" lon="5.15909">
        <ele>889</ele>
        <time>2021-05-23T10:36:44+02:00</time>
      </trkpt>
      <trkpt lat="44.92237" lon="5.15914">
        <ele>891</ele>
        <time>2021-05-23T10:37:00+02:00</time>
      </trkpt>
      <trkpt lat="44.92235" lon="5.15922">
        <ele>894</ele>
        <time>2021-05-23T10:37:17+02:00</time>
      </trkpt>
      <trkpt lat="44.92232" lon="5.15927">
        <ele>896</ele>
        <time>2021-05-23T10:37:31+02:00</time>
      </trkpt>
      <trkpt lat="44.92229" lon="5.1593">
        <ele>897</ele>
        <time>2021-05-23T10:37:42+02:00</time>
      </trkpt>
      <trkpt lat="44.9223" lon="5.15935">
        <ele>898</ele>
        <time>2021-05-23T10:38:03+02:00</time>
      </trkpt>
      <trkpt lat="44.9223" lon="5.1594">
        <ele>900</ele>
        <time>2021-05-23T10:38:27+02:00</time>
      </trkpt>
      <trkpt lat="44.92229" lon="5.15938">
        <ele>899</ele>
        <time>2021-05-23T10:38:44+02:00</time>
      </trkpt>
      <trkpt lat="44.92223" lon="5.15944">
        <ele>903</ele>
        <time>2021-05-23T10:38:57+02:00</time>
      </trkpt>
      <trkpt lat="44.92216" lon="5.15952">
        <ele>904</ele>
        <time>2021-05-23T10:39:11+02:00</time>
      </trkpt>
      <trkpt lat="44.92214" lon="5.15951">
        <ele>904</ele>
        <time>2021-05-23T10:39:33+02:00</time>
      </trkpt>
      <trkpt lat="44.92213" lon="5.15948">
        <ele>903</ele>
        <time>2021-05-23T10:39:52+02:00</time>
      </trkpt>
      <trkpt lat="44.92215" lon="5.1595">
        <ele>904</ele>
        <time>2021-05-23T10:40:10+02:00</time>
      </trkpt>
      <trkpt lat="44.92211" lon="5.15949">
        <ele>903</ele>
        <time>2021-05-23T10:40:36+02:00</time>
      </trkpt>
      <trkpt lat="44.92218" lon="5.15948">
        <ele>903</ele>
        <time>2021-05-23T10:40:59+02:00</time>
      </trkpt>
      <trkpt lat="44.9222" lon="5.15941">
        <ele>901</ele>
        <time>2021-05-23T10:41:26+02:00</time>
      </trkpt>
      <trkpt lat="44.92216" lon="5.15946">
        <ele>903</ele>
        <time>2021-05-23T10:41:53+02:00</time>
      </trkpt>
      <trkpt lat="44.92219" lon="5.15943">
        <ele>902</ele>
        <time>2021-05-23T10:42:15+02:00</time>
      </trkpt>
      <trkpt lat="44.92216" lon="5.15947">
        <ele>903</ele>
        <time>2021-05-23T10:42:33+02:00</time>
      </trkpt>
      <trkpt lat="44.92208" lon="5.15952">
        <ele>904</ele>
        <time>2021-05-23T10:42:56+02:00</time>
      </trkpt>
      <trkpt lat="44.92202" lon="5.15953">
        <ele>903</ele>
        <time>2021-05-23T10:43:03+02:00</time>
      </trkpt>
      <trkpt lat="44.92188" lon="5.15951">
        <ele>902</ele>
        <time>2021-05-23T10:43:17+02:00</time>
      </trkpt>
      <trkpt lat="44.92183" lon="5.15948">
        <ele>901</ele>
        <time>2021-05-23T10:43:32+02:00</time>
      </trkpt>
      <trkpt lat="44.92172" lon="5.15955">
        <ele>904</ele>
        <time>2021-05-23T10:43:45+02:00</time>
      </trkpt>
      <trkpt lat="44.92161" lon="5.15956">
        <ele>905</ele>
        <time>2021-05-23T10:44:00+02:00</time>
      </trkpt>
      <trkpt lat="44.92158" lon="5.15962">
        <ele>908</ele>
        <time>2021-05-23T10:44:12+02:00</time>
      </trkpt>
      <trkpt lat="44.9215" lon="5.15966">
        <ele>912</ele>
        <time>2021-05-23T10:44:26+02:00</time>
      </trkpt>
      <trkpt lat="44.92143" lon="5.15969">
        <ele>914</ele>
        <time>2021-05-23T10:44:42+02:00</time>
      </trkpt>
      <trkpt lat="44.92133" lon="5.15974">
        <ele>920</ele>
        <time>2021-05-23T10:45:00+02:00</time>
      </trkpt>
      <trkpt lat="44.92127" lon="5.15978">
        <ele>923</ele>
        <time>2021-05-23T10:45:19+02:00</time>
      </trkpt>
      <trkpt lat="44.92118" lon="5.15978">
        <ele>927</ele>
        <time>2021-05-23T10:45:35+02:00</time>
      </trkpt>
      <trkpt lat="44.92114" lon="5.15978">
        <ele>928</ele>
        <time>2021-05-23T10:45:49+02:00</time>
      </trkpt>
      <trkpt lat="44.92109" lon="5.15982">
        <ele>932</ele>
        <time>2021-05-23T10:46:03+02:00</time>
      </trkpt>
      <trkpt lat="44.92112" lon="5.15982">
        <ele>930</ele>
        <time>2021-05-23T10:46:17+02:00</time>
      </trkpt>
      <trkpt lat="44.92117" lon="5.15986">
        <ele>930</ele>
        <time>2021-05-23T10:46:30+02:00</time>
      </trkpt>
      <trkpt lat="44.92118" lon="5.15994">
        <ele>932</ele>
        <time>2021-05-23T10:46:45+02:00</time>
      </trkpt>
      <trkpt lat="44.92114" lon="5.15996">
        <ele>934</ele>
        <time>2021-05-23T10:47:05+02:00</time>
      </trkpt>
      <trkpt lat="44.92113" lon="5.16007">
        <ele>937</ele>
        <time>2021-05-23T10:47:19+02:00</time>
      </trkpt>
      <trkpt lat="44.92106" lon="5.16017">
        <ele>942</ele>
        <time>2021-05-23T10:47:33+02:00</time>
      </trkpt>
      <trkpt lat="44.92099" lon="5.16025">
        <ele>949</ele>
        <time>2021-05-23T10:47:47+02:00</time>
      </trkpt>
      <trkpt lat="44.92091" lon="5.16031">
        <ele>954</ele>
        <time>2021-05-23T10:48:01+02:00</time>
      </trkpt>
      <trkpt lat="44.92085" lon="5.16034">
        <ele>957</ele>
        <time>2021-05-23T10:48:13+02:00</time>
      </trkpt>
      <trkpt lat="44.92078" lon="5.16038">
        <ele>961</ele>
        <time>2021-05-23T10:48:27+02:00</time>
      </trkpt>
      <trkpt lat="44.92073" lon="5.16047">
        <ele>962</ele>
        <time>2021-05-23T10:48:41+02:00</time>
      </trkpt>
      <trkpt lat="44.92067" lon="5.16055">
        <ele>964</ele>
        <time>2021-05-23T10:48:57+02:00</time>
      </trkpt>
      <trkpt lat="44.92062" lon="5.16061">
        <ele>966</ele>
        <time>2021-05-23T10:49:12+02:00</time>
      </trkpt>
      <trkpt lat="44.92058" lon="5.16063">
        <ele>968</ele>
        <time>2021-05-23T10:49:25+02:00</time>
      </trkpt>
      <trkpt lat="44.92056" lon="5.16069">
        <ele>968</ele>
        <time>2021-05-23T10:49:38+02:00</time>
      </trkpt>
      <trkpt lat="44.92054" lon="5.16075">
        <ele>968</ele>
        <time>2021-05-23T10:49:54+02:00</time>
      </trkpt>
      <trkpt lat="44.92054" lon="5.16082">
        <ele>965</ele>
        <time>2021-05-23T10:50:15+02:00</time>
      </trkpt>
      <trkpt lat="44.92054" lon="5.16089">
        <ele>963</ele>
        <time>2021-05-23T10:50:27+02:00</time>
      </trkpt>
      <trkpt lat="44.92049" lon="5.16093">
        <ele>965</ele>
        <time>2021-05-23T10:50:41+02:00</time>
      </trkpt>
      <trkpt lat="44.92046" lon="5.161">
        <ele>964</ele>
        <time>2021-05-23T10:50:54+02:00</time>
      </trkpt>
      <trkpt lat="44.9204" lon="5.1611">
        <ele>966</ele>
        <time>2021-05-23T10:51:09+02:00</time>
      </trkpt>
      <trkpt lat="44.92039" lon="5.16117">
        <ele>964</ele>
        <time>2021-05-23T10:51:23+02:00</time>
      </trkpt>
      <trkpt lat="44.92034" lon="5.16116">
        <ele>969</ele>
        <time>2021-05-23T10:51:48+02:00</time>
      </trkpt>
      <trkpt lat="44.92033" lon="5.16115">
        <ele>971</ele>
        <time>2021-05-23T10:52:16+02:00</time>
      </trkpt>
      <trkpt lat="44.92032" lon="5.16114">
        <ele>972</ele>
        <time>2021-05-23T10:52:32+02:00</time>
      </trkpt>
      <trkpt lat="44.92031" lon="5.16106">
        <ele>975</ele>
        <time>2021-05-23T10:52:52+02:00</time>
      </trkpt>
      <trkpt lat="44.92033" lon="5.161">
        <ele>975</ele>
        <time>2021-05-23T10:53:11+02:00</time>
      </trkpt>
      <trkpt lat="44.92034" lon="5.16092">
        <ele>977</ele>
        <time>2021-05-23T10:53:27+02:00</time>
      </trkpt>
      <trkpt lat="44.92032" lon="5.16086">
        <ele>980</ele>
        <time>2021-05-23T10:53:41+02:00</time>
      </trkpt>
      <trkpt lat="44.92031" lon="5.16084">
        <ele>982</ele>
        <time>2021-05-23T10:53:58+02:00</time>
      </trkpt>
      <trkpt lat="44.92029" lon="5.16081">
        <ele>983</ele>
        <time>2021-05-23T10:54:16+02:00</time>
      </trkpt>
      <trkpt lat="44.92031" lon="5.16066">
        <ele>986</ele>
        <time>2021-05-23T10:54:32+02:00</time>
      </trkpt>
      <trkpt lat="44.92033" lon="5.16055">
        <ele>987</ele>
        <time>2021-05-23T10:54:51+02:00</time>
      </trkpt>
      <trkpt lat="44.92029" lon="5.16048">
        <ele>991</ele>
        <time>2021-05-23T10:55:07+02:00</time>
      </trkpt>
      <trkpt lat="44.92022" lon="5.16046">
        <ele>996</ele>
        <time>2021-05-23T10:55:24+02:00</time>
      </trkpt>
      <trkpt lat="44.92025" lon="5.16041">
        <ele>995</ele>
        <time>2021-05-23T10:55:39+02:00</time>
      </trkpt>
      <trkpt lat="44.92027" lon="5.1603">
        <ele>994</ele>
        <time>2021-05-23T10:55:57+02:00</time>
      </trkpt>
      <trkpt lat="44.92024" lon="5.16026">
        <ele>996</ele>
        <time>2021-05-23T10:56:11+02:00</time>
      </trkpt>
      <trkpt lat="44.92022" lon="5.16031">
        <ele>997</ele>
        <time>2021-05-23T10:56:25+02:00</time>
      </trkpt>
      <trkpt lat="44.92017" lon="5.16035">
        <ele>1000</ele>
        <time>2021-05-23T10:56:41+02:00</time>
      </trkpt>
      <trkpt lat="44.92016" lon="5.16029">
        <ele>1001</ele>
        <time>2021-05-23T10:56:57+02:00</time>
      </trkpt>
      <trkpt lat="44.92014" lon="5.16022">
        <ele>1000</ele>
        <time>2021-05-23T10:57:16+02:00</time>
      </trkpt>
      <trkpt lat="44.92014" lon="5.16021">
        <ele>1000</ele>
        <time>2021-05-23T10:57:29+02:00</time>
      </trkpt>
      <trkpt lat="44.92021" lon="5.16012">
        <ele>993</ele>
        <time>2021-05-23T10:57:44+02:00</time>
      </trkpt>
      <trkpt lat="44.92023" lon="5.16008">
        <ele>990</ele>
        <time>2021-05-23T10:58:20+02:00</time>
      </trkpt>
      <trkpt lat="44.92021" lon="5.16017">
        <ele>995</ele>
        <time>2021-05-23T10:58:39+02:00</time>
      </trkpt>
      <trkpt lat="44.92019" lon="5.16018">
        <ele>996</ele>
        <time>2021-05-23T10:58:53+02:00</time>
      </trkpt>
      <trkpt lat="44.92015" lon="5.16019">
        <ele>999</ele>
        <time>2021-05-23T10:59:05+02:00</time>
      </trkpt>
      <trkpt lat="44.92014" lon="5.16022">
        <ele>1000</ele>
        <time>2021-05-23T10:59:17+02:00</time>
      </trkpt>
      <trkpt lat="44.92009" lon="5.1603">
        <ele>1005</ele>
        <time>2021-05-23T10:59:37+02:00</time>
      </trkpt>
      <trkpt lat="44.92007" lon="5.16033">
        <ele>1006</ele>
        <time>2021-05-23T11:00:00+02:00</time>
      </trkpt>
      <trkpt lat="44.91997" lon="5.16031">
        <ele>1012</ele>
        <time>2021-05-23T11:00:15+02:00</time>
      </trkpt>
      <trkpt lat="44.91995" lon="5.1603">
        <ele>1014</ele>
        <time>2021-05-23T11:00:33+02:00</time>
      </trkpt>
      <trkpt lat="44.91993" lon="5.16029">
        <ele>1015</ele>
        <time>2021-05-23T11:00:47+02:00</time>
      </trkpt>
      <trkpt lat="44.91989" lon="5.16025">
        <ele>1016</ele>
        <time>2021-05-23T11:01:01+02:00</time>
      </trkpt>
      <trkpt lat="44.91993" lon="5.16026">
        <ele>1014</ele>
        <time>2021-05-23T11:01:15+02:00</time>
      </trkpt>
      <trkpt lat="44.9199" lon="5.16033">
        <ele>1017</ele>
        <time>2021-05-23T11:01:29+02:00</time>
      </trkpt>
      <trkpt lat="44.91986" lon="5.16034">
        <ele>1019</ele>
        <time>2021-05-23T11:01:43+02:00</time>
      </trkpt>
      <trkpt lat="44.91981" lon="5.16029">
        <ele>1022</ele>
        <time>2021-05-23T11:01:59+02:00</time>
      </trkpt>
      <trkpt lat="44.91979" lon="5.16034">
        <ele>1024</ele>
        <time>2021-05-23T11:02:13+02:00</time>
      </trkpt>
      <trkpt lat="44.91974" lon="5.16037">
        <ele>1027</ele>
        <time>2021-05-23T11:02:29+02:00</time>
      </trkpt>
      <trkpt lat="44.9197" lon="5.16037">
        <ele>1030</ele>
        <time>2021-05-23T11:02:42+02:00</time>
      </trkpt>
      <trkpt lat="44.91968" lon="5.16031">
        <ele>1030</ele>
        <time>2021-05-23T11:02:59+02:00</time>
      </trkpt>
      <trkpt lat="44.91969" lon="5.16023">
        <ele>1027</ele>
        <time>2021-05-23T11:03:17+02:00</time>
      </trkpt>
      <trkpt lat="44.91965" lon="5.16023">
        <ele>1030</ele>
        <time>2021-05-23T11:03:30+02:00</time>
      </trkpt>
      <trkpt lat="44.91961" lon="5.16029">
        <ele>1035</ele>
        <time>2021-05-23T11:03:46+02:00</time>
      </trkpt>
      <trkpt lat="44.91958" lon="5.16034">
        <ele>1038</ele>
        <time>2021-05-23T11:04:03+02:00</time>
      </trkpt>
      <trkpt lat="44.91958" lon="5.16035">
        <ele>1038</ele>
        <time>2021-05-23T11:04:18+02:00</time>
      </trkpt>
      <trkpt lat="44.91953" lon="5.16037">
        <ele>1042</ele>
        <time>2021-05-23T11:04:30+02:00</time>
      </trkpt>
      <trkpt lat="44.91949" lon="5.16034">
        <ele>1044</ele>
        <time>2021-05-23T11:04:47+02:00</time>
      </trkpt>
      <trkpt lat="44.91945" lon="5.16029">
        <ele>1046</ele>
        <time>2021-05-23T11:05:02+02:00</time>
      </trkpt>
      <trkpt lat="44.91937" lon="5.16033">
        <ele>1051</ele>
        <time>2021-05-23T11:05:20+02:00</time>
      </trkpt>
      <trkpt lat="44.91942" lon="5.16014">
        <ele>1042</ele>
        <time>2021-05-23T11:05:39+02:00</time>
      </trkpt>
      <trkpt lat="44.91943" lon="5.16003">
        <ele>1038</ele>
        <time>2021-05-23T11:06:02+02:00</time>
      </trkpt>
      <trkpt lat="44.91941" lon="5.16021">
        <ele>1046</ele>
        <time>2021-05-23T11:06:22+02:00</time>
      </trkpt>
      <trkpt lat="44.91933" lon="5.1603">
        <ele>1053</ele>
        <time>2021-05-23T11:06:41+02:00</time>
      </trkpt>
      <trkpt lat="44.91929" lon="5.1604">
        <ele>1057</ele>
        <time>2021-05-23T11:06:59+02:00</time>
      </trkpt>
      <trkpt lat="44.91928" lon="5.16047">
        <ele>1059</ele>
        <time>2021-05-23T11:07:18+02:00</time>
      </trkpt>
      <trkpt lat="44.91925" lon="5.16055">
        <ele>1063</ele>
        <time>2021-05-23T11:07:37+02:00</time>
      </trkpt>
      <trkpt lat="44.91918" lon="5.16056">
        <ele>1067</ele>
        <time>2021-05-23T11:07:53+02:00</time>
      </trkpt>
      <trkpt lat="44.91918" lon="5.16042">
        <ele>1064</ele>
        <time>2021-05-23T11:08:09+02:00</time>
      </trkpt>
      <trkpt lat="44.91915" lon="5.16032">
        <ele>1063</ele>
        <time>2021-05-23T11:08:26+02:00</time>
      </trkpt>
      <trkpt lat="44.91914" lon="5.1603">
        <ele>1063</ele>
        <time>2021-05-23T11:08:42+02:00</time>
      </trkpt>
      <trkpt lat="44.91905" lon="5.16031">
        <ele>1068</ele>
        <time>2021-05-23T11:09:01+02:00</time>
      </trkpt>
      <trkpt lat="44.91898" lon="5.16024">
        <ele>1069</ele>
        <time>2021-05-23T11:09:17+02:00</time>
      </trkpt>
      <trkpt lat="44.91892" lon="5.1602">
        <ele>1071</ele>
        <time>2021-05-23T11:09:33+02:00</time>
      </trkpt>
      <trkpt lat="44.91879" lon="5.16021">
        <ele>1079</ele>
        <time>2021-05-23T11:09:50+02:00</time>
      </trkpt>
      <trkpt lat="44.91879" lon="5.16011">
        <ele>1076</ele>
        <time>2021-05-23T11:10:02+02:00</time>
      </trkpt>
      <trkpt lat="44.91874" lon="5.16007">
        <ele>1078</ele>
        <time>2021-05-23T11:10:18+02:00</time>
      </trkpt>
      <trkpt lat="44.91876" lon="5.16">
        <ele>1074</ele>
        <time>2021-05-23T11:10:36+02:00</time>
      </trkpt>
      <trkpt lat="44.91872" lon="5.15995">
        <ele>1075</ele>
        <time>2021-05-23T11:10:51+02:00</time>
      </trkpt>
      <trkpt lat="44.91862" lon="5.15995">
        <ele>1081</ele>
        <time>2021-05-23T11:11:04+02:00</time>
      </trkpt>
      <trkpt lat="44.91854" lon="5.15994">
        <ele>1087</ele>
        <time>2021-05-23T11:11:20+02:00</time>
      </trkpt>
      <trkpt lat="44.91853" lon="5.1599">
        <ele>1086</ele>
        <time>2021-05-23T11:11:38+02:00</time>
      </trkpt>
      <trkpt lat="44.91855" lon="5.1598">
        <ele>1081</ele>
        <time>2021-05-23T11:11:57+02:00</time>
      </trkpt>
      <trkpt lat="44.91856" lon="5.1598">
        <ele>1080</ele>
        <time>2021-05-23T11:12:12+02:00</time>
      </trkpt>
      <trkpt lat="44.91855" lon="5.1598">
        <ele>1081</ele>
        <time>2021-05-23T11:12:34+02:00</time>
      </trkpt>
      <trkpt lat="44.91856" lon="5.15978">
        <ele>1080</ele>
        <time>2021-05-23T11:12:50+02:00</time>
      </trkpt>
      <trkpt lat="44.91854" lon="5.15979">
        <ele>1081</ele>
        <time>2021-05-23T11:13:09+02:00</time>
      </trkpt>
      <trkpt lat="44.91855" lon="5.15979">
        <ele>1081</ele>
        <time>2021-05-23T11:13:31+02:00</time>
      </trkpt>
      <trkpt lat="44.91849" lon="5.15973">
        <ele>1082</ele>
        <time>2021-05-23T11:13:46+02:00</time>
      </trkpt>
      <trkpt lat="44.91842" lon="5.15971">
        <ele>1086</ele>
        <time>2021-05-23T11:14:02+02:00</time>
      </trkpt>
      <trkpt lat="44.91838" lon="5.15967">
        <ele>1087</ele>
        <time>2021-05-23T11:14:15+02:00</time>
      </trkpt>
      <trkpt lat="44.91836" lon="5.1596">
        <ele>1083</ele>
        <time>2021-05-23T11:14:30+02:00</time>
      </trkpt>
      <trkpt lat="44.91831" lon="5.15948">
        <ele>1079</ele>
        <time>2021-05-23T11:14:46+02:00</time>
      </trkpt>
      <trkpt lat="44.91823" lon="5.15943">
        <ele>1079</ele>
        <time>2021-05-23T11:15:03+02:00</time>
      </trkpt>
      <trkpt lat="44.91821" lon="5.15937">
        <ele>1076</ele>
        <time>2021-05-23T11:15:17+02:00</time>
      </trkpt>
      <trkpt lat="44.9182" lon="5.15937">
        <ele>1076</ele>
        <time>2021-05-23T11:15:35+02:00</time>
      </trkpt>
      <trkpt lat="44.91818" lon="5.15937">
        <ele>1077</ele>
        <time>2021-05-23T11:16:02+02:00</time>
      </trkpt>
      <trkpt lat="44.91818" lon="5.1593">
        <ele>1074</ele>
        <time>2021-05-23T11:16:15+02:00</time>
      </trkpt>
      <trkpt lat="44.91811" lon="5.15927">
        <ele>1074</ele>
        <time>2021-05-23T11:16:31+02:00</time>
      </trkpt>
      <trkpt lat="44.91801" lon="5.15927">
        <ele>1078</ele>
        <time>2021-05-23T11:16:46+02:00</time>
      </trkpt>
      <trkpt lat="44.91792" lon="5.15932">
        <ele>1084</ele>
        <time>2021-05-23T11:17:05+02:00</time>
      </trkpt>
      <trkpt lat="44.91782" lon="5.15944">
        <ele>1093</ele>
        <time>2021-05-23T11:17:21+02:00</time>
      </trkpt>
      <trkpt lat="44.91782" lon="5.15945">
        <ele>1093</ele>
        <time>2021-05-23T11:17:37+02:00</time>
      </trkpt>
      <trkpt lat="44.91785" lon="5.15937">
        <ele>1088</ele>
        <time>2021-05-23T11:18:06+02:00</time>
      </trkpt>
      <trkpt lat="44.91775" lon="5.15956">
        <ele>1099</ele>
        <time>2021-05-23T11:18:27+02:00</time>
      </trkpt>
      <trkpt lat="44.91775" lon="5.15956">
        <ele>1100</ele>
        <time>2021-05-23T11:18:45+02:00</time>
      </trkpt>
      <trkpt lat="44.91769" lon="5.1596">
        <ele>1102</ele>
        <time>2021-05-23T11:19:20+02:00</time>
      </trkpt>
      <trkpt lat="44.91769" lon="5.15957">
        <ele>1101</ele>
        <time>2021-05-23T11:19:49+02:00</time>
      </trkpt>
      <trkpt lat="44.91777" lon="5.1595">
        <ele>1096</ele>
        <time>2021-05-23T11:20:05+02:00</time>
      </trkpt>
      <trkpt lat="44.91781" lon="5.15948">
        <ele>1095</ele>
        <time>2021-05-23T11:20:16+02:00</time>
      </trkpt>
      <trkpt lat="44.91782" lon="5.15938">
        <ele>1090</ele>
        <time>2021-05-23T11:20:29+02:00</time>
      </trkpt>
      <trkpt lat="44.91782" lon="5.1593">
        <ele>1086</ele>
        <time>2021-05-23T11:20:47+02:00</time>
      </trkpt>
      <trkpt lat="44.91778" lon="5.15924">
        <ele>1084</ele>
        <time>2021-05-23T11:21:06+02:00</time>
      </trkpt>
      <trkpt lat="44.91774" lon="5.1592">
        <ele>1084</ele>
        <time>2021-05-23T11:21:24+02:00</time>
      </trkpt>
      <trkpt lat="44.9177" lon="5.1592">
        <ele>1086</ele>
        <time>2021-05-23T11:21:39+02:00</time>
      </trkpt>
      <trkpt lat="44.91764" lon="5.15917">
        <ele>1089</ele>
        <time>2021-05-23T11:21:55+02:00</time>
      </trkpt>
      <trkpt lat="44.91763" lon="5.15916">
        <ele>1089</ele>
        <time>2021-05-23T11:22:14+02:00</time>
      </trkpt>
      <trkpt lat="44.91756" lon="5.15917">
        <ele>1093</ele>
        <time>2021-05-23T11:22:35+02:00</time>
      </trkpt>
      <trkpt lat="44.9175" lon="5.15914">
        <ele>1095</ele>
        <time>2021-05-23T11:22:56+02:00</time>
      </trkpt>
      <trkpt lat="44.91743" lon="5.1591">
        <ele>1098</ele>
        <time>2021-05-23T11:23:13+02:00</time>
      </trkpt>
      <trkpt lat="44.91739" lon="5.15905">
        <ele>1099</ele>
        <time>2021-05-23T11:23:28+02:00</time>
      </trkpt>
      <trkpt lat="44.91735" lon="5.15903">
        <ele>1101</ele>
        <time>2021-05-23T11:23:43+02:00</time>
      </trkpt>
      <trkpt lat="44.91735" lon="5.15904">
        <ele>1101</ele>
        <time>2021-05-23T11:24:01+02:00</time>
      </trkpt>
      <trkpt lat="44.91733" lon="5.15908">
        <ele>1102</ele>
        <time>2021-05-23T11:24:20+02:00</time>
      </trkpt>
      <trkpt lat="44.91732" lon="5.15912">
        <ele>1104</ele>
        <time>2021-05-23T11:24:32+02:00</time>
      </trkpt>
      <trkpt lat="44.91734" lon="5.15914">
        <ele>1103</ele>
        <time>2021-05-23T11:24:48+02:00</time>
      </trkpt>
      <trkpt lat="44.91733" lon="5.15911">
        <ele>1103</ele>
        <time>2021-05-23T11:25:03+02:00</time>
      </trkpt>
      <trkpt lat="44.91733" lon="5.15911">
        <ele>1103</ele>
        <time>2021-05-23T11:25:30+02:00</time>
      </trkpt>
      <trkpt lat="44.91734" lon="5.15909">
        <ele>1102</ele>
        <time>2021-05-23T11:25:54+02:00</time>
      </trkpt>
      <trkpt lat="44.91732" lon="5.1591">
        <ele>1103</ele>
        <time>2021-05-23T11:26:16+02:00</time>
      </trkpt>
      <trkpt lat="44.91734" lon="5.15911">
        <ele>1102</ele>
        <time>2021-05-23T11:26:35+02:00</time>
      </trkpt>
      <trkpt lat="44.91733" lon="5.15911">
        <ele>1103</ele>
        <time>2021-05-23T11:26:55+02:00</time>
      </trkpt>
      <trkpt lat="44.91732" lon="5.15916">
        <ele>1104</ele>
        <time>2021-05-23T11:27:09+02:00</time>
      </trkpt>
      <trkpt lat="44.9173" lon="5.15917">
        <ele>1105</ele>
        <time>2021-05-23T11:27:26+02:00</time>
      </trkpt>
      <trkpt lat="44.91732" lon="5.15917">
        <ele>1104</ele>
        <time>2021-05-23T11:27:45+02:00</time>
      </trkpt>
      <trkpt lat="44.91736" lon="5.15917">
        <ele>1102</ele>
        <time>2021-05-23T11:28:11+02:00</time>
      </trkpt>
      <trkpt lat="44.91741" lon="5.15918">
        <ele>1100</ele>
        <time>2021-05-23T11:28:23+02:00</time>
      </trkpt>
      <trkpt lat="44.9174" lon="5.15919">
        <ele>1101</ele>
        <time>2021-05-23T11:28:46+02:00</time>
      </trkpt>
      <trkpt lat="44.9174" lon="5.15915">
        <ele>1100</ele>
        <time>2021-05-23T11:29:05+02:00</time>
      </trkpt>
      <trkpt lat="44.9174" lon="5.15928">
        <ele>1103</ele>
        <time>2021-05-23T11:29:27+02:00</time>
      </trkpt>
      <trkpt lat="44.91744" lon="5.15939">
        <ele>1103</ele>
        <time>2021-05-23T11:29:42+02:00</time>
      </trkpt>
      <trkpt lat="44.91756" lon="5.15944">
        <ele>1101</ele>
        <time>2021-05-23T11:29:57+02:00</time>
      </trkpt>
      <trkpt lat="44.91758" lon="5.15946">
        <ele>1101</ele>
        <time>2021-05-23T11:29:59+02:00</time>
      </trkpt>
      <trkpt lat="44.91768" lon="5.15956">
        <ele>1101</ele>
        <time>2021-05-23T11:30:15+02:00</time>
      </trkpt>
      <trkpt lat="44.9178" lon="5.15965">
        <ele>1103</ele>
        <time>2021-05-23T11:30:30+02:00</time>
      </trkpt>
      <trkpt lat="44.91792" lon="5.15972">
        <ele>1105</ele>
        <time>2021-05-23T11:30:44+02:00</time>
      </trkpt>
      <trkpt lat="44.91803" lon="5.1598">
        <ele>1107</ele>
        <time>2021-05-23T11:30:59+02:00</time>
      </trkpt>
      <trkpt lat="44.91813" lon="5.1599">
        <ele>1106</ele>
        <time>2021-05-23T11:31:12+02:00</time>
      </trkpt>
      <trkpt lat="44.91818" lon="5.16001">
        <ele>1108</ele>
        <time>2021-05-23T11:31:28+02:00</time>
      </trkpt>
      <trkpt lat="44.91823" lon="5.1601">
        <ele>1108</ele>
        <time>2021-05-23T11:31:39+02:00</time>
      </trkpt>
      <trkpt lat="44.91829" lon="5.16032">
        <ele>1110</ele>
        <time>2021-05-23T11:31:56+02:00</time>
      </trkpt>
      <trkpt lat="44.91833" lon="5.16052">
        <ele>1111</ele>
        <time>2021-05-23T11:32:11+02:00</time>
      </trkpt>
      <trkpt lat="44.91838" lon="5.1607">
        <ele>1111</ele>
        <time>2021-05-23T11:32:27+02:00</time>
      </trkpt>
      <trkpt lat="44.91841" lon="5.16087">
        <ele>1111</ele>
        <time>2021-05-23T11:32:41+02:00</time>
      </trkpt>
      <trkpt lat="44.91842" lon="5.16105">
        <ele>1111</ele>
        <time>2021-05-23T11:32:56+02:00</time>
      </trkpt>
      <trkpt lat="44.91841" lon="5.1612">
        <ele>1112</ele>
        <time>2021-05-23T11:33:12+02:00</time>
      </trkpt>
      <trkpt lat="44.91839" lon="5.16136">
        <ele>1113</ele>
        <time>2021-05-23T11:33:26+02:00</time>
      </trkpt>
      <trkpt lat="44.91838" lon="5.16151">
        <ele>1115</ele>
        <time>2021-05-23T11:33:38+02:00</time>
      </trkpt>
      <trkpt lat="44.91841" lon="5.16168">
        <ele>1116</ele>
        <time>2021-05-23T11:33:54+02:00</time>
      </trkpt>
      <trkpt lat="44.91842" lon="5.16186">
        <ele>1117</ele>
        <time>2021-05-23T11:34:08+02:00</time>
      </trkpt>
      <trkpt lat="44.91843" lon="5.16199">
        <ele>1119</ele>
        <time>2021-05-23T11:34:20+02:00</time>
      </trkpt>
      <trkpt lat="44.91843" lon="5.16212">
        <ele>1120</ele>
        <time>2021-05-23T11:34:33+02:00</time>
      </trkpt>
      <trkpt lat="44.91843" lon="5.16226">
        <ele>1122</ele>
        <time>2021-05-23T11:34:49+02:00</time>
      </trkpt>
      <trkpt lat="44.91844" lon="5.16237">
        <ele>1123</ele>
        <time>2021-05-23T11:35:02+02:00</time>
      </trkpt>
      <trkpt lat="44.91841" lon="5.16249">
        <ele>1125</ele>
        <time>2021-05-23T11:35:15+02:00</time>
      </trkpt>
      <trkpt lat="44.91839" lon="5.16262">
        <ele>1127</ele>
        <time>2021-05-23T11:35:28+02:00</time>
      </trkpt>
      <trkpt lat="44.91838" lon="5.16276">
        <ele>1130</ele>
        <time>2021-05-23T11:35:41+02:00</time>
      </trkpt>
      <trkpt lat="44.91838" lon="5.16288">
        <ele>1132</ele>
        <time>2021-05-23T11:35:55+02:00</time>
      </trkpt>
      <trkpt lat="44.91837" lon="5.16302">
        <ele>1135</ele>
        <time>2021-05-23T11:36:10+02:00</time>
      </trkpt>
      <trkpt lat="44.91836" lon="5.16313">
        <ele>1137</ele>
        <time>2021-05-23T11:36:22+02:00</time>
      </trkpt>
      <trkpt lat="44.91835" lon="5.16308">
        <ele>1137</ele>
        <time>2021-05-23T11:36:40+02:00</time>
      </trkpt>
      <trkpt lat="44.91837" lon="5.16306">
        <ele>1136</ele>
        <time>2021-05-23T11:36:59+02:00</time>
      </trkpt>
      <trkpt lat="44.91839" lon="5.16306">
        <ele>1135</ele>
        <time>2021-05-23T11:37:27+02:00</time>
      </trkpt>
      <trkpt lat="44.91839" lon="5.16306">
        <ele>1135</ele>
        <time>2021-05-23T11:37:30+02:00</time>
      </trkpt>
      <trkpt lat="44.91838" lon="5.16308">
        <ele>1136</ele>
        <time>2021-05-23T11:37:41+02:00</time>
      </trkpt>
      <trkpt lat="44.91838" lon="5.16315">
        <ele>1137</ele>
        <time>2021-05-23T11:37:57+02:00</time>
      </trkpt>
      <trkpt lat="44.91838" lon="5.16328">
        <ele>1139</ele>
        <time>2021-05-23T11:38:11+02:00</time>
      </trkpt>
      <trkpt lat="44.91836" lon="5.16341">
        <ele>1142</ele>
        <time>2021-05-23T11:38:24+02:00</time>
      </trkpt>
      <trkpt lat="44.91835" lon="5.16349">
        <ele>1145</ele>
        <time>2021-05-23T11:38:36+02:00</time>
      </trkpt>
      <trkpt lat="44.91834" lon="5.16358">
        <ele>1148</ele>
        <time>2021-05-23T11:38:52+02:00</time>
      </trkpt>
      <trkpt lat="44.91835" lon="5.16372">
        <ele>1151</ele>
        <time>2021-05-23T11:39:09+02:00</time>
      </trkpt>
      <trkpt lat="44.91834" lon="5.16382">
        <ele>1154</ele>
        <time>2021-05-23T11:39:24+02:00</time>
      </trkpt>
      <trkpt lat="44.91833" lon="5.16386">
        <ele>1155</ele>
        <time>2021-05-23T11:39:37+02:00</time>
      </trkpt>
      <trkpt lat="44.91833" lon="5.16395">
        <ele>1157</ele>
        <time>2021-05-23T11:39:52+02:00</time>
      </trkpt>
      <trkpt lat="44.91836" lon="5.16406">
        <ele>1158</ele>
        <time>2021-05-23T11:40:06+02:00</time>
      </trkpt>
      <trkpt lat="44.91838" lon="5.16413">
        <ele>1158</ele>
        <time>2021-05-23T11:40:17+02:00</time>
      </trkpt>
      <trkpt lat="44.91841" lon="5.16422">
        <ele>1158</ele>
        <time>2021-05-23T11:40:32+02:00</time>
      </trkpt>
      <trkpt lat="44.9184" lon="5.16433">
        <ele>1161</ele>
        <time>2021-05-23T11:40:46+02:00</time>
      </trkpt>
      <trkpt lat="44.91841" lon="5.16441">
        <ele>1162</ele>
        <time>2021-05-23T11:40:59+02:00</time>
      </trkpt>
      <trkpt lat="44.91841" lon="5.16449">
        <ele>1164</ele>
        <time>2021-05-23T11:41:12+02:00</time>
      </trkpt>
      <trkpt lat="44.91843" lon="5.16455">
        <ele>1164</ele>
        <time>2021-05-23T11:41:26+02:00</time>
      </trkpt>
      <trkpt lat="44.91845" lon="5.16457">
        <ele>1163</ele>
        <time>2021-05-23T11:41:43+02:00</time>
      </trkpt>
      <trkpt lat="44.91846" lon="5.16468">
        <ele>1165</ele>
        <time>2021-05-23T11:41:56+02:00</time>
      </trkpt>
      <trkpt lat="44.91846" lon="5.16479">
        <ele>1168</ele>
        <time>2021-05-23T11:42:09+02:00</time>
      </trkpt>
      <trkpt lat="44.91851" lon="5.16491">
        <ele>1168</ele>
        <time>2021-05-23T11:42:22+02:00</time>
      </trkpt>
      <trkpt lat="44.91856" lon="5.16505">
        <ele>1170</ele>
        <time>2021-05-23T11:42:37+02:00</time>
      </trkpt>
      <trkpt lat="44.9186" lon="5.16516">
        <ele>1173</ele>
        <time>2021-05-23T11:42:48+02:00</time>
      </trkpt>
      <trkpt lat="44.91862" lon="5.16527">
        <ele>1176</ele>
        <time>2021-05-23T11:43:01+02:00</time>
      </trkpt>
      <trkpt lat="44.91866" lon="5.16546">
        <ele>1174</ele>
        <time>2021-05-23T11:43:18+02:00</time>
      </trkpt>
      <trkpt lat="44.91866" lon="5.1655">
        <ele>1175</ele>
        <time>2021-05-23T11:43:31+02:00</time>
      </trkpt>
      <trkpt lat="44.91867" lon="5.16554">
        <ele>1174</ele>
        <time>2021-05-23T11:43:50+02:00</time>
      </trkpt>
      <trkpt lat="44.91872" lon="5.16566">
        <ele>1172</ele>
        <time>2021-05-23T11:44:04+02:00</time>
      </trkpt>
      <trkpt lat="44.91871" lon="5.16566">
        <ele>1172</ele>
        <time>2021-05-23T11:44:27+02:00</time>
      </trkpt>
      <trkpt lat="44.91872" lon="5.1657">
        <ele>1172</ele>
        <time>2021-05-23T11:44:42+02:00</time>
      </trkpt>
      <trkpt lat="44.91874" lon="5.16572">
        <ele>1171</ele>
        <time>2021-05-23T11:44:56+02:00</time>
      </trkpt>
      <trkpt lat="44.91874" lon="5.1657">
        <ele>1170</ele>
        <time>2021-05-23T11:45:26+02:00</time>
      </trkpt>
      <trkpt lat="44.91874" lon="5.16576">
        <ele>1172</ele>
        <time>2021-05-23T11:45:42+02:00</time>
      </trkpt>
      <trkpt lat="44.91875" lon="5.16577">
        <ele>1171</ele>
        <time>2021-05-23T11:45:58+02:00</time>
      </trkpt>
      <trkpt lat="44.91875" lon="5.16577">
        <ele>1171</ele>
        <time>2021-05-23T11:46:19+02:00</time>
      </trkpt>
      <trkpt lat="44.91876" lon="5.16576">
        <ele>1170</ele>
        <time>2021-05-23T11:46:42+02:00</time>
      </trkpt>
      <trkpt lat="44.91876" lon="5.16577">
        <ele>1170</ele>
        <time>2021-05-23T11:46:59+02:00</time>
      </trkpt>
      <trkpt lat="44.91877" lon="5.16575">
        <ele>1169</ele>
        <time>2021-05-23T11:47:26+02:00</time>
      </trkpt>
      <trkpt lat="44.91877" lon="5.16576">
        <ele>1170</ele>
        <time>2021-05-23T11:48:05+02:00</time>
      </trkpt>
      <trkpt lat="44.91876" lon="5.16575">
        <ele>1170</ele>
        <time>2021-05-23T11:48:37+02:00</time>
      </trkpt>
      <trkpt lat="44.91877" lon="5.16575">
        <ele>1170</ele>
        <time>2021-05-23T11:49:08+02:00</time>
      </trkpt>
      <trkpt lat="44.91878" lon="5.16574">
        <ele>1169</ele>
        <time>2021-05-23T11:49:24+02:00</time>
      </trkpt>
      <trkpt lat="44.91878" lon="5.16572">
        <ele>1168</ele>
        <time>2021-05-23T11:50:05+02:00</time>
      </trkpt>
      <trkpt lat="44.91878" lon="5.16571">
        <ele>1168</ele>
        <time>2021-05-23T11:50:54+02:00</time>
      </trkpt>
      <trkpt lat="44.91876" lon="5.16575">
        <ele>1171</ele>
        <time>2021-05-23T11:51:05+02:00</time>
      </trkpt>
      <trkpt lat="44.91874" lon="5.16577">
        <ele>1173</ele>
        <time>2021-05-23T11:51:25+02:00</time>
      </trkpt>
      <trkpt lat="44.91873" lon="5.16578">
        <ele>1173</ele>
        <time>2021-05-23T11:51:38+02:00</time>
      </trkpt>
      <trkpt lat="44.91873" lon="5.1658">
        <ele>1174</ele>
        <time>2021-05-23T11:52:00+02:00</time>
      </trkpt>
      <trkpt lat="44.91875" lon="5.16579">
        <ele>1172</ele>
        <time>2021-05-23T11:52:15+02:00</time>
      </trkpt>
      <trkpt lat="44.91873" lon="5.16576">
        <ele>1173</ele>
        <time>2021-05-23T11:52:31+02:00</time>
      </trkpt>
      <trkpt lat="44.91873" lon="5.16577">
        <ele>1173</ele>
        <time>2021-05-23T11:52:46+02:00</time>
      </trkpt>
      <trkpt lat="44.91873" lon="5.16581">
        <ele>1174</ele>
        <time>2021-05-23T11:53:13+02:00</time>
      </trkpt>
      <trkpt lat="44.91878" lon="5.1658">
        <ele>1170</ele>
        <time>2021-05-23T11:53:24+02:00</time>
      </trkpt>
      <trkpt lat="44.91881" lon="5.16588">
        <ele>1170</ele>
        <time>2021-05-23T11:53:35+02:00</time>
      </trkpt>
      <trkpt lat="44.91882" lon="5.16596">
        <ele>1173</ele>
        <time>2021-05-23T11:53:48+02:00</time>
      </trkpt>
      <trkpt lat="44.91883" lon="5.16606">
        <ele>1176</ele>
        <time>2021-05-23T11:54:02+02:00</time>
      </trkpt>
      <trkpt lat="44.91883" lon="5.16621">
        <ele>1182</ele>
        <time>2021-05-23T11:54:17+02:00</time>
      </trkpt>
      <trkpt lat="44.91881" lon="5.16634">
        <ele>1186</ele>
        <time>2021-05-23T11:54:32+02:00</time>
      </trkpt>
      <trkpt lat="44.91884" lon="5.16647">
        <ele>1189</ele>
        <time>2021-05-23T11:54:45+02:00</time>
      </trkpt>
      <trkpt lat="44.91884" lon="5.16654">
        <ele>1191</ele>
        <time>2021-05-23T11:54:56+02:00</time>
      </trkpt>
      <trkpt lat="44.91887" lon="5.16654">
        <ele>1191</ele>
        <time>2021-05-23T11:55:11+02:00</time>
      </trkpt>
      <trkpt lat="44.91888" lon="5.16654">
        <ele>1191</ele>
        <time>2021-05-23T11:55:25+02:00</time>
      </trkpt>
      <trkpt lat="44.91888" lon="5.16656">
        <ele>1192</ele>
        <time>2021-05-23T11:55:41+02:00</time>
      </trkpt>
      <trkpt lat="44.91888" lon="5.16654">
        <ele>1191</ele>
        <time>2021-05-23T11:55:59+02:00</time>
      </trkpt>
      <trkpt lat="44.9189" lon="5.16663">
        <ele>1192</ele>
        <time>2021-05-23T11:56:13+02:00</time>
      </trkpt>
      <trkpt lat="44.91893" lon="5.16669">
        <ele>1191</ele>
        <time>2021-05-23T11:56:27+02:00</time>
      </trkpt>
      <trkpt lat="44.91895" lon="5.16674">
        <ele>1191</ele>
        <time>2021-05-23T11:56:40+02:00</time>
      </trkpt>
      <trkpt lat="44.91896" lon="5.16681">
        <ele>1192</ele>
        <time>2021-05-23T11:56:52+02:00</time>
      </trkpt>
      <trkpt lat="44.91898" lon="5.16682">
        <ele>1191</ele>
        <time>2021-05-23T11:57:06+02:00</time>
      </trkpt>
      <trkpt lat="44.91897" lon="5.16687">
        <ele>1194</ele>
        <time>2021-05-23T11:57:18+02:00</time>
      </trkpt>
      <trkpt lat="44.919" lon="5.16696">
        <ele>1196</ele>
        <time>2021-05-23T11:57:32+02:00</time>
      </trkpt>
      <trkpt lat="44.91903" lon="5.16703">
        <ele>1197</ele>
        <time>2021-05-23T11:57:45+02:00</time>
      </trkpt>
      <trkpt lat="44.91906" lon="5.16707">
        <ele>1198</ele>
        <time>2021-05-23T11:57:57+02:00</time>
      </trkpt>
      <trkpt lat="44.91905" lon="5.16707">
        <ele>1198</ele>
        <time>2021-05-23T11:58:11+02:00</time>
      </trkpt>
      <trkpt lat="44.9191" lon="5.16714">
        <ele>1200</ele>
        <time>2021-05-23T11:58:25+02:00</time>
      </trkpt>
      <trkpt lat="44.91911" lon="5.16716">
        <ele>1201</ele>
        <time>2021-05-23T11:58:41+02:00</time>
      </trkpt>
      <trkpt lat="44.91915" lon="5.1672">
        <ele>1204</ele>
        <time>2021-05-23T11:58:57+02:00</time>
      </trkpt>
      <trkpt lat="44.91915" lon="5.16717">
        <ele>1202</ele>
        <time>2021-05-23T11:59:08+02:00</time>
      </trkpt>
      <trkpt lat="44.91918" lon="5.16727">
        <ele>1203</ele>
        <time>2021-05-23T11:59:36+02:00</time>
      </trkpt>
      <trkpt lat="44.91923" lon="5.16739">
        <ele>1199</ele>
        <time>2021-05-23T11:59:50+02:00</time>
      </trkpt>
      <trkpt lat="44.91925" lon="5.16751">
        <ele>1200</ele>
        <time>2021-05-23T12:00:05+02:00</time>
      </trkpt>
      <trkpt lat="44.91924" lon="5.16758">
        <ele>1201</ele>
        <time>2021-05-23T12:00:18+02:00</time>
      </trkpt>
      <trkpt lat="44.91929" lon="5.16764">
        <ele>1198</ele>
        <time>2021-05-23T12:00:32+02:00</time>
      </trkpt>
      <trkpt lat="44.91933" lon="5.16772">
        <ele>1198</ele>
        <time>2021-05-23T12:00:46+02:00</time>
      </trkpt>
      <trkpt lat="44.91937" lon="5.16783">
        <ele>1200</ele>
        <time>2021-05-23T12:01:03+02:00</time>
      </trkpt>
      <trkpt lat="44.91936" lon="5.16784">
        <ele>1200</ele>
        <time>2021-05-23T12:01:26+02:00</time>
      </trkpt>
      <trkpt lat="44.91935" lon="5.16781">
        <ele>1200</ele>
        <time>2021-05-23T12:01:48+02:00</time>
      </trkpt>
      <trkpt lat="44.91933" lon="5.16779">
        <ele>1200</ele>
        <time>2021-05-23T12:02:03+02:00</time>
      </trkpt>
      <trkpt lat="44.91932" lon="5.16782">
        <ele>1201</ele>
        <time>2021-05-23T12:02:17+02:00</time>
      </trkpt>
      <trkpt lat="44.91931" lon="5.16777">
        <ele>1200</ele>
        <time>2021-05-23T12:02:33+02:00</time>
      </trkpt>
      <trkpt lat="44.9193" lon="5.16775">
        <ele>1200</ele>
        <time>2021-05-23T12:02:46+02:00</time>
      </trkpt>
      <trkpt lat="44.91929" lon="5.16773">
        <ele>1200</ele>
        <time>2021-05-23T12:02:58+02:00</time>
      </trkpt>
      <trkpt lat="44.91928" lon="5.16774">
        <ele>1201</ele>
        <time>2021-05-23T12:03:21+02:00</time>
      </trkpt>
      <trkpt lat="44.91929" lon="5.16776">
        <ele>1201</ele>
        <time>2021-05-23T12:03:44+02:00</time>
      </trkpt>
      <trkpt lat="44.9193" lon="5.16773">
        <ele>1200</ele>
        <time>2021-05-23T12:04:02+02:00</time>
      </trkpt>
      <trkpt lat="44.91931" lon="5.16774">
        <ele>1200</ele>
        <time>2021-05-23T12:04:35+02:00</time>
      </trkpt>
      <trkpt lat="44.91932" lon="5.16772">
        <ele>1198</ele>
        <time>2021-05-23T12:04:55+02:00</time>
      </trkpt>
      <trkpt lat="44.9193" lon="5.16773">
        <ele>1199</ele>
        <time>2021-05-23T12:05:26+02:00</time>
      </trkpt>
      <trkpt lat="44.91928" lon="5.16773">
        <ele>1201</ele>
        <time>2021-05-23T12:06:06+02:00</time>
      </trkpt>
      <trkpt lat="44.91927" lon="5.16774">
        <ele>1201</ele>
        <time>2021-05-23T12:06:48+02:00</time>
      </trkpt>
      <trkpt lat="44.91928" lon="5.16773">
        <ele>1201</ele>
        <time>2021-05-23T12:07:21+02:00</time>
      </trkpt>
      <trkpt lat="44.91925" lon="5.16773">
        <ele>1202</ele>
        <time>2021-05-23T12:07:58+02:00</time>
      </trkpt>
      <trkpt lat="44.91924" lon="5.16773">
        <ele>1202</ele>
        <time>2021-05-23T12:08:38+02:00</time>
      </trkpt>
      <trkpt lat="44.91924" lon="5.16773">
        <ele>1203</ele>
        <time>2021-05-23T12:09:11+02:00</time>
      </trkpt>
      <trkpt lat="44.91925" lon="5.16773">
        <ele>1202</ele>
        <time>2021-05-23T12:09:46+02:00</time>
      </trkpt>
      <trkpt lat="44.91926" lon="5.16773">
        <ele>1202</ele>
        <time>2021-05-23T12:10:17+02:00</time>
      </trkpt>
      <trkpt lat="44.91923" lon="5.16771">
        <ele>1203</ele>
        <time>2021-05-23T12:10:52+02:00</time>
      </trkpt>
      <trkpt lat="44.91922" lon="5.16771">
        <ele>1204</ele>
        <time>2021-05-23T12:11:29+02:00</time>
      </trkpt>
      <trkpt lat="44.91924" lon="5.16772">
        <ele>1202</ele>
        <time>2021-05-23T12:12:08+02:00</time>
      </trkpt>
      <trkpt lat="44.91925" lon="5.16772">
        <ele>1202</ele>
        <time>2021-05-23T12:12:38+02:00</time>
      </trkpt>
      <trkpt lat="44.91923" lon="5.16771">
        <ele>1203</ele>
        <time>2021-05-23T12:13:09+02:00</time>
      </trkpt>
      <trkpt lat="44.91925" lon="5.16772">
        <ele>1202</ele>
        <time>2021-05-23T12:13:41+02:00</time>
      </trkpt>
      <trkpt lat="44.91934" lon="5.16774">
        <ele>1198</ele>
        <time>2021-05-23T12:14:15+02:00</time>
      </trkpt>
      <trkpt lat="44.91935" lon="5.16775">
        <ele>1198</ele>
        <time>2021-05-23T12:14:58+02:00</time>
      </trkpt>
      <trkpt lat="44.91933" lon="5.16774">
        <ele>1198</ele>
        <time>2021-05-23T12:15:34+02:00</time>
      </trkpt>
      <trkpt lat="44.91926" lon="5.16773">
        <ele>1202</ele>
        <time>2021-05-23T12:16:14+02:00</time>
      </trkpt>
      <trkpt lat="44.91927" lon="5.16773">
        <ele>1201</ele>
        <time>2021-05-23T12:16:55+02:00</time>
      </trkpt>
      <trkpt lat="44.91927" lon="5.16772">
        <ele>1201</ele>
        <time>2021-05-23T12:17:24+02:00</time>
      </trkpt>
      <trkpt lat="44.91924" lon="5.16772">
        <ele>1202</ele>
        <time>2021-05-23T12:17:54+02:00</time>
      </trkpt>
      <trkpt lat="44.91921" lon="5.16771">
        <ele>1204</ele>
        <time>2021-05-23T12:18:31+02:00</time>
      </trkpt>
      <trkpt lat="44.91921" lon="5.16772">
        <ele>1204</ele>
        <time>2021-05-23T12:19:00+02:00</time>
      </trkpt>
      <trkpt lat="44.9192" lon="5.16771">
        <ele>1204</ele>
        <time>2021-05-23T12:19:38+02:00</time>
      </trkpt>
      <trkpt lat="44.9192" lon="5.16772">
        <ele>1205</ele>
        <time>2021-05-23T12:20:20+02:00</time>
      </trkpt>
      <trkpt lat="44.91921" lon="5.16772">
        <ele>1204</ele>
        <time>2021-05-23T12:20:52+02:00</time>
      </trkpt>
      <trkpt lat="44.91922" lon="5.1677">
        <ele>1203</ele>
        <time>2021-05-23T12:21:27+02:00</time>
      </trkpt>
      <trkpt lat="44.91922" lon="5.16772">
        <ele>1204</ele>
        <time>2021-05-23T12:22:02+02:00</time>
      </trkpt>
      <trkpt lat="44.91923" lon="5.16771">
        <ele>1203</ele>
        <time>2021-05-23T12:22:39+02:00</time>
      </trkpt>
      <trkpt lat="44.91923" lon="5.16772">
        <ele>1203</ele>
        <time>2021-05-23T12:23:14+02:00</time>
      </trkpt>
      <trkpt lat="44.91926" lon="5.16771">
        <ele>1201</ele>
        <time>2021-05-23T12:23:53+02:00</time>
      </trkpt>
      <trkpt lat="44.91928" lon="5.1677">
        <ele>1200</ele>
        <time>2021-05-23T12:24:27+02:00</time>
      </trkpt>
      <trkpt lat="44.91929" lon="5.16771">
        <ele>1200</ele>
        <time>2021-05-23T12:24:58+02:00</time>
      </trkpt>
      <trkpt lat="44.91929" lon="5.16771">
        <ele>1200</ele>
        <time>2021-05-23T12:25:28+02:00</time>
      </trkpt>
      <trkpt lat="44.9193" lon="5.16771">
        <ele>1199</ele>
        <time>2021-05-23T12:26:06+02:00</time>
      </trkpt>
      <trkpt lat="44.91931" lon="5.16771">
        <ele>1199</ele>
        <time>2021-05-23T12:26:49+02:00</time>
      </trkpt>
      <trkpt lat="44.91931" lon="5.16771">
        <ele>1199</ele>
        <time>2021-05-23T12:27:23+02:00</time>
      </trkpt>
      <trkpt lat="44.91933" lon="5.16771">
        <ele>1198</ele>
        <time>2021-05-23T12:27:55+02:00</time>
      </trkpt>
      <trkpt lat="44.91933" lon="5.16773">
        <ele>1198</ele>
        <time>2021-05-23T12:28:36+02:00</time>
      </trkpt>
      <trkpt lat="44.91932" lon="5.16772">
        <ele>1198</ele>
        <time>2021-05-23T12:29:15+02:00</time>
      </trkpt>
      <trkpt lat="44.91932" lon="5.16772">
        <ele>1198</ele>
        <time>2021-05-23T12:29:48+02:00</time>
      </trkpt>
      <trkpt lat="44.91934" lon="5.16772">
        <ele>1197</ele>
        <time>2021-05-23T12:30:23+02:00</time>
      </trkpt>
      <trkpt lat="44.91933" lon="5.16772">
        <ele>1198</ele>
        <time>2021-05-23T12:30:56+02:00</time>
      </trkpt>
      <trkpt lat="44.91928" lon="5.16772">
        <ele>1200</ele>
        <time>2021-05-23T12:31:26+02:00</time>
      </trkpt>
      <trkpt lat="44.91928" lon="5.16772">
        <ele>1200</ele>
        <time>2021-05-23T12:31:54+02:00</time>
      </trkpt>
      <trkpt lat="44.9193" lon="5.16772">
        <ele>1199</ele>
        <time>2021-05-23T12:32:31+02:00</time>
      </trkpt>
      <trkpt lat="44.91928" lon="5.16776">
        <ele>1201</ele>
        <time>2021-05-23T12:32:59+02:00</time>
      </trkpt>
      <trkpt lat="44.91929" lon="5.16779">
        <ele>1201</ele>
        <time>2021-05-23T12:33:32+02:00</time>
      </trkpt>
      <trkpt lat="44.91928" lon="5.16777">
        <ele>1201</ele>
        <time>2021-05-23T12:34:08+02:00</time>
      </trkpt>
      <trkpt lat="44.91926" lon="5.16775">
        <ele>1202</ele>
        <time>2021-05-23T12:34:34+02:00</time>
      </trkpt>
      <trkpt lat="44.91926" lon="5.16775">
        <ele>1202</ele>
        <time>2021-05-23T12:35:09+02:00</time>
      </trkpt>
      <trkpt lat="44.91926" lon="5.16775">
        <ele>1202</ele>
        <time>2021-05-23T12:35:43+02:00</time>
      </trkpt>
      <trkpt lat="44.91926" lon="5.16775">
        <ele>1202</ele>
        <time>2021-05-23T12:36:14+02:00</time>
      </trkpt>
      <trkpt lat="44.91925" lon="5.16775">
        <ele>1202</ele>
        <time>2021-05-23T12:36:42+02:00</time>
      </trkpt>
      <trkpt lat="44.91926" lon="5.16774">
        <ele>1202</ele>
        <time>2021-05-23T12:37:06+02:00</time>
      </trkpt>
      <trkpt lat="44.91926" lon="5.16774">
        <ele>1202</ele>
        <time>2021-05-23T12:37:36+02:00</time>
      </trkpt>
      <trkpt lat="44.91926" lon="5.16773">
        <ele>1201</ele>
        <time>2021-05-23T12:38:02+02:00</time>
      </trkpt>
      <trkpt lat="44.91925" lon="5.16774">
        <ele>1202</ele>
        <time>2021-05-23T12:38:34+02:00</time>
      </trkpt>
      <trkpt lat="44.91925" lon="5.16773">
        <ele>1202</ele>
        <time>2021-05-23T12:39:04+02:00</time>
      </trkpt>
      <trkpt lat="44.91925" lon="5.16773">
        <ele>1202</ele>
        <time>2021-05-23T12:39:36+02:00</time>
      </trkpt>
      <trkpt lat="44.91925" lon="5.16774">
        <ele>1202</ele>
        <time>2021-05-23T12:40:09+02:00</time>
      </trkpt>
      <trkpt lat="44.91924" lon="5.16774">
        <ele>1203</ele>
        <time>2021-05-23T12:40:42+02:00</time>
      </trkpt>
      <trkpt lat="44.91925" lon="5.16774">
        <ele>1202</ele>
        <time>2021-05-23T12:41:14+02:00</time>
      </trkpt>
      <trkpt lat="44.91925" lon="5.16774">
        <ele>1202</ele>
        <time>2021-05-23T12:41:50+02:00</time>
      </trkpt>
      <trkpt lat="44.91925" lon="5.16774">
        <ele>1202</ele>
        <time>2021-05-23T12:42:19+02:00</time>
      </trkpt>
      <trkpt lat="44.91925" lon="5.16774">
        <ele>1202</ele>
        <time>2021-05-23T12:42:50+02:00</time>
      </trkpt>
      <trkpt lat="44.91925" lon="5.16773">
        <ele>1202</ele>
        <time>2021-05-23T12:43:22+02:00</time>
      </trkpt>
      <trkpt lat="44.91925" lon="5.16773">
        <ele>1202</ele>
        <time>2021-05-23T12:43:48+02:00</time>
      </trkpt>
      <trkpt lat="44.91925" lon="5.16773">
        <ele>1202</ele>
        <time>2021-05-23T12:44:19+02:00</time>
      </trkpt>
      <trkpt lat="44.91924" lon="5.16773">
        <ele>1202</ele>
        <time>2021-05-23T12:44:49+02:00</time>
      </trkpt>
      <trkpt lat="44.91924" lon="5.16773">
        <ele>1202</ele>
        <time>2021-05-23T12:45:18+02:00</time>
      </trkpt>
      <trkpt lat="44.91924" lon="5.16773">
        <ele>1202</ele>
        <time>2021-05-23T12:45:44+02:00</time>
      </trkpt>
      <trkpt lat="44.91924" lon="5.16773">
        <ele>1202</ele>
        <time>2021-05-23T12:46:05+02:00</time>
      </trkpt>
      <trkpt lat="44.91925" lon="5.16773">
        <ele>1202</ele>
        <time>2021-05-23T12:46:27+02:00</time>
      </trkpt>
      <trkpt lat="44.91925" lon="5.16773">
        <ele>1202</ele>
        <time>2021-05-23T12:47:02+02:00</time>
      </trkpt>
      <trkpt lat="44.91924" lon="5.16773">
        <ele>1202</ele>
        <time>2021-05-23T12:47:31+02:00</time>
      </trkpt>
      <trkpt lat="44.91926" lon="5.16774">
        <ele>1202</ele>
        <time>2021-05-23T12:47:55+02:00</time>
      </trkpt>
      <trkpt lat="44.91927" lon="5.16775">
        <ele>1201</ele>
        <time>2021-05-23T12:48:30+02:00</time>
      </trkpt>
      <trkpt lat="44.91927" lon="5.16775">
        <ele>1202</ele>
        <time>2021-05-23T12:48:55+02:00</time>
      </trkpt>
      <trkpt lat="44.91927" lon="5.16775">
        <ele>1201</ele>
        <time>2021-05-23T12:49:35+02:00</time>
      </trkpt>
      <trkpt lat="44.91927" lon="5.16775">
        <ele>1201</ele>
        <time>2021-05-23T12:50:10+02:00</time>
      </trkpt>
      <trkpt lat="44.91928" lon="5.16775">
        <ele>1201</ele>
        <time>2021-05-23T12:50:42+02:00</time>
      </trkpt>
      <trkpt lat="44.91926" lon="5.16774">
        <ele>1202</ele>
        <time>2021-05-23T12:51:15+02:00</time>
      </trkpt>
      <trkpt lat="44.91926" lon="5.16774">
        <ele>1202</ele>
        <time>2021-05-23T12:51:46+02:00</time>
      </trkpt>
      <trkpt lat="44.91927" lon="5.16774">
        <ele>1201</ele>
        <time>2021-05-23T12:52:23+02:00</time>
      </trkpt>
      <trkpt lat="44.91927" lon="5.16776">
        <ele>1202</ele>
        <time>2021-05-23T12:52:53+02:00</time>
      </trkpt>
      <trkpt lat="44.91926" lon="5.16775">
        <ele>1202</ele>
        <time>2021-05-23T12:53:16+02:00</time>
      </trkpt>
      <trkpt lat="44.91926" lon="5.16774">
        <ele>1202</ele>
        <time>2021-05-23T12:53:40+02:00</time>
      </trkpt>
      <trkpt lat="44.91926" lon="5.16774">
        <ele>1202</ele>
        <time>2021-05-23T12:54:16+02:00</time>
      </trkpt>
      <trkpt lat="44.91925" lon="5.16774">
        <ele>1202</ele>
        <time>2021-05-23T12:54:58+02:00</time>
      </trkpt>
      <trkpt lat="44.91926" lon="5.16774">
        <ele>1202</ele>
        <time>2021-05-23T12:55:29+02:00</time>
      </trkpt>
      <trkpt lat="44.91926" lon="5.16775">
        <ele>1202</ele>
        <time>2021-05-23T12:55:58+02:00</time>
      </trkpt>
      <trkpt lat="44.91925" lon="5.16774">
        <ele>1202</ele>
        <time>2021-05-23T12:56:37+02:00</time>
      </trkpt>
      <trkpt lat="44.91925" lon="5.16774">
        <ele>1202</ele>
        <time>2021-05-23T12:57:08+02:00</time>
      </trkpt>
      <trkpt lat="44.91925" lon="5.16774">
        <ele>1202</ele>
        <time>2021-05-23T12:57:39+02:00</time>
      </trkpt>
      <trkpt lat="44.91925" lon="5.16774">
        <ele>1202</ele>
        <time>2021-05-23T12:58:10+02:00</time>
      </trkpt>
      <trkpt lat="44.91925" lon="5.16774">
        <ele>1202</ele>
        <time>2021-05-23T12:58:44+02:00</time>
      </trkpt>
      <trkpt lat="44.91925" lon="5.16773">
        <ele>1202</ele>
        <time>2021-05-23T12:59:15+02:00</time>
      </trkpt>
      <trkpt lat="44.91924" lon="5.16773">
        <ele>1202</ele>
        <time>2021-05-23T12:59:44+02:00</time>
      </trkpt>
      <trkpt lat="44.91925" lon="5.16773">
        <ele>1202</ele>
        <time>2021-05-23T13:00:18+02:00</time>
      </trkpt>
      <trkpt lat="44.91924" lon="5.16773">
        <ele>1203</ele>
        <time>2021-05-23T13:00:58+02:00</time>
      </trkpt>
      <trkpt lat="44.91924" lon="5.16773">
        <ele>1202</ele>
        <time>2021-05-23T13:01:22+02:00</time>
      </trkpt>
      <trkpt lat="44.91924" lon="5.16772">
        <ele>1203</ele>
        <time>2021-05-23T13:01:59+02:00</time>
      </trkpt>
      <trkpt lat="44.91924" lon="5.16772">
        <ele>1203</ele>
        <time>2021-05-23T13:02:28+02:00</time>
      </trkpt>
      <trkpt lat="44.91924" lon="5.16772">
        <ele>1203</ele>
        <time>2021-05-23T13:02:47+02:00</time>
      </trkpt>
      <trkpt lat="44.91924" lon="5.16771">
        <ele>1202</ele>
        <time>2021-05-23T13:03:21+02:00</time>
      </trkpt>
      <trkpt lat="44.91924" lon="5.16771">
        <ele>1203</ele>
        <time>2021-05-23T13:03:47+02:00</time>
      </trkpt>
      <trkpt lat="44.91923" lon="5.16771">
        <ele>1203</ele>
        <time>2021-05-23T13:04:14+02:00</time>
      </trkpt>
      <trkpt lat="44.91924" lon="5.16771">
        <ele>1203</ele>
        <time>2021-05-23T13:04:45+02:00</time>
      </trkpt>
      <trkpt lat="44.91923" lon="5.1677">
        <ele>1203</ele>
        <time>2021-05-23T13:05:08+02:00</time>
      </trkpt>
      <trkpt lat="44.91924" lon="5.16771">
        <ele>1202</ele>
        <time>2021-05-23T13:05:31+02:00</time>
      </trkpt>
      <trkpt lat="44.91924" lon="5.1677">
        <ele>1202</ele>
        <time>2021-05-23T13:06:06+02:00</time>
      </trkpt>
      <trkpt lat="44.91924" lon="5.16769">
        <ele>1202</ele>
        <time>2021-05-23T13:06:35+02:00</time>
      </trkpt>
      <trkpt lat="44.91924" lon="5.1677">
        <ele>1202</ele>
        <time>2021-05-23T13:07:03+02:00</time>
      </trkpt>
      <trkpt lat="44.91924" lon="5.1677">
        <ele>1202</ele>
        <time>2021-05-23T13:07:28+02:00</time>
      </trkpt>
      <trkpt lat="44.91924" lon="5.1677">
        <ele>1202</ele>
        <time>2021-05-23T13:08:02+02:00</time>
      </trkpt>
      <trkpt lat="44.91924" lon="5.1677">
        <ele>1202</ele>
        <time>2021-05-23T13:08:37+02:00</time>
      </trkpt>
      <trkpt lat="44.91925" lon="5.1677">
        <ele>1202</ele>
        <time>2021-05-23T13:09:10+02:00</time>
      </trkpt>
      <trkpt lat="44.91925" lon="5.16769">
        <ele>1202</ele>
        <time>2021-05-23T13:09:38+02:00</time>
      </trkpt>
      <trkpt lat="44.91925" lon="5.16771">
        <ele>1202</ele>
        <time>2021-05-23T13:10:08+02:00</time>
      </trkpt>
      <trkpt lat="44.91925" lon="5.16771">
        <ele>1202</ele>
        <time>2021-05-23T13:10:41+02:00</time>
      </trkpt>
      <trkpt lat="44.91926" lon="5.16771">
        <ele>1201</ele>
        <time>2021-05-23T13:11:11+02:00</time>
      </trkpt>
      <trkpt lat="44.91927" lon="5.16771">
        <ele>1201</ele>
        <time>2021-05-23T13:11:41+02:00</time>
      </trkpt>
      <trkpt lat="44.91928" lon="5.1677">
        <ele>1200</ele>
        <time>2021-05-23T13:11:59+02:00</time>
      </trkpt>
      <trkpt lat="44.91929" lon="5.16773">
        <ele>1200</ele>
        <time>2021-05-23T13:12:34+02:00</time>
      </trkpt>
      <trkpt lat="44.9193" lon="5.16775">
        <ele>1200</ele>
        <time>2021-05-23T13:12:54+02:00</time>
      </trkpt>
      <trkpt lat="44.91928" lon="5.16774">
        <ele>1201</ele>
        <time>2021-05-23T13:13:17+02:00</time>
      </trkpt>
      <trkpt lat="44.91928" lon="5.16774">
        <ele>1201</ele>
        <time>2021-05-23T13:13:50+02:00</time>
      </trkpt>
      <trkpt lat="44.91928" lon="5.16774">
        <ele>1201</ele>
        <time>2021-05-23T13:14:24+02:00</time>
      </trkpt>
      <trkpt lat="44.91928" lon="5.16774">
        <ele>1201</ele>
        <time>2021-05-23T13:14:59+02:00</time>
      </trkpt>
      <trkpt lat="44.91927" lon="5.16774">
        <ele>1201</ele>
        <time>2021-05-23T13:15:38+02:00</time>
      </trkpt>
      <trkpt lat="44.91928" lon="5.16774">
        <ele>1201</ele>
        <time>2021-05-23T13:16:17+02:00</time>
      </trkpt>
      <trkpt lat="44.91928" lon="5.16774">
        <ele>1201</ele>
        <time>2021-05-23T13:16:58+02:00</time>
      </trkpt>
      <trkpt lat="44.91929" lon="5.16773">
        <ele>1200</ele>
        <time>2021-05-23T13:17:33+02:00</time>
      </trkpt>
      <trkpt lat="44.91928" lon="5.16774">
        <ele>1201</ele>
        <time>2021-05-23T13:18:08+02:00</time>
      </trkpt>
      <trkpt lat="44.91928" lon="5.16775">
        <ele>1201</ele>
        <time>2021-05-23T13:18:46+02:00</time>
      </trkpt>
      <trkpt lat="44.91927" lon="5.16775">
        <ele>1201</ele>
        <time>2021-05-23T13:19:22+02:00</time>
      </trkpt>
      <trkpt lat="44.91928" lon="5.16774">
        <ele>1201</ele>
        <time>2021-05-23T13:19:59+02:00</time>
      </trkpt>
      <trkpt lat="44.91928" lon="5.16775">
        <ele>1201</ele>
        <time>2021-05-23T13:20:35+02:00</time>
      </trkpt>
      <trkpt lat="44.91928" lon="5.16775">
        <ele>1201</ele>
        <time>2021-05-23T13:21:13+02:00</time>
      </trkpt>
      <trkpt lat="44.91928" lon="5.16775">
        <ele>1201</ele>
        <time>2021-05-23T13:21:45+02:00</time>
      </trkpt>
      <trkpt lat="44.91927" lon="5.16774">
        <ele>1201</ele>
        <time>2021-05-23T13:21:54+02:00</time>
      </trkpt>
      <trkpt lat="44.91926" lon="5.16772">
        <ele>1201</ele>
        <time>2021-05-23T13:22:09+02:00</time>
      </trkpt>
      <trkpt lat="44.91927" lon="5.16782">
        <ele>1203</ele>
        <time>2021-05-23T13:22:21+02:00</time>
      </trkpt>
      <trkpt lat="44.91927" lon="5.16784">
        <ele>1203</ele>
        <time>2021-05-23T13:22:39+02:00</time>
      </trkpt>
      <trkpt lat="44.91926" lon="5.16781">
        <ele>1203</ele>
        <time>2021-05-23T13:23:09+02:00</time>
      </trkpt>
      <trkpt lat="44.91926" lon="5.16781">
        <ele>1203</ele>
        <time>2021-05-23T13:23:29+02:00</time>
      </trkpt>
      <trkpt lat="44.91926" lon="5.16785">
        <ele>1203</ele>
        <time>2021-05-23T13:23:49+02:00</time>
      </trkpt>
      <trkpt lat="44.91927" lon="5.16791">
        <ele>1204</ele>
        <time>2021-05-23T13:24:05+02:00</time>
      </trkpt>
      <trkpt lat="44.9193" lon="5.16801">
        <ele>1206</ele>
        <time>2021-05-23T13:24:18+02:00</time>
      </trkpt>
      <trkpt lat="44.91931" lon="5.16811">
        <ele>1207</ele>
        <time>2021-05-23T13:24:31+02:00</time>
      </trkpt>
      <trkpt lat="44.91932" lon="5.16824">
        <ele>1208</ele>
        <time>2021-05-23T13:24:46+02:00</time>
      </trkpt>
      <trkpt lat="44.91932" lon="5.16836">
        <ele>1208</ele>
        <time>2021-05-23T13:25:01+02:00</time>
      </trkpt>
      <trkpt lat="44.91932" lon="5.16847">
        <ele>1208</ele>
        <time>2021-05-23T13:25:15+02:00</time>
      </trkpt>
      <trkpt lat="44.91931" lon="5.16857">
        <ele>1207</ele>
        <time>2021-05-23T13:25:31+02:00</time>
      </trkpt>
      <trkpt lat="44.9193" lon="5.16861">
        <ele>1206</ele>
        <time>2021-05-23T13:25:44+02:00</time>
      </trkpt>
      <trkpt lat="44.91929" lon="5.16867">
        <ele>1205</ele>
        <time>2021-05-23T13:25:59+02:00</time>
      </trkpt>
      <trkpt lat="44.91928" lon="5.16876">
        <ele>1204</ele>
        <time>2021-05-23T13:26:14+02:00</time>
      </trkpt>
      <trkpt lat="44.91929" lon="5.16877">
        <ele>1204</ele>
        <time>2021-05-23T13:26:32+02:00</time>
      </trkpt>
      <trkpt lat="44.91921" lon="5.1688">
        <ele>1200</ele>
        <time>2021-05-23T13:26:45+02:00</time>
      </trkpt>
      <trkpt lat="44.91915" lon="5.16878">
        <ele>1198</ele>
        <time>2021-05-23T13:26:59+02:00</time>
      </trkpt>
      <trkpt lat="44.91911" lon="5.16879">
        <ele>1197</ele>
        <time>2021-05-23T13:27:12+02:00</time>
      </trkpt>
      <trkpt lat="44.91911" lon="5.16873">
        <ele>1197</ele>
        <time>2021-05-23T13:27:26+02:00</time>
      </trkpt>
      <trkpt lat="44.91909" lon="5.16872">
        <ele>1196</ele>
        <time>2021-05-23T13:27:37+02:00</time>
      </trkpt>
      <trkpt lat="44.919" lon="5.16874">
        <ele>1193</ele>
        <time>2021-05-23T13:27:52+02:00</time>
      </trkpt>
      <trkpt lat="44.91893" lon="5.16878">
        <ele>1191</ele>
        <time>2021-05-23T13:28:09+02:00</time>
      </trkpt>
      <trkpt lat="44.91889" lon="5.16881">
        <ele>1189</ele>
        <time>2021-05-23T13:28:21+02:00</time>
      </trkpt>
      <trkpt lat="44.91884" lon="5.16884">
        <ele>1188</ele>
        <time>2021-05-23T13:28:34+02:00</time>
      </trkpt>
      <trkpt lat="44.9188" lon="5.16887">
        <ele>1187</ele>
        <time>2021-05-23T13:28:49+02:00</time>
      </trkpt>
      <trkpt lat="44.91885" lon="5.16893">
        <ele>1188</ele>
        <time>2021-05-23T13:29:04+02:00</time>
      </trkpt>
      <trkpt lat="44.91886" lon="5.16893">
        <ele>1188</ele>
        <time>2021-05-23T13:29:23+02:00</time>
      </trkpt>
      <trkpt lat="44.91888" lon="5.16896">
        <ele>1188</ele>
        <time>2021-05-23T13:29:41+02:00</time>
      </trkpt>
      <trkpt lat="44.91883" lon="5.16904">
        <ele>1187</ele>
        <time>2021-05-23T13:29:54+02:00</time>
      </trkpt>
      <trkpt lat="44.91883" lon="5.16906">
        <ele>1187</ele>
        <time>2021-05-23T13:29:56+02:00</time>
      </trkpt>
      <trkpt lat="44.91877" lon="5.16912">
        <ele>1185</ele>
        <time>2021-05-23T13:30:11+02:00</time>
      </trkpt>
      <trkpt lat="44.91878" lon="5.1692">
        <ele>1185</ele>
        <time>2021-05-23T13:30:23+02:00</time>
      </trkpt>
      <trkpt lat="44.91881" lon="5.16921">
        <ele>1185</ele>
        <time>2021-05-23T13:30:36+02:00</time>
      </trkpt>
      <trkpt lat="44.91882" lon="5.16918">
        <ele>1186</ele>
        <time>2021-05-23T13:30:53+02:00</time>
      </trkpt>
      <trkpt lat="44.91881" lon="5.1692">
        <ele>1185</ele>
        <time>2021-05-23T13:31:18+02:00</time>
      </trkpt>
      <trkpt lat="44.91882" lon="5.16922">
        <ele>1185</ele>
        <time>2021-05-23T13:31:41+02:00</time>
      </trkpt>
      <trkpt lat="44.91881" lon="5.16921">
        <ele>1185</ele>
        <time>2021-05-23T13:32:02+02:00</time>
      </trkpt>
      <trkpt lat="44.91884" lon="5.16921">
        <ele>1186</ele>
        <time>2021-05-23T13:32:20+02:00</time>
      </trkpt>
      <trkpt lat="44.91891" lon="5.16921">
        <ele>1187</ele>
        <time>2021-05-23T13:32:34+02:00</time>
      </trkpt>
      <trkpt lat="44.91895" lon="5.16917">
        <ele>1188</ele>
        <time>2021-05-23T13:32:49+02:00</time>
      </trkpt>
      <trkpt lat="44.91897" lon="5.16917">
        <ele>1189</ele>
        <time>2021-05-23T13:33:05+02:00</time>
      </trkpt>
      <trkpt lat="44.91902" lon="5.16916">
        <ele>1190</ele>
        <time>2021-05-23T13:33:19+02:00</time>
      </trkpt>
      <trkpt lat="44.91906" lon="5.16918">
        <ele>1191</ele>
        <time>2021-05-23T13:33:32+02:00</time>
      </trkpt>
      <trkpt lat="44.91909" lon="5.1692">
        <ele>1191</ele>
        <time>2021-05-23T13:33:44+02:00</time>
      </trkpt>
      <trkpt lat="44.91911" lon="5.1692">
        <ele>1191</ele>
        <time>2021-05-23T13:33:59+02:00</time>
      </trkpt>
      <trkpt lat="44.91913" lon="5.16922">
        <ele>1191</ele>
        <time>2021-05-23T13:34:14+02:00</time>
      </trkpt>
      <trkpt lat="44.91914" lon="5.16924">
        <ele>1190</ele>
        <time>2021-05-23T13:34:31+02:00</time>
      </trkpt>
      <trkpt lat="44.91918" lon="5.16924">
        <ele>1190</ele>
        <time>2021-05-23T13:34:47+02:00</time>
      </trkpt>
      <trkpt lat="44.91918" lon="5.16925">
        <ele>1190</ele>
        <time>2021-05-23T13:35:00+02:00</time>
      </trkpt>
      <trkpt lat="44.9192" lon="5.16928">
        <ele>1188</ele>
        <time>2021-05-23T13:35:13+02:00</time>
      </trkpt>
      <trkpt lat="44.91923" lon="5.16928">
        <ele>1187</ele>
        <time>2021-05-23T13:35:25+02:00</time>
      </trkpt>
      <trkpt lat="44.91926" lon="5.16927">
        <ele>1186</ele>
        <time>2021-05-23T13:35:37+02:00</time>
      </trkpt>
      <trkpt lat="44.91932" lon="5.16928">
        <ele>1184</ele>
        <time>2021-05-23T13:35:52+02:00</time>
      </trkpt>
      <trkpt lat="44.91935" lon="5.16926">
        <ele>1185</ele>
        <time>2021-05-23T13:36:09+02:00</time>
      </trkpt>
      <trkpt lat="44.91935" lon="5.16925">
        <ele>1186</ele>
        <time>2021-05-23T13:36:29+02:00</time>
      </trkpt>
      <trkpt lat="44.9194" lon="5.16919">
        <ele>1192</ele>
        <time>2021-05-23T13:36:46+02:00</time>
      </trkpt>
      <trkpt lat="44.91947" lon="5.16909">
        <ele>1195</ele>
        <time>2021-05-23T13:37:01+02:00</time>
      </trkpt>
      <trkpt lat="44.91948" lon="5.16901">
        <ele>1199</ele>
        <time>2021-05-23T13:37:16+02:00</time>
      </trkpt>
      <trkpt lat="44.91945" lon="5.16896">
        <ele>1204</ele>
        <time>2021-05-23T13:37:32+02:00</time>
      </trkpt>
      <trkpt lat="44.91946" lon="5.16892">
        <ele>1206</ele>
        <time>2021-05-23T13:37:45+02:00</time>
      </trkpt>
      <trkpt lat="44.91949" lon="5.1689">
        <ele>1204</ele>
        <time>2021-05-23T13:38:01+02:00</time>
      </trkpt>
      <trkpt lat="44.91947" lon="5.16886">
        <ele>1207</ele>
        <time>2021-05-23T13:38:18+02:00</time>
      </trkpt>
      <trkpt lat="44.91946" lon="5.16885">
        <ele>1208</ele>
        <time>2021-05-23T13:38:40+02:00</time>
      </trkpt>
      <trkpt lat="44.91947" lon="5.1688">
        <ele>1208</ele>
        <time>2021-05-23T13:38:56+02:00</time>
      </trkpt>
      <trkpt lat="44.91948" lon="5.16876">
        <ele>1208</ele>
        <time>2021-05-23T13:39:11+02:00</time>
      </trkpt>
      <trkpt lat="44.91949" lon="5.16877">
        <ele>1206</ele>
        <time>2021-05-23T13:39:31+02:00</time>
      </trkpt>
      <trkpt lat="44.91956" lon="5.16896">
        <ele>1193</ele>
        <time>2021-05-23T13:39:52+02:00</time>
      </trkpt>
      <trkpt lat="44.91963" lon="5.16915">
        <ele>1173</ele>
        <time>2021-05-23T13:40:13+02:00</time>
      </trkpt>
      <trkpt lat="44.91959" lon="5.16916">
        <ele>1177</ele>
        <time>2021-05-23T13:40:32+02:00</time>
      </trkpt>
      <trkpt lat="44.91961" lon="5.16897">
        <ele>1187</ele>
        <time>2021-05-23T13:40:45+02:00</time>
      </trkpt>
      <trkpt lat="44.9195" lon="5.16896">
        <ele>1199</ele>
        <time>2021-05-23T13:40:59+02:00</time>
      </trkpt>
      <trkpt lat="44.91951" lon="5.16898">
        <ele>1198</ele>
        <time>2021-05-23T13:41:12+02:00</time>
      </trkpt>
      <trkpt lat="44.91952" lon="5.169">
        <ele>1195</ele>
        <time>2021-05-23T13:41:24+02:00</time>
      </trkpt>
      <trkpt lat="44.91953" lon="5.16902">
        <ele>1193</ele>
        <time>2021-05-23T13:41:37+02:00</time>
      </trkpt>
      <trkpt lat="44.91953" lon="5.16902">
        <ele>1193</ele>
        <time>2021-05-23T13:41:48+02:00</time>
      </trkpt>
      <trkpt lat="44.91955" lon="5.16904">
        <ele>1190</ele>
        <time>2021-05-23T13:42:00+02:00</time>
      </trkpt>
      <trkpt lat="44.91958" lon="5.16903">
        <ele>1187</ele>
        <time>2021-05-23T13:42:15+02:00</time>
      </trkpt>
      <trkpt lat="44.91962" lon="5.16903">
        <ele>1183</ele>
        <time>2021-05-23T13:42:29+02:00</time>
      </trkpt>
      <trkpt lat="44.91964" lon="5.16905">
        <ele>1179</ele>
        <time>2021-05-23T13:42:40+02:00</time>
      </trkpt>
      <trkpt lat="44.91965" lon="5.16907">
        <ele>1176</ele>
        <time>2021-05-23T13:42:54+02:00</time>
      </trkpt>
      <trkpt lat="44.91964" lon="5.1691">
        <ele>1175</ele>
        <time>2021-05-23T13:43:07+02:00</time>
      </trkpt>
      <trkpt lat="44.91964" lon="5.16913">
        <ele>1173</ele>
        <time>2021-05-23T13:43:24+02:00</time>
      </trkpt>
      <trkpt lat="44.91961" lon="5.16921">
        <ele>1169</ele>
        <time>2021-05-23T13:43:43+02:00</time>
      </trkpt>
      <trkpt lat="44.91962" lon="5.16925">
        <ele>1164</ele>
        <time>2021-05-23T13:43:59+02:00</time>
      </trkpt>
      <trkpt lat="44.91963" lon="5.16923">
        <ele>1166</ele>
        <time>2021-05-23T13:44:16+02:00</time>
      </trkpt>
      <trkpt lat="44.91963" lon="5.16926">
        <ele>1163</ele>
        <time>2021-05-23T13:44:42+02:00</time>
      </trkpt>
      <trkpt lat="44.91968" lon="5.16926">
        <ele>1157</ele>
        <time>2021-05-23T13:44:58+02:00</time>
      </trkpt>
      <trkpt lat="44.91973" lon="5.16925">
        <ele>1153</ele>
        <time>2021-05-23T13:45:20+02:00</time>
      </trkpt>
      <trkpt lat="44.91974" lon="5.16925">
        <ele>1151</ele>
        <time>2021-05-23T13:45:40+02:00</time>
      </trkpt>
      <trkpt lat="44.91977" lon="5.16927">
        <ele>1147</ele>
        <time>2021-05-23T13:45:57+02:00</time>
      </trkpt>
      <trkpt lat="44.91981" lon="5.16926">
        <ele>1145</ele>
        <time>2021-05-23T13:46:09+02:00</time>
      </trkpt>
      <trkpt lat="44.91985" lon="5.16922">
        <ele>1144</ele>
        <time>2021-05-23T13:46:25+02:00</time>
      </trkpt>
      <trkpt lat="44.91983" lon="5.16921">
        <ele>1147</ele>
        <time>2021-05-23T13:46:40+02:00</time>
      </trkpt>
      <trkpt lat="44.91988" lon="5.1692">
        <ele>1143</ele>
        <time>2021-05-23T13:47:02+02:00</time>
      </trkpt>
      <trkpt lat="44.91991" lon="5.16922">
        <ele>1140</ele>
        <time>2021-05-23T13:47:19+02:00</time>
      </trkpt>
      <trkpt lat="44.91992" lon="5.16922">
        <ele>1139</ele>
        <time>2021-05-23T13:47:35+02:00</time>
      </trkpt>
      <trkpt lat="44.91997" lon="5.16918">
        <ele>1135</ele>
        <time>2021-05-23T13:47:51+02:00</time>
      </trkpt>
      <trkpt lat="44.92004" lon="5.16907">
        <ele>1131</ele>
        <time>2021-05-23T13:48:08+02:00</time>
      </trkpt>
      <trkpt lat="44.9201" lon="5.16903">
        <ele>1127</ele>
        <time>2021-05-23T13:48:24+02:00</time>
      </trkpt>
      <trkpt lat="44.92014" lon="5.16907">
        <ele>1124</ele>
        <time>2021-05-23T13:48:39+02:00</time>
      </trkpt>
      <trkpt lat="44.92019" lon="5.1691">
        <ele>1121</ele>
        <time>2021-05-23T13:48:52+02:00</time>
      </trkpt>
      <trkpt lat="44.92021" lon="5.16912">
        <ele>1120</ele>
        <time>2021-05-23T13:49:04+02:00</time>
      </trkpt>
      <trkpt lat="44.92022" lon="5.16914">
        <ele>1119</ele>
        <time>2021-05-23T13:49:26+02:00</time>
      </trkpt>
      <trkpt lat="44.92026" lon="5.16915">
        <ele>1117</ele>
        <time>2021-05-23T13:49:41+02:00</time>
      </trkpt>
      <trkpt lat="44.92029" lon="5.16917">
        <ele>1115</ele>
        <time>2021-05-23T13:49:54+02:00</time>
      </trkpt>
      <trkpt lat="44.92033" lon="5.16919">
        <ele>1112</ele>
        <time>2021-05-23T13:50:07+02:00</time>
      </trkpt>
      <trkpt lat="44.92032" lon="5.16921">
        <ele>1112</ele>
        <time>2021-05-23T13:50:39+02:00</time>
      </trkpt>
      <trkpt lat="44.92037" lon="5.16922">
        <ele>1108</ele>
        <time>2021-05-23T13:50:54+02:00</time>
      </trkpt>
      <trkpt lat="44.9204" lon="5.16924">
        <ele>1106</ele>
        <time>2021-05-23T13:51:11+02:00</time>
      </trkpt>
      <trkpt lat="44.92042" lon="5.16922">
        <ele>1105</ele>
        <time>2021-05-23T13:51:31+02:00</time>
      </trkpt>
      <trkpt lat="44.92042" lon="5.16924">
        <ele>1104</ele>
        <time>2021-05-23T13:51:49+02:00</time>
      </trkpt>
      <trkpt lat="44.92045" lon="5.16926">
        <ele>1102</ele>
        <time>2021-05-23T13:52:03+02:00</time>
      </trkpt>
      <trkpt lat="44.92047" lon="5.16929">
        <ele>1100</ele>
        <time>2021-05-23T13:52:19+02:00</time>
      </trkpt>
      <trkpt lat="44.9205" lon="5.16932">
        <ele>1098</ele>
        <time>2021-05-23T13:52:30+02:00</time>
      </trkpt>
      <trkpt lat="44.92052" lon="5.16931">
        <ele>1097</ele>
        <time>2021-05-23T13:52:45+02:00</time>
      </trkpt>
      <trkpt lat="44.92054" lon="5.16931">
        <ele>1095</ele>
        <time>2021-05-23T13:53:00+02:00</time>
      </trkpt>
      <trkpt lat="44.92055" lon="5.16932">
        <ele>1095</ele>
        <time>2021-05-23T13:53:17+02:00</time>
      </trkpt>
      <trkpt lat="44.92058" lon="5.16932">
        <ele>1093</ele>
        <time>2021-05-23T13:53:30+02:00</time>
      </trkpt>
      <trkpt lat="44.9206" lon="5.16925">
        <ele>1092</ele>
        <time>2021-05-23T13:53:46+02:00</time>
      </trkpt>
      <trkpt lat="44.9206" lon="5.16918">
        <ele>1091</ele>
        <time>2021-05-23T13:54:02+02:00</time>
      </trkpt>
      <trkpt lat="44.92058" lon="5.16908">
        <ele>1090</ele>
        <time>2021-05-23T13:54:18+02:00</time>
      </trkpt>
      <trkpt lat="44.92053" lon="5.16899">
        <ele>1091</ele>
        <time>2021-05-23T13:54:31+02:00</time>
      </trkpt>
      <trkpt lat="44.92054" lon="5.16893">
        <ele>1089</ele>
        <time>2021-05-23T13:54:43+02:00</time>
      </trkpt>
      <trkpt lat="44.92051" lon="5.16887">
        <ele>1089</ele>
        <time>2021-05-23T13:54:57+02:00</time>
      </trkpt>
      <trkpt lat="44.92051" lon="5.16884">
        <ele>1089</ele>
        <time>2021-05-23T13:55:21+02:00</time>
      </trkpt>
      <trkpt lat="44.9205" lon="5.16875">
        <ele>1087</ele>
        <time>2021-05-23T13:55:42+02:00</time>
      </trkpt>
      <trkpt lat="44.92047" lon="5.16865">
        <ele>1086</ele>
        <time>2021-05-23T13:55:57+02:00</time>
      </trkpt>
      <trkpt lat="44.92044" lon="5.16855">
        <ele>1087</ele>
        <time>2021-05-23T13:56:12+02:00</time>
      </trkpt>
      <trkpt lat="44.92043" lon="5.16845">
        <ele>1087</ele>
        <time>2021-05-23T13:56:26+02:00</time>
      </trkpt>
      <trkpt lat="44.92038" lon="5.16833">
        <ele>1090</ele>
        <time>2021-05-23T13:56:41+02:00</time>
      </trkpt>
      <trkpt lat="44.92039" lon="5.16823">
        <ele>1086</ele>
        <time>2021-05-23T13:56:56+02:00</time>
      </trkpt>
      <trkpt lat="44.9204" lon="5.16812">
        <ele>1083</ele>
        <time>2021-05-23T13:57:12+02:00</time>
      </trkpt>
      <trkpt lat="44.92042" lon="5.16798">
        <ele>1079</ele>
        <time>2021-05-23T13:57:30+02:00</time>
      </trkpt>
      <trkpt lat="44.92035" lon="5.16794">
        <ele>1083</ele>
        <time>2021-05-23T13:57:49+02:00</time>
      </trkpt>
      <trkpt lat="44.92039" lon="5.16794">
        <ele>1080</ele>
        <time>2021-05-23T13:58:13+02:00</time>
      </trkpt>
      <trkpt lat="44.92037" lon="5.1679">
        <ele>1081</ele>
        <time>2021-05-23T13:58:32+02:00</time>
      </trkpt>
      <trkpt lat="44.92032" lon="5.16784">
        <ele>1084</ele>
        <time>2021-05-23T13:58:58+02:00</time>
      </trkpt>
      <trkpt lat="44.92033" lon="5.16781">
        <ele>1082</ele>
        <time>2021-05-23T13:59:19+02:00</time>
      </trkpt>
      <trkpt lat="44.92043" lon="5.16783">
        <ele>1074</ele>
        <time>2021-05-23T13:59:36+02:00</time>
      </trkpt>
      <trkpt lat="44.92043" lon="5.16786">
        <ele>1075</ele>
        <time>2021-05-23T14:00:01+02:00</time>
      </trkpt>
      <trkpt lat="44.92041" lon="5.16783">
        <ele>1076</ele>
        <time>2021-05-23T14:00:27+02:00</time>
      </trkpt>
      <trkpt lat="44.92041" lon="5.16779">
        <ele>1076</ele>
        <time>2021-05-23T14:00:45+02:00</time>
      </trkpt>
      <trkpt lat="44.92039" lon="5.16774">
        <ele>1075</ele>
        <time>2021-05-23T14:01:04+02:00</time>
      </trkpt>
      <trkpt lat="44.92038" lon="5.16771">
        <ele>1075</ele>
        <time>2021-05-23T14:01:28+02:00</time>
      </trkpt>
      <trkpt lat="44.92039" lon="5.16772">
        <ele>1075</ele>
        <time>2021-05-23T14:01:42+02:00</time>
      </trkpt>
      <trkpt lat="44.9204" lon="5.16767">
        <ele>1072</ele>
        <time>2021-05-23T14:02:03+02:00</time>
      </trkpt>
      <trkpt lat="44.9204" lon="5.16763">
        <ele>1072</ele>
        <time>2021-05-23T14:02:22+02:00</time>
      </trkpt>
      <trkpt lat="44.92043" lon="5.16759">
        <ele>1068</ele>
        <time>2021-05-23T14:02:36+02:00</time>
      </trkpt>
      <trkpt lat="44.92047" lon="5.1675">
        <ele>1063</ele>
        <time>2021-05-23T14:03:02+02:00</time>
      </trkpt>
      <trkpt lat="44.92052" lon="5.16753">
        <ele>1060</ele>
        <time>2021-05-23T14:03:26+02:00</time>
      </trkpt>
      <trkpt lat="44.9205" lon="5.16752">
        <ele>1061</ele>
        <time>2021-05-23T14:03:43+02:00</time>
      </trkpt>
      <trkpt lat="44.9205" lon="5.16756">
        <ele>1063</ele>
        <time>2021-05-23T14:04:01+02:00</time>
      </trkpt>
      <trkpt lat="44.92053" lon="5.16756">
        <ele>1060</ele>
        <time>2021-05-23T14:04:16+02:00</time>
      </trkpt>
      <trkpt lat="44.92058" lon="5.16754">
        <ele>1056</ele>
        <time>2021-05-23T14:04:30+02:00</time>
      </trkpt>
      <trkpt lat="44.9206" lon="5.16753">
        <ele>1054</ele>
        <time>2021-05-23T14:04:44+02:00</time>
      </trkpt>
      <trkpt lat="44.92064" lon="5.16747">
        <ele>1049</ele>
        <time>2021-05-23T14:05:06+02:00</time>
      </trkpt>
      <trkpt lat="44.92057" lon="5.16738">
        <ele>1053</ele>
        <time>2021-05-23T14:05:19+02:00</time>
      </trkpt>
      <trkpt lat="44.92051" lon="5.16728">
        <ele>1054</ele>
        <time>2021-05-23T14:05:34+02:00</time>
      </trkpt>
      <trkpt lat="44.92048" lon="5.16718">
        <ele>1054</ele>
        <time>2021-05-23T14:05:47+02:00</time>
      </trkpt>
      <trkpt lat="44.92044" lon="5.16705">
        <ele>1053</ele>
        <time>2021-05-23T14:06:03+02:00</time>
      </trkpt>
      <trkpt lat="44.92042" lon="5.16693">
        <ele>1051</ele>
        <time>2021-05-23T14:06:16+02:00</time>
      </trkpt>
      <trkpt lat="44.92036" lon="5.1668">
        <ele>1052</ele>
        <time>2021-05-23T14:06:31+02:00</time>
      </trkpt>
      <trkpt lat="44.92038" lon="5.16675">
        <ele>1049</ele>
        <time>2021-05-23T14:06:45+02:00</time>
      </trkpt>
      <trkpt lat="44.92037" lon="5.16667">
        <ele>1047</ele>
        <time>2021-05-23T14:06:58+02:00</time>
      </trkpt>
      <trkpt lat="44.92031" lon="5.16652">
        <ele>1048</ele>
        <time>2021-05-23T14:07:11+02:00</time>
      </trkpt>
      <trkpt lat="44.92029" lon="5.16644">
        <ele>1047</ele>
        <time>2021-05-23T14:07:28+02:00</time>
      </trkpt>
      <trkpt lat="44.92028" lon="5.16636">
        <ele>1045</ele>
        <time>2021-05-23T14:07:44+02:00</time>
      </trkpt>
      <trkpt lat="44.92026" lon="5.16628">
        <ele>1044</ele>
        <time>2021-05-23T14:07:59+02:00</time>
      </trkpt>
      <trkpt lat="44.92025" lon="5.16619">
        <ele>1041</ele>
        <time>2021-05-23T14:08:15+02:00</time>
      </trkpt>
      <trkpt lat="44.92026" lon="5.16613">
        <ele>1038</ele>
        <time>2021-05-23T14:08:30+02:00</time>
      </trkpt>
      <trkpt lat="44.92023" lon="5.16611">
        <ele>1039</ele>
        <time>2021-05-23T14:08:48+02:00</time>
      </trkpt>
      <trkpt lat="44.92033" lon="5.16607">
        <ele>1030</ele>
        <time>2021-05-23T14:09:05+02:00</time>
      </trkpt>
      <trkpt lat="44.92036" lon="5.16603">
        <ele>1026</ele>
        <time>2021-05-23T14:09:18+02:00</time>
      </trkpt>
      <trkpt lat="44.92034" lon="5.16591">
        <ele>1024</ele>
        <time>2021-05-23T14:09:32+02:00</time>
      </trkpt>
      <trkpt lat="44.92035" lon="5.16581">
        <ele>1020</ele>
        <time>2021-05-23T14:09:44+02:00</time>
      </trkpt>
      <trkpt lat="44.92034" lon="5.16575">
        <ele>1019</ele>
        <time>2021-05-23T14:10:01+02:00</time>
      </trkpt>
      <trkpt lat="44.92033" lon="5.16564">
        <ele>1016</ele>
        <time>2021-05-23T14:10:17+02:00</time>
      </trkpt>
      <trkpt lat="44.92029" lon="5.16557">
        <ele>1019</ele>
        <time>2021-05-23T14:10:35+02:00</time>
      </trkpt>
      <trkpt lat="44.92024" lon="5.16555">
        <ele>1022</ele>
        <time>2021-05-23T14:10:57+02:00</time>
      </trkpt>
      <trkpt lat="44.92023" lon="5.16556">
        <ele>1023</ele>
        <time>2021-05-23T14:11:15+02:00</time>
      </trkpt>
      <trkpt lat="44.92017" lon="5.16548">
        <ele>1026</ele>
        <time>2021-05-23T14:11:29+02:00</time>
      </trkpt>
      <trkpt lat="44.92011" lon="5.1654">
        <ele>1030</ele>
        <time>2021-05-23T14:11:44+02:00</time>
      </trkpt>
      <trkpt lat="44.92007" lon="5.16535">
        <ele>1033</ele>
        <time>2021-05-23T14:12:02+02:00</time>
      </trkpt>
      <trkpt lat="44.92004" lon="5.16528">
        <ele>1035</ele>
        <time>2021-05-23T14:12:18+02:00</time>
      </trkpt>
      <trkpt lat="44.92004" lon="5.16521">
        <ele>1033</ele>
        <time>2021-05-23T14:12:33+02:00</time>
      </trkpt>
      <trkpt lat="44.92002" lon="5.16515">
        <ele>1034</ele>
        <time>2021-05-23T14:12:49+02:00</time>
      </trkpt>
      <trkpt lat="44.92006" lon="5.16513">
        <ele>1030</ele>
        <time>2021-05-23T14:13:02+02:00</time>
      </trkpt>
      <trkpt lat="44.9201" lon="5.16507">
        <ele>1025</ele>
        <time>2021-05-23T14:13:20+02:00</time>
      </trkpt>
      <trkpt lat="44.92011" lon="5.16505">
        <ele>1025</ele>
        <time>2021-05-23T14:13:33+02:00</time>
      </trkpt>
      <trkpt lat="44.92006" lon="5.16493">
        <ele>1027</ele>
        <time>2021-05-23T14:13:45+02:00</time>
      </trkpt>
      <trkpt lat="44.92006" lon="5.16476">
        <ele>1023</ele>
        <time>2021-05-23T14:13:59+02:00</time>
      </trkpt>
      <trkpt lat="44.92002" lon="5.16467">
        <ele>1025</ele>
        <time>2021-05-23T14:14:12+02:00</time>
      </trkpt>
      <trkpt lat="44.92002" lon="5.16455">
        <ele>1024</ele>
        <time>2021-05-23T14:14:25+02:00</time>
      </trkpt>
      <trkpt lat="44.92002" lon="5.16444">
        <ele>1022</ele>
        <time>2021-05-23T14:14:37+02:00</time>
      </trkpt>
      <trkpt lat="44.92001" lon="5.16432">
        <ele>1021</ele>
        <time>2021-05-23T14:14:52+02:00</time>
      </trkpt>
      <trkpt lat="44.92" lon="5.16422">
        <ele>1021</ele>
        <time>2021-05-23T14:15:06+02:00</time>
      </trkpt>
      <trkpt lat="44.92001" lon="5.16408">
        <ele>1017</ele>
        <time>2021-05-23T14:15:22+02:00</time>
      </trkpt>
      <trkpt lat="44.91999" lon="5.16401">
        <ele>1018</ele>
        <time>2021-05-23T14:15:33+02:00</time>
      </trkpt>
      <trkpt lat="44.92001" lon="5.16394">
        <ele>1015</ele>
        <time>2021-05-23T14:15:48+02:00</time>
      </trkpt>
      <trkpt lat="44.92005" lon="5.16385">
        <ele>1010</ele>
        <time>2021-05-23T14:16:00+02:00</time>
      </trkpt>
      <trkpt lat="44.92008" lon="5.16376">
        <ele>1005</ele>
        <time>2021-05-23T14:16:12+02:00</time>
      </trkpt>
      <trkpt lat="44.92003" lon="5.16365">
        <ele>1009</ele>
        <time>2021-05-23T14:16:28+02:00</time>
      </trkpt>
      <trkpt lat="44.91999" lon="5.16351">
        <ele>1010</ele>
        <time>2021-05-23T14:16:42+02:00</time>
      </trkpt>
      <trkpt lat="44.91997" lon="5.16346">
        <ele>1011</ele>
        <time>2021-05-23T14:17:03+02:00</time>
      </trkpt>
      <trkpt lat="44.92001" lon="5.16342">
        <ele>1007</ele>
        <time>2021-05-23T14:17:18+02:00</time>
      </trkpt>
      <trkpt lat="44.92008" lon="5.16341">
        <ele>1001</ele>
        <time>2021-05-23T14:17:35+02:00</time>
      </trkpt>
      <trkpt lat="44.92009" lon="5.16336">
        <ele>1000</ele>
        <time>2021-05-23T14:17:59+02:00</time>
      </trkpt>
      <trkpt lat="44.92" lon="5.16325">
        <ele>1005</ele>
        <time>2021-05-23T14:18:11+02:00</time>
      </trkpt>
      <trkpt lat="44.91996" lon="5.16309">
        <ele>1005</ele>
        <time>2021-05-23T14:18:25+02:00</time>
      </trkpt>
      <trkpt lat="44.91995" lon="5.163">
        <ele>1005</ele>
        <time>2021-05-23T14:18:40+02:00</time>
      </trkpt>
      <trkpt lat="44.91995" lon="5.16292">
        <ele>1003</ele>
        <time>2021-05-23T14:18:52+02:00</time>
      </trkpt>
      <trkpt lat="44.91998" lon="5.16279">
        <ele>1000</ele>
        <time>2021-05-23T14:19:06+02:00</time>
      </trkpt>
      <trkpt lat="44.92" lon="5.16269">
        <ele>998</ele>
        <time>2021-05-23T14:19:20+02:00</time>
      </trkpt>
      <trkpt lat="44.91997" lon="5.16261">
        <ele>999</ele>
        <time>2021-05-23T14:19:36+02:00</time>
      </trkpt>
      <trkpt lat="44.91996" lon="5.1626">
        <ele>1000</ele>
        <time>2021-05-23T14:19:49+02:00</time>
      </trkpt>
      <trkpt lat="44.91992" lon="5.16265">
        <ele>1004</ele>
        <time>2021-05-23T14:20:12+02:00</time>
      </trkpt>
      <trkpt lat="44.92002" lon="5.16258">
        <ele>995</ele>
        <time>2021-05-23T14:20:32+02:00</time>
      </trkpt>
      <trkpt lat="44.92005" lon="5.16255">
        <ele>993</ele>
        <time>2021-05-23T14:20:43+02:00</time>
      </trkpt>
      <trkpt lat="44.92" lon="5.1626">
        <ele>997</ele>
        <time>2021-05-23T14:20:54+02:00</time>
      </trkpt>
      <trkpt lat="44.92002" lon="5.16253">
        <ele>995</ele>
        <time>2021-05-23T14:21:14+02:00</time>
      </trkpt>
      <trkpt lat="44.92004" lon="5.16243">
        <ele>992</ele>
        <time>2021-05-23T14:21:28+02:00</time>
      </trkpt>
      <trkpt lat="44.92007" lon="5.16235">
        <ele>989</ele>
        <time>2021-05-23T14:21:43+02:00</time>
      </trkpt>
      <trkpt lat="44.92008" lon="5.16227">
        <ele>987</ele>
        <time>2021-05-23T14:21:59+02:00</time>
      </trkpt>
      <trkpt lat="44.92011" lon="5.16212">
        <ele>983</ele>
        <time>2021-05-23T14:22:14+02:00</time>
      </trkpt>
      <trkpt lat="44.92009" lon="5.16195">
        <ele>984</ele>
        <time>2021-05-23T14:22:28+02:00</time>
      </trkpt>
      <trkpt lat="44.92008" lon="5.16191">
        <ele>985</ele>
        <time>2021-05-23T14:22:33+02:00</time>
      </trkpt>
      <trkpt lat="44.92009" lon="5.16182">
        <ele>983</ele>
        <time>2021-05-23T14:22:46+02:00</time>
      </trkpt>
      <trkpt lat="44.9201" lon="5.16175">
        <ele>982</ele>
        <time>2021-05-23T14:23:00+02:00</time>
      </trkpt>
      <trkpt lat="44.92012" lon="5.1616">
        <ele>981</ele>
        <time>2021-05-23T14:23:12+02:00</time>
      </trkpt>
      <trkpt lat="44.92014" lon="5.16145">
        <ele>980</ele>
        <time>2021-05-23T14:23:24+02:00</time>
      </trkpt>
      <trkpt lat="44.92015" lon="5.16132">
        <ele>981</ele>
        <time>2021-05-23T14:23:39+02:00</time>
      </trkpt>
      <trkpt lat="44.92019" lon="5.16115">
        <ele>982</ele>
        <time>2021-05-23T14:23:51+02:00</time>
      </trkpt>
      <trkpt lat="44.92025" lon="5.16103">
        <ele>981</ele>
        <time>2021-05-23T14:24:08+02:00</time>
      </trkpt>
      <trkpt lat="44.92033" lon="5.16094">
        <ele>977</ele>
        <time>2021-05-23T14:24:26+02:00</time>
      </trkpt>
      <trkpt lat="44.92035" lon="5.16095">
        <ele>975</ele>
        <time>2021-05-23T14:24:41+02:00</time>
      </trkpt>
      <trkpt lat="44.92032" lon="5.16095">
        <ele>978</ele>
        <time>2021-05-23T14:24:57+02:00</time>
      </trkpt>
      <trkpt lat="44.92034" lon="5.16095">
        <ele>976</ele>
        <time>2021-05-23T14:25:14+02:00</time>
      </trkpt>
      <trkpt lat="44.92035" lon="5.16095">
        <ele>975</ele>
        <time>2021-05-23T14:25:27+02:00</time>
      </trkpt>
      <trkpt lat="44.92035" lon="5.16092">
        <ele>976</ele>
        <time>2021-05-23T14:25:45+02:00</time>
      </trkpt>
      <trkpt lat="44.92033" lon="5.16099">
        <ele>975</ele>
        <time>2021-05-23T14:26:06+02:00</time>
      </trkpt>
      <trkpt lat="44.92038" lon="5.161">
        <ele>971</ele>
        <time>2021-05-23T14:26:23+02:00</time>
      </trkpt>
      <trkpt lat="44.92035" lon="5.16102">
        <ele>973</ele>
        <time>2021-05-23T14:26:45+02:00</time>
      </trkpt>
      <trkpt lat="44.92034" lon="5.16102">
        <ele>974</ele>
        <time>2021-05-23T14:27:08+02:00</time>
      </trkpt>
      <trkpt lat="44.92033" lon="5.16103">
        <ele>974</ele>
        <time>2021-05-23T14:27:31+02:00</time>
      </trkpt>
      <trkpt lat="44.92032" lon="5.16105">
        <ele>974</ele>
        <time>2021-05-23T14:27:47+02:00</time>
      </trkpt>
      <trkpt lat="44.9203" lon="5.16108">
        <ele>975</ele>
        <time>2021-05-23T14:28:10+02:00</time>
      </trkpt>
      <trkpt lat="44.9203" lon="5.16113">
        <ele>974</ele>
        <time>2021-05-23T14:28:25+02:00</time>
      </trkpt>
      <trkpt lat="44.92032" lon="5.16119">
        <ele>970</ele>
        <time>2021-05-23T14:28:39+02:00</time>
      </trkpt>
      <trkpt lat="44.92034" lon="5.16122">
        <ele>967</ele>
        <time>2021-05-23T14:28:58+02:00</time>
      </trkpt>
      <trkpt lat="44.92034" lon="5.16123">
        <ele>967</ele>
        <time>2021-05-23T14:29:21+02:00</time>
      </trkpt>
      <trkpt lat="44.92036" lon="5.16124">
        <ele>965</ele>
        <time>2021-05-23T14:29:36+02:00</time>
      </trkpt>
      <trkpt lat="44.92034" lon="5.16123">
        <ele>967</ele>
        <time>2021-05-23T14:30:00+02:00</time>
      </trkpt>
      <trkpt lat="44.92034" lon="5.16125">
        <ele>967</ele>
        <time>2021-05-23T14:30:21+02:00</time>
      </trkpt>
      <trkpt lat="44.92034" lon="5.16123">
        <ele>967</ele>
        <time>2021-05-23T14:30:50+02:00</time>
      </trkpt>
      <trkpt lat="44.92034" lon="5.16124">
        <ele>967</ele>
        <time>2021-05-23T14:31:19+02:00</time>
      </trkpt>
      <trkpt lat="44.92035" lon="5.16126">
        <ele>965</ele>
        <time>2021-05-23T14:31:46+02:00</time>
      </trkpt>
      <trkpt lat="44.92034" lon="5.16122">
        <ele>968</ele>
        <time>2021-05-23T14:32:08+02:00</time>
      </trkpt>
      <trkpt lat="44.92037" lon="5.16113">
        <ele>967</ele>
        <time>2021-05-23T14:32:27+02:00</time>
      </trkpt>
      <trkpt lat="44.92042" lon="5.16099">
        <ele>968</ele>
        <time>2021-05-23T14:32:42+02:00</time>
      </trkpt>
      <trkpt lat="44.92047" lon="5.16083">
        <ele>970</ele>
        <time>2021-05-23T14:32:57+02:00</time>
      </trkpt>
      <trkpt lat="44.92055" lon="5.1607">
        <ele>969</ele>
        <time>2021-05-23T14:33:16+02:00</time>
      </trkpt>
      <trkpt lat="44.92061" lon="5.16062">
        <ele>966</ele>
        <time>2021-05-23T14:33:32+02:00</time>
      </trkpt>
      <trkpt lat="44.9207" lon="5.1605">
        <ele>963</ele>
        <time>2021-05-23T14:33:48+02:00</time>
      </trkpt>
      <trkpt lat="44.92078" lon="5.16042">
        <ele>960</ele>
        <time>2021-05-23T14:34:01+02:00</time>
      </trkpt>
      <trkpt lat="44.92087" lon="5.16035">
        <ele>955</ele>
        <time>2021-05-23T14:34:14+02:00</time>
      </trkpt>
      <trkpt lat="44.92096" lon="5.16025">
        <ele>950</ele>
        <time>2021-05-23T14:34:27+02:00</time>
      </trkpt>
      <trkpt lat="44.92106" lon="5.16012">
        <ele>942</ele>
        <time>2021-05-23T14:34:40+02:00</time>
      </trkpt>
      <trkpt lat="44.92111" lon="5.16001">
        <ele>937</ele>
        <time>2021-05-23T14:34:53+02:00</time>
      </trkpt>
      <trkpt lat="44.92109" lon="5.15991">
        <ele>935</ele>
        <time>2021-05-23T14:35:04+02:00</time>
      </trkpt>
      <trkpt lat="44.92111" lon="5.15986">
        <ele>932</ele>
        <time>2021-05-23T14:35:18+02:00</time>
      </trkpt>
      <trkpt lat="44.92117" lon="5.15986">
        <ele>930</ele>
        <time>2021-05-23T14:35:31+02:00</time>
      </trkpt>
      <trkpt lat="44.92124" lon="5.15984">
        <ele>927</ele>
        <time>2021-05-23T14:35:46+02:00</time>
      </trkpt>
      <trkpt lat="44.92133" lon="5.15978">
        <ele>922</ele>
        <time>2021-05-23T14:36:01+02:00</time>
      </trkpt>
      <trkpt lat="44.92131" lon="5.1598">
        <ele>923</ele>
        <time>2021-05-23T14:36:15+02:00</time>
      </trkpt>
      <trkpt lat="44.92139" lon="5.15978">
        <ele>919</ele>
        <time>2021-05-23T14:36:31+02:00</time>
      </trkpt>
      <trkpt lat="44.92146" lon="5.15974">
        <ele>916</ele>
        <time>2021-05-23T14:36:46+02:00</time>
      </trkpt>
      <trkpt lat="44.92147" lon="5.1597">
        <ele>914</ele>
        <time>2021-05-23T14:36:57+02:00</time>
      </trkpt>
      <trkpt lat="44.92145" lon="5.15969">
        <ele>914</ele>
        <time>2021-05-23T14:37:26+02:00</time>
      </trkpt>
      <trkpt lat="44.92149" lon="5.15972">
        <ele>915</ele>
        <time>2021-05-23T14:38:00+02:00</time>
      </trkpt>
      <trkpt lat="44.9215" lon="5.15972">
        <ele>914</ele>
        <time>2021-05-23T14:38:15+02:00</time>
      </trkpt>
      <trkpt lat="44.92149" lon="5.15973">
        <ele>915</ele>
        <time>2021-05-23T14:38:25+02:00</time>
      </trkpt>
      <trkpt lat="44.92148" lon="5.15975">
        <ele>916</ele>
        <time>2021-05-23T14:38:46+02:00</time>
      </trkpt>
      <trkpt lat="44.92147" lon="5.15971">
        <ele>914</ele>
        <time>2021-05-23T14:39:03+02:00</time>
      </trkpt>
      <trkpt lat="44.92152" lon="5.15967">
        <ele>912</ele>
        <time>2021-05-23T14:39:15+02:00</time>
      </trkpt>
      <trkpt lat="44.92154" lon="5.15964">
        <ele>910</ele>
        <time>2021-05-23T14:39:18+02:00</time>
      </trkpt>
      <trkpt lat="44.92165" lon="5.15964">
        <ele>908</ele>
        <time>2021-05-23T14:39:31+02:00</time>
      </trkpt>
      <trkpt lat="44.92174" lon="5.15958">
        <ele>905</ele>
        <time>2021-05-23T14:39:42+02:00</time>
      </trkpt>
      <trkpt lat="44.92181" lon="5.15954">
        <ele>903</ele>
        <time>2021-05-23T14:39:51+02:00</time>
      </trkpt>
      <trkpt lat="44.922" lon="5.15956">
        <ele>904</ele>
        <time>2021-05-23T14:40:09+02:00</time>
      </trkpt>
      <trkpt lat="44.92211" lon="5.15949">
        <ele>903</ele>
        <time>2021-05-23T14:40:23+02:00</time>
      </trkpt>
      <trkpt lat="44.92216" lon="5.15946">
        <ele>903</ele>
        <time>2021-05-23T14:40:43+02:00</time>
      </trkpt>
      <trkpt lat="44.92224" lon="5.15948">
        <ele>903</ele>
        <time>2021-05-23T14:40:57+02:00</time>
      </trkpt>
      <trkpt lat="44.92229" lon="5.15951">
        <ele>903</ele>
        <time>2021-05-23T14:41:12+02:00</time>
      </trkpt>
      <trkpt lat="44.92234" lon="5.15958">
        <ele>902</ele>
        <time>2021-05-23T14:41:28+02:00</time>
      </trkpt>
      <trkpt lat="44.92239" lon="5.15957">
        <ele>901</ele>
        <time>2021-05-23T14:41:44+02:00</time>
      </trkpt>
      <trkpt lat="44.92242" lon="5.15964">
        <ele>901</ele>
        <time>2021-05-23T14:42:03+02:00</time>
      </trkpt>
      <trkpt lat="44.92246" lon="5.15963">
        <ele>900</ele>
        <time>2021-05-23T14:42:19+02:00</time>
      </trkpt>
      <trkpt lat="44.92252" lon="5.15966">
        <ele>897</ele>
        <time>2021-05-23T14:42:34+02:00</time>
      </trkpt>
      <trkpt lat="44.92255" lon="5.15972">
        <ele>896</ele>
        <time>2021-05-23T14:42:51+02:00</time>
      </trkpt>
      <trkpt lat="44.92256" lon="5.1598">
        <ele>893</ele>
        <time>2021-05-23T14:43:10+02:00</time>
      </trkpt>
      <trkpt lat="44.92258" lon="5.15982">
        <ele>892</ele>
        <time>2021-05-23T14:43:28+02:00</time>
      </trkpt>
      <trkpt lat="44.92258" lon="5.15984">
        <ele>891</ele>
        <time>2021-05-23T14:43:48+02:00</time>
      </trkpt>
      <trkpt lat="44.92263" lon="5.15982">
        <ele>889</ele>
        <time>2021-05-23T14:44:08+02:00</time>
      </trkpt>
      <trkpt lat="44.92267" lon="5.15984">
        <ele>887</ele>
        <time>2021-05-23T14:44:23+02:00</time>
      </trkpt>
      <trkpt lat="44.92271" lon="5.15987">
        <ele>884</ele>
        <time>2021-05-23T14:44:42+02:00</time>
      </trkpt>
      <trkpt lat="44.92274" lon="5.15989">
        <ele>883</ele>
        <time>2021-05-23T14:44:59+02:00</time>
      </trkpt>
      <trkpt lat="44.92278" lon="5.1599">
        <ele>881</ele>
        <time>2021-05-23T14:45:16+02:00</time>
      </trkpt>
      <trkpt lat="44.92282" lon="5.15995">
        <ele>879</ele>
        <time>2021-05-23T14:45:33+02:00</time>
      </trkpt>
      <trkpt lat="44.92287" lon="5.15997">
        <ele>875</ele>
        <time>2021-05-23T14:45:51+02:00</time>
      </trkpt>
      <trkpt lat="44.92293" lon="5.16003">
        <ele>872</ele>
        <time>2021-05-23T14:46:08+02:00</time>
      </trkpt>
      <trkpt lat="44.92298" lon="5.16001">
        <ele>868</ele>
        <time>2021-05-23T14:46:24+02:00</time>
      </trkpt>
      <trkpt lat="44.92304" lon="5.16006">
        <ele>865</ele>
        <time>2021-05-23T14:46:39+02:00</time>
      </trkpt>
      <trkpt lat="44.92313" lon="5.16015">
        <ele>860</ele>
        <time>2021-05-23T14:46:57+02:00</time>
      </trkpt>
      <trkpt lat="44.92323" lon="5.16019">
        <ele>855</ele>
        <time>2021-05-23T14:47:14+02:00</time>
      </trkpt>
      <trkpt lat="44.92332" lon="5.16024">
        <ele>852</ele>
        <time>2021-05-23T14:47:31+02:00</time>
      </trkpt>
      <trkpt lat="44.92343" lon="5.1603">
        <ele>847</ele>
        <time>2021-05-23T14:47:49+02:00</time>
      </trkpt>
      <trkpt lat="44.9235" lon="5.16035">
        <ele>844</ele>
        <time>2021-05-23T14:48:03+02:00</time>
      </trkpt>
      <trkpt lat="44.92363" lon="5.16041">
        <ele>840</ele>
        <time>2021-05-23T14:48:20+02:00</time>
      </trkpt>
      <trkpt lat="44.92368" lon="5.16045">
        <ele>838</ele>
        <time>2021-05-23T14:48:39+02:00</time>
      </trkpt>
      <trkpt lat="44.92376" lon="5.1605">
        <ele>836</ele>
        <time>2021-05-23T14:48:54+02:00</time>
      </trkpt>
      <trkpt lat="44.92388" lon="5.16055">
        <ele>833</ele>
        <time>2021-05-23T14:49:12+02:00</time>
      </trkpt>
      <trkpt lat="44.92395" lon="5.16062">
        <ele>830</ele>
        <time>2021-05-23T14:49:28+02:00</time>
      </trkpt>
      <trkpt lat="44.92403" lon="5.16069">
        <ele>828</ele>
        <time>2021-05-23T14:49:42+02:00</time>
      </trkpt>
      <trkpt lat="44.92415" lon="5.16076">
        <ele>825</ele>
        <time>2021-05-23T14:49:57+02:00</time>
      </trkpt>
      <trkpt lat="44.92424" lon="5.16082">
        <ele>823</ele>
        <time>2021-05-23T14:50:12+02:00</time>
      </trkpt>
      <trkpt lat="44.92438" lon="5.16089">
        <ele>818</ele>
        <time>2021-05-23T14:50:27+02:00</time>
      </trkpt>
      <trkpt lat="44.92449" lon="5.16093">
        <ele>815</ele>
        <time>2021-05-23T14:50:40+02:00</time>
      </trkpt>
      <trkpt lat="44.92458" lon="5.16097">
        <ele>813</ele>
        <time>2021-05-23T14:50:57+02:00</time>
      </trkpt>
      <trkpt lat="44.92461" lon="5.16103">
        <ele>813</ele>
        <time>2021-05-23T14:51:09+02:00</time>
      </trkpt>
      <trkpt lat="44.92458" lon="5.16113">
        <ele>814</ele>
        <time>2021-05-23T14:51:23+02:00</time>
      </trkpt>
      <trkpt lat="44.9245" lon="5.1612">
        <ele>814</ele>
        <time>2021-05-23T14:51:38+02:00</time>
      </trkpt>
      <trkpt lat="44.92442" lon="5.16127">
        <ele>814</ele>
        <time>2021-05-23T14:51:52+02:00</time>
      </trkpt>
      <trkpt lat="44.92435" lon="5.16133">
        <ele>813</ele>
        <time>2021-05-23T14:52:04+02:00</time>
      </trkpt>
      <trkpt lat="44.92426" lon="5.16142">
        <ele>811</ele>
        <time>2021-05-23T14:52:19+02:00</time>
      </trkpt>
      <trkpt lat="44.92422" lon="5.16145">
        <ele>810</ele>
        <time>2021-05-23T14:52:29+02:00</time>
      </trkpt>
      <trkpt lat="44.92416" lon="5.1615">
        <ele>809</ele>
        <time>2021-05-23T14:52:40+02:00</time>
      </trkpt>
      <trkpt lat="44.92405" lon="5.16156">
        <ele>808</ele>
        <time>2021-05-23T14:52:53+02:00</time>
      </trkpt>
      <trkpt lat="44.92392" lon="5.1616">
        <ele>808</ele>
        <time>2021-05-23T14:53:05+02:00</time>
      </trkpt>
      <trkpt lat="44.92378" lon="5.16167">
        <ele>807</ele>
        <time>2021-05-23T14:53:17+02:00</time>
      </trkpt>
      <trkpt lat="44.92359" lon="5.16169">
        <ele>808</ele>
        <time>2021-05-23T14:53:33+02:00</time>
      </trkpt>
      <trkpt lat="44.92348" lon="5.16169">
        <ele>810</ele>
        <time>2021-05-23T14:53:47+02:00</time>
      </trkpt>
      <trkpt lat="44.92337" lon="5.16168">
        <ele>811</ele>
        <time>2021-05-23T14:54:01+02:00</time>
      </trkpt>
      <trkpt lat="44.92327" lon="5.1617">
        <ele>812</ele>
        <time>2021-05-23T14:54:14+02:00</time>
      </trkpt>
      <trkpt lat="44.92321" lon="5.1617">
        <ele>813</ele>
        <time>2021-05-23T14:54:29+02:00</time>
      </trkpt>
      <trkpt lat="44.92312" lon="5.16174">
        <ele>813</ele>
        <time>2021-05-23T14:54:44+02:00</time>
      </trkpt>
      <trkpt lat="44.92308" lon="5.16184">
        <ele>811</ele>
        <time>2021-05-23T14:55:02+02:00</time>
      </trkpt>
      <trkpt lat="44.92313" lon="5.16194">
        <ele>807</ele>
        <time>2021-05-23T14:55:17+02:00</time>
      </trkpt>
      <trkpt lat="44.92315" lon="5.16202">
        <ele>805</ele>
        <time>2021-05-23T14:55:30+02:00</time>
      </trkpt>
      <trkpt lat="44.92319" lon="5.16215">
        <ele>802</ele>
        <time>2021-05-23T14:55:47+02:00</time>
      </trkpt>
      <trkpt lat="44.92326" lon="5.16224">
        <ele>798</ele>
        <time>2021-05-23T14:56:00+02:00</time>
      </trkpt>
      <trkpt lat="44.92337" lon="5.16233">
        <ele>794</ele>
        <time>2021-05-23T14:56:13+02:00</time>
      </trkpt>
      <trkpt lat="44.92347" lon="5.16242">
        <ele>792</ele>
        <time>2021-05-23T14:56:27+02:00</time>
      </trkpt>
      <trkpt lat="44.92358" lon="5.16252">
        <ele>788</ele>
        <time>2021-05-23T14:56:41+02:00</time>
      </trkpt>
      <trkpt lat="44.92359" lon="5.16253">
        <ele>788</ele>
        <time>2021-05-23T14:56:42+02:00</time>
      </trkpt>
      <trkpt lat="44.92367" lon="5.16262">
        <ele>787</ele>
        <time>2021-05-23T14:56:55+02:00</time>
      </trkpt>
      <trkpt lat="44.92377" lon="5.16277">
        <ele>787</ele>
        <time>2021-05-23T14:57:10+02:00</time>
      </trkpt>
      <trkpt lat="44.92388" lon="5.1629">
        <ele>785</ele>
        <time>2021-05-23T14:57:25+02:00</time>
      </trkpt>
      <trkpt lat="44.92395" lon="5.16301">
        <ele>784</ele>
        <time>2021-05-23T14:57:38+02:00</time>
      </trkpt>
      <trkpt lat="44.92401" lon="5.16309">
        <ele>784</ele>
        <time>2021-05-23T14:57:49+02:00</time>
      </trkpt>
      <trkpt lat="44.92403" lon="5.16321">
        <ele>784</ele>
        <time>2021-05-23T14:58:02+02:00</time>
      </trkpt>
      <trkpt lat="44.92406" lon="5.16336">
        <ele>786</ele>
        <time>2021-05-23T14:58:17+02:00</time>
      </trkpt>
      <trkpt lat="44.92409" lon="5.16343">
        <ele>785</ele>
        <time>2021-05-23T14:58:34+02:00</time>
      </trkpt>
      <trkpt lat="44.92413" lon="5.16336">
        <ele>783</ele>
        <time>2021-05-23T14:58:47+02:00</time>
      </trkpt>
      <trkpt lat="44.92416" lon="5.16333">
        <ele>781</ele>
        <time>2021-05-23T14:59:00+02:00</time>
      </trkpt>
      <trkpt lat="44.92412" lon="5.16327">
        <ele>782</ele>
        <time>2021-05-23T14:59:15+02:00</time>
      </trkpt>
      <trkpt lat="44.92414" lon="5.16328">
        <ele>781</ele>
        <time>2021-05-23T14:59:33+02:00</time>
      </trkpt>
      <trkpt lat="44.92413" lon="5.16324">
        <ele>781</ele>
        <time>2021-05-23T14:59:48+02:00</time>
      </trkpt>
      <trkpt lat="44.92419" lon="5.16325">
        <ele>779</ele>
        <time>2021-05-23T15:00:02+02:00</time>
      </trkpt>
      <trkpt lat="44.92426" lon="5.16313">
        <ele>774</ele>
        <time>2021-05-23T15:00:18+02:00</time>
      </trkpt>
      <trkpt lat="44.92424" lon="5.16321">
        <ele>776</ele>
        <time>2021-05-23T15:00:31+02:00</time>
      </trkpt>
      <trkpt lat="44.92418" lon="5.16337">
        <ele>781</ele>
        <time>2021-05-23T15:00:44+02:00</time>
      </trkpt>
      <trkpt lat="44.92416" lon="5.16345">
        <ele>782</ele>
        <time>2021-05-23T15:00:58+02:00</time>
      </trkpt>
      <trkpt lat="44.92418" lon="5.16347">
        <ele>781</ele>
        <time>2021-05-23T15:01:24+02:00</time>
      </trkpt>
      <trkpt lat="44.92417" lon="5.1635">
        <ele>782</ele>
        <time>2021-05-23T15:01:51+02:00</time>
      </trkpt>
      <trkpt lat="44.92415" lon="5.16354">
        <ele>783</ele>
        <time>2021-05-23T15:02:15+02:00</time>
      </trkpt>
      <trkpt lat="44.92413" lon="5.16353">
        <ele>784</ele>
        <time>2021-05-23T15:02:43+02:00</time>
      </trkpt>
      <trkpt lat="44.92416" lon="5.16352">
        <ele>783</ele>
        <time>2021-05-23T15:03:02+02:00</time>
      </trkpt>
      <trkpt lat="44.92419" lon="5.16353">
        <ele>782</ele>
        <time>2021-05-23T15:03:28+02:00</time>
      </trkpt>
      <trkpt lat="44.92418" lon="5.16351">
        <ele>782</ele>
        <time>2021-05-23T15:04:00+02:00</time>
      </trkpt>
      <trkpt lat="44.92415" lon="5.1635">
        <ele>783</ele>
        <time>2021-05-23T15:04:25+02:00</time>
      </trkpt>
      <trkpt lat="44.92411" lon="5.16347">
        <ele>784</ele>
        <time>2021-05-23T15:04:43+02:00</time>
      </trkpt>
      <trkpt lat="44.92409" lon="5.16346">
        <ele>785</ele>
        <time>2021-05-23T15:05:11+02:00</time>
      </trkpt>
      <trkpt lat="44.92408" lon="5.16346">
        <ele>785</ele>
        <time>2021-05-23T15:05:39+02:00</time>
      </trkpt>
      <trkpt lat="44.92406" lon="5.1635">
        <ele>786</ele>
        <time>2021-05-23T15:06:13+02:00</time>
      </trkpt>
      <trkpt lat="44.92409" lon="5.1635">
        <ele>785</ele>
        <time>2021-05-23T15:06:39+02:00</time>
      </trkpt>
      <trkpt lat="44.92411" lon="5.16353">
        <ele>785</ele>
        <time>2021-05-23T15:06:57+02:00</time>
      </trkpt>
      <trkpt lat="44.92419" lon="5.16368">
        <ele>782</ele>
        <time>2021-05-23T15:07:12+02:00</time>
      </trkpt>
      <trkpt lat="44.92424" lon="5.1637">
        <ele>781</ele>
        <time>2021-05-23T15:07:26+02:00</time>
      </trkpt>
      <trkpt lat="44.92433" lon="5.16374">
        <ele>777</ele>
        <time>2021-05-23T15:07:40+02:00</time>
      </trkpt>
      <trkpt lat="44.92449" lon="5.16375">
        <ele>772</ele>
        <time>2021-05-23T15:07:56+02:00</time>
      </trkpt>
      <trkpt lat="44.92459" lon="5.16375">
        <ele>769</ele>
        <time>2021-05-23T15:08:13+02:00</time>
      </trkpt>
      <trkpt lat="44.92462" lon="5.16376">
        <ele>768</ele>
        <time>2021-05-23T15:08:28+02:00</time>
      </trkpt>
      <trkpt lat="44.92466" lon="5.16376">
        <ele>767</ele>
        <time>2021-05-23T15:08:44+02:00</time>
      </trkpt>
      <trkpt lat="44.92464" lon="5.16378">
        <ele>767</ele>
        <time>2021-05-23T15:09:05+02:00</time>
      </trkpt>
      <trkpt lat="44.92466" lon="5.16377">
        <ele>767</ele>
        <time>2021-05-23T15:09:20+02:00</time>
      </trkpt>
      <trkpt lat="44.92466" lon="5.16376">
        <ele>767</ele>
        <time>2021-05-23T15:09:37+02:00</time>
      </trkpt>
      <trkpt lat="44.92473" lon="5.16375">
        <ele>764</ele>
        <time>2021-05-23T15:09:51+02:00</time>
      </trkpt>
      <trkpt lat="44.92482" lon="5.16383">
        <ele>763</ele>
        <time>2021-05-23T15:10:06+02:00</time>
      </trkpt>
      <trkpt lat="44.92482" lon="5.16397">
        <ele>764</ele>
        <time>2021-05-23T15:10:20+02:00</time>
      </trkpt>
      <trkpt lat="44.92485" lon="5.16409">
        <ele>764</ele>
        <time>2021-05-23T15:10:34+02:00</time>
      </trkpt>
      <trkpt lat="44.92488" lon="5.16415">
        <ele>763</ele>
        <time>2021-05-23T15:10:46+02:00</time>
      </trkpt>
      <trkpt lat="44.92502" lon="5.16413">
        <ele>757</ele>
        <time>2021-05-23T15:11:00+02:00</time>
      </trkpt>
      <trkpt lat="44.92508" lon="5.16403">
        <ele>755</ele>
        <time>2021-05-23T15:11:14+02:00</time>
      </trkpt>
      <trkpt lat="44.92517" lon="5.16396">
        <ele>751</ele>
        <time>2021-05-23T15:11:28+02:00</time>
      </trkpt>
      <trkpt lat="44.92524" lon="5.16387">
        <ele>747</ele>
        <time>2021-05-23T15:11:42+02:00</time>
      </trkpt>
      <trkpt lat="44.92535" lon="5.16376">
        <ele>742</ele>
        <time>2021-05-23T15:11:58+02:00</time>
      </trkpt>
      <trkpt lat="44.92549" lon="5.16369">
        <ele>737</ele>
        <time>2021-05-23T15:12:15+02:00</time>
      </trkpt>
      <trkpt lat="44.92555" lon="5.16379">
        <ele>740</ele>
        <time>2021-05-23T15:12:30+02:00</time>
      </trkpt>
      <trkpt lat="44.92565" lon="5.16388">
        <ele>744</ele>
        <time>2021-05-23T15:12:43+02:00</time>
      </trkpt>
      <trkpt lat="44.92572" lon="5.16394">
        <ele>746</ele>
        <time>2021-05-23T15:12:55+02:00</time>
      </trkpt>
      <trkpt lat="44.92576" lon="5.16402">
        <ele>749</ele>
        <time>2021-05-23T15:13:09+02:00</time>
      </trkpt>
      <trkpt lat="44.92579" lon="5.16407">
        <ele>751</ele>
        <time>2021-05-23T15:13:24+02:00</time>
      </trkpt>
      <trkpt lat="44.92575" lon="5.16406">
        <ele>750</ele>
        <time>2021-05-23T15:13:40+02:00</time>
      </trkpt>
      <trkpt lat="44.92582" lon="5.16409">
        <ele>751</ele>
        <time>2021-05-23T15:13:59+02:00</time>
      </trkpt>
      <trkpt lat="44.92593" lon="5.16417">
        <ele>752</ele>
        <time>2021-05-23T15:14:13+02:00</time>
      </trkpt>
      <trkpt lat="44.92598" lon="5.16424">
        <ele>754</ele>
        <time>2021-05-23T15:14:28+02:00</time>
      </trkpt>
      <trkpt lat="44.92602" lon="5.16428">
        <ele>754</ele>
        <time>2021-05-23T15:14:45+02:00</time>
      </trkpt>
      <trkpt lat="44.92609" lon="5.16435">
        <ele>755</ele>
        <time>2021-05-23T15:14:58+02:00</time>
      </trkpt>
      <trkpt lat="44.92621" lon="5.16442">
        <ele>754</ele>
        <time>2021-05-23T15:15:13+02:00</time>
      </trkpt>
      <trkpt lat="44.92632" lon="5.16447">
        <ele>752</ele>
        <time>2021-05-23T15:15:26+02:00</time>
      </trkpt>
      <trkpt lat="44.92645" lon="5.16457">
        <ele>751</ele>
        <time>2021-05-23T15:15:39+02:00</time>
      </trkpt>
      <trkpt lat="44.92661" lon="5.16473">
        <ele>751</ele>
        <time>2021-05-23T15:15:56+02:00</time>
      </trkpt>
      <trkpt lat="44.92671" lon="5.16488">
        <ele>754</ele>
        <time>2021-05-23T15:16:11+02:00</time>
      </trkpt>
      <trkpt lat="44.92675" lon="5.16497">
        <ele>756</ele>
        <time>2021-05-23T15:16:26+02:00</time>
      </trkpt>
      <trkpt lat="44.9268" lon="5.16498">
        <ele>756</ele>
        <time>2021-05-23T15:16:45+02:00</time>
      </trkpt>
      <trkpt lat="44.92679" lon="5.16502">
        <ele>757</ele>
        <time>2021-05-23T15:16:57+02:00</time>
      </trkpt>
      <trkpt lat="44.92684" lon="5.16509">
        <ele>758</ele>
        <time>2021-05-23T15:17:12+02:00</time>
      </trkpt>
      <trkpt lat="44.9269" lon="5.16515">
        <ele>759</ele>
        <time>2021-05-23T15:17:25+02:00</time>
      </trkpt>
      <trkpt lat="44.92691" lon="5.16516">
        <ele>759</ele>
        <time>2021-05-23T15:17:49+02:00</time>
      </trkpt>
      <trkpt lat="44.92693" lon="5.16523">
        <ele>761</ele>
        <time>2021-05-23T15:18:05+02:00</time>
      </trkpt>
      <trkpt lat="44.92693" lon="5.16527">
        <ele>762</ele>
        <time>2021-05-23T15:18:19+02:00</time>
      </trkpt>
      <trkpt lat="44.92696" lon="5.1653">
        <ele>762</ele>
        <time>2021-05-23T15:18:36+02:00</time>
      </trkpt>
      <trkpt lat="44.92694" lon="5.16538">
        <ele>764</ele>
        <time>2021-05-23T15:18:55+02:00</time>
      </trkpt>
      <trkpt lat="44.92696" lon="5.16544">
        <ele>765</ele>
        <time>2021-05-23T15:19:10+02:00</time>
      </trkpt>
      <trkpt lat="44.92694" lon="5.16552">
        <ele>768</ele>
        <time>2021-05-23T15:19:26+02:00</time>
      </trkpt>
      <trkpt lat="44.92693" lon="5.16558">
        <ele>769</ele>
        <time>2021-05-23T15:19:43+02:00</time>
      </trkpt>
      <trkpt lat="44.92687" lon="5.16564">
        <ele>771</ele>
        <time>2021-05-23T15:19:58+02:00</time>
      </trkpt>
      <trkpt lat="44.92684" lon="5.16563">
        <ele>772</ele>
        <time>2021-05-23T15:20:14+02:00</time>
      </trkpt>
      <trkpt lat="44.92679" lon="5.1657">
        <ele>774</ele>
        <time>2021-05-23T15:20:29+02:00</time>
      </trkpt>
      <trkpt lat="44.92669" lon="5.16569">
        <ele>778</ele>
        <time>2021-05-23T15:20:46+02:00</time>
      </trkpt>
      <trkpt lat="44.92665" lon="5.16574">
        <ele>780</ele>
        <time>2021-05-23T15:21:05+02:00</time>
      </trkpt>
      <trkpt lat="44.92656" lon="5.16577">
        <ele>783</ele>
        <time>2021-05-23T15:21:22+02:00</time>
      </trkpt>
      <trkpt lat="44.9265" lon="5.16577">
        <ele>784</ele>
        <time>2021-05-23T15:21:38+02:00</time>
      </trkpt>
      <trkpt lat="44.9265" lon="5.16577">
        <ele>785</ele>
        <time>2021-05-23T15:21:54+02:00</time>
      </trkpt>
      <trkpt lat="44.92652" lon="5.16576">
        <ele>784</ele>
        <time>2021-05-23T15:22:15+02:00</time>
      </trkpt>
      <trkpt lat="44.92651" lon="5.16575">
        <ele>784</ele>
        <time>2021-05-23T15:22:30+02:00</time>
      </trkpt>
      <trkpt lat="44.92649" lon="5.16572">
        <ele>784</ele>
        <time>2021-05-23T15:22:50+02:00</time>
      </trkpt>
      <trkpt lat="44.92647" lon="5.16571">
        <ele>784</ele>
        <time>2021-05-23T15:23:13+02:00</time>
      </trkpt>
      <trkpt lat="44.92648" lon="5.16572">
        <ele>784</ele>
        <time>2021-05-23T15:23:42+02:00</time>
      </trkpt>
      <trkpt lat="44.9265" lon="5.16578">
        <ele>785</ele>
        <time>2021-05-23T15:24:00+02:00</time>
      </trkpt>
      <trkpt lat="44.92647" lon="5.16593">
        <ele>787</ele>
        <time>2021-05-23T15:24:14+02:00</time>
      </trkpt>
      <trkpt lat="44.92644" lon="5.16606">
        <ele>788</ele>
        <time>2021-05-23T15:24:27+02:00</time>
      </trkpt>
      <trkpt lat="44.9264" lon="5.16622">
        <ele>788</ele>
        <time>2021-05-23T15:24:41+02:00</time>
      </trkpt>
      <trkpt lat="44.92628" lon="5.16635">
        <ele>791</ele>
        <time>2021-05-23T15:24:57+02:00</time>
      </trkpt>
      <trkpt lat="44.92622" lon="5.16646">
        <ele>792</ele>
        <time>2021-05-23T15:25:11+02:00</time>
      </trkpt>
      <trkpt lat="44.92616" lon="5.1666">
        <ele>793</ele>
        <time>2021-05-23T15:25:22+02:00</time>
      </trkpt>
      <trkpt lat="44.92611" lon="5.16673">
        <ele>793</ele>
        <time>2021-05-23T15:25:34+02:00</time>
      </trkpt>
      <trkpt lat="44.92604" lon="5.16683">
        <ele>793</ele>
        <time>2021-05-23T15:25:46+02:00</time>
      </trkpt>
      <trkpt lat="44.92593" lon="5.167">
        <ele>795</ele>
        <time>2021-05-23T15:26:01+02:00</time>
      </trkpt>
      <trkpt lat="44.92589" lon="5.16709">
        <ele>795</ele>
        <time>2021-05-23T15:26:20+02:00</time>
      </trkpt>
      <trkpt lat="44.92583" lon="5.1673">
        <ele>794</ele>
        <time>2021-05-23T15:26:36+02:00</time>
      </trkpt>
      <trkpt lat="44.92576" lon="5.1675">
        <ele>793</ele>
        <time>2021-05-23T15:26:50+02:00</time>
      </trkpt>
      <trkpt lat="44.92571" lon="5.16763">
        <ele>793</ele>
        <time>2021-05-23T15:27:03+02:00</time>
      </trkpt>
      <trkpt lat="44.92561" lon="5.16775">
        <ele>795</ele>
        <time>2021-05-23T15:27:17+02:00</time>
      </trkpt>
      <trkpt lat="44.9256" lon="5.16781">
        <ele>795</ele>
        <time>2021-05-23T15:27:31+02:00</time>
      </trkpt>
      <trkpt lat="44.9256" lon="5.16792">
        <ele>795</ele>
        <time>2021-05-23T15:27:46+02:00</time>
      </trkpt>
      <trkpt lat="44.92565" lon="5.16801">
        <ele>793</ele>
        <time>2021-05-23T15:28:02+02:00</time>
      </trkpt>
      <trkpt lat="44.92575" lon="5.16809">
        <ele>791</ele>
        <time>2021-05-23T15:28:18+02:00</time>
      </trkpt>
      <trkpt lat="44.92582" lon="5.1681">
        <ele>789</ele>
        <time>2021-05-23T15:28:35+02:00</time>
      </trkpt>
      <trkpt lat="44.92593" lon="5.1682">
        <ele>790</ele>
        <time>2021-05-23T15:28:53+02:00</time>
      </trkpt>
      <trkpt lat="44.92608" lon="5.16821">
        <ele>787</ele>
        <time>2021-05-23T15:29:08+02:00</time>
      </trkpt>
      <trkpt lat="44.92626" lon="5.16829">
        <ele>785</ele>
        <time>2021-05-23T15:29:25+02:00</time>
      </trkpt>
      <trkpt lat="44.92634" lon="5.16834">
        <ele>786</ele>
        <time>2021-05-23T15:29:33+02:00</time>
      </trkpt>
      <trkpt lat="44.92648" lon="5.16841">
        <ele>786</ele>
        <time>2021-05-23T15:29:46+02:00</time>
      </trkpt>
      <trkpt lat="44.92653" lon="5.16845">
        <ele>787</ele>
        <time>2021-05-23T15:29:52+02:00</time>
      </trkpt>
      <trkpt lat="44.92664" lon="5.16848">
        <ele>786</ele>
        <time>2021-05-23T15:30:04+02:00</time>
      </trkpt>
      <trkpt lat="44.92675" lon="5.16848">
        <ele>784</ele>
        <time>2021-05-23T15:30:18+02:00</time>
      </trkpt>
      <trkpt lat="44.92694" lon="5.16849">
        <ele>782</ele>
        <time>2021-05-23T15:30:34+02:00</time>
      </trkpt>
      <trkpt lat="44.92709" lon="5.16846">
        <ele>779</ele>
        <time>2021-05-23T15:30:49+02:00</time>
      </trkpt>
      <trkpt lat="44.92721" lon="5.16849">
        <ele>779</ele>
        <time>2021-05-23T15:31:02+02:00</time>
      </trkpt>
      <trkpt lat="44.92733" lon="5.16854">
        <ele>780</ele>
        <time>2021-05-23T15:31:16+02:00</time>
      </trkpt>
      <trkpt lat="44.92747" lon="5.16856">
        <ele>780</ele>
        <time>2021-05-23T15:31:30+02:00</time>
      </trkpt>
      <trkpt lat="44.92757" lon="5.16854">
        <ele>779</ele>
        <time>2021-05-23T15:31:43+02:00</time>
      </trkpt>
      <trkpt lat="44.92771" lon="5.16854">
        <ele>778</ele>
        <time>2021-05-23T15:31:57+02:00</time>
      </trkpt>
      <trkpt lat="44.92785" lon="5.16855">
        <ele>777</ele>
        <time>2021-05-23T15:32:14+02:00</time>
      </trkpt>
      <trkpt lat="44.92798" lon="5.16851">
        <ele>775</ele>
        <time>2021-05-23T15:32:29+02:00</time>
      </trkpt>
      <trkpt lat="44.92812" lon="5.16848">
        <ele>773</ele>
        <time>2021-05-23T15:32:44+02:00</time>
      </trkpt>
      <trkpt lat="44.92823" lon="5.16844">
        <ele>770</ele>
        <time>2021-05-23T15:32:58+02:00</time>
      </trkpt>
      <trkpt lat="44.92833" lon="5.16836">
        <ele>768</ele>
        <time>2021-05-23T15:33:14+02:00</time>
      </trkpt>
      <trkpt lat="44.9284" lon="5.16833">
        <ele>766</ele>
        <time>2021-05-23T15:33:30+02:00</time>
      </trkpt>
      <trkpt lat="44.92847" lon="5.16832">
        <ele>765</ele>
        <time>2021-05-23T15:33:46+02:00</time>
      </trkpt>
      <trkpt lat="44.92855" lon="5.16829">
        <ele>763</ele>
        <time>2021-05-23T15:34:00+02:00</time>
      </trkpt>
      <trkpt lat="44.92864" lon="5.16822">
        <ele>760</ele>
        <time>2021-05-23T15:34:14+02:00</time>
      </trkpt>
      <trkpt lat="44.92874" lon="5.16819">
        <ele>758</ele>
        <time>2021-05-23T15:34:29+02:00</time>
      </trkpt>
      <trkpt lat="44.92884" lon="5.16811">
        <ele>756</ele>
        <time>2021-05-23T15:34:44+02:00</time>
      </trkpt>
      <trkpt lat="44.92891" lon="5.16795">
        <ele>753</ele>
        <time>2021-05-23T15:35:00+02:00</time>
      </trkpt>
      <trkpt lat="44.92898" lon="5.16777">
        <ele>749</ele>
        <time>2021-05-23T15:35:17+02:00</time>
      </trkpt>
      <trkpt lat="44.92906" lon="5.16765">
        <ele>745</ele>
        <time>2021-05-23T15:35:33+02:00</time>
      </trkpt>
      <trkpt lat="44.92917" lon="5.1675">
        <ele>742</ele>
        <time>2021-05-23T15:35:51+02:00</time>
      </trkpt>
      <trkpt lat="44.92924" lon="5.16741">
        <ele>739</ele>
        <time>2021-05-23T15:36:03+02:00</time>
      </trkpt>
      <trkpt lat="44.92935" lon="5.16733">
        <ele>737</ele>
        <time>2021-05-23T15:36:17+02:00</time>
      </trkpt>
      <trkpt lat="44.92944" lon="5.16721">
        <ele>735</ele>
        <time>2021-05-23T15:36:33+02:00</time>
      </trkpt>
      <trkpt lat="44.92955" lon="5.16716">
        <ele>732</ele>
        <time>2021-05-23T15:36:48+02:00</time>
      </trkpt>
      <trkpt lat="44.92963" lon="5.16709">
        <ele>729</ele>
        <time>2021-05-23T15:37:02+02:00</time>
      </trkpt>
      <trkpt lat="44.92962" lon="5.167">
        <ele>726</ele>
        <time>2021-05-23T15:37:15+02:00</time>
      </trkpt>
      <trkpt lat="44.92956" lon="5.16692">
        <ele>724</ele>
        <time>2021-05-23T15:37:30+02:00</time>
      </trkpt>
      <trkpt lat="44.92954" lon="5.1668">
        <ele>721</ele>
        <time>2021-05-23T15:37:44+02:00</time>
      </trkpt>
      <trkpt lat="44.92954" lon="5.16679">
        <ele>720</ele>
        <time>2021-05-23T15:37:59+02:00</time>
      </trkpt>
      <trkpt lat="44.92954" lon="5.1668">
        <ele>720</ele>
        <time>2021-05-23T15:38:20+02:00</time>
      </trkpt>
      <trkpt lat="44.92953" lon="5.16679">
        <ele>720</ele>
        <time>2021-05-23T15:38:35+02:00</time>
      </trkpt>
      <trkpt lat="44.92954" lon="5.16683">
        <ele>722</ele>
        <time>2021-05-23T15:39:02+02:00</time>
      </trkpt>
      <trkpt lat="44.92954" lon="5.16682">
        <ele>721</ele>
        <time>2021-05-23T15:39:21+02:00</time>
      </trkpt>
      <trkpt lat="44.92954" lon="5.1668">
        <ele>720</ele>
        <time>2021-05-23T15:39:50+02:00</time>
      </trkpt>
      <trkpt lat="44.92954" lon="5.16682">
        <ele>721</ele>
        <time>2021-05-23T15:40:20+02:00</time>
      </trkpt>
      <trkpt lat="44.92953" lon="5.16685">
        <ele>722</ele>
        <time>2021-05-23T15:40:49+02:00</time>
      </trkpt>
      <trkpt lat="44.92955" lon="5.16684">
        <ele>722</ele>
        <time>2021-05-23T15:41:14+02:00</time>
      </trkpt>
      <trkpt lat="44.92956" lon="5.16679">
        <ele>720</ele>
        <time>2021-05-23T15:41:40+02:00</time>
      </trkpt>
      <trkpt lat="44.92954" lon="5.16678">
        <ele>720</ele>
        <time>2021-05-23T15:42:03+02:00</time>
      </trkpt>
      <trkpt lat="44.92955" lon="5.1668">
        <ele>720</ele>
        <time>2021-05-23T15:42:25+02:00</time>
      </trkpt>
      <trkpt lat="44.92954" lon="5.16681">
        <ele>721</ele>
        <time>2021-05-23T15:42:47+02:00</time>
      </trkpt>
      <trkpt lat="44.92952" lon="5.16679">
        <ele>720</ele>
        <time>2021-05-23T15:43:09+02:00</time>
      </trkpt>
      <trkpt lat="44.92951" lon="5.16679">
        <ele>720</ele>
        <time>2021-05-23T15:43:34+02:00</time>
      </trkpt>
      <trkpt lat="44.92955" lon="5.16683">
        <ele>721</ele>
        <time>2021-05-23T15:43:59+02:00</time>
      </trkpt>
      <trkpt lat="44.92956" lon="5.16681">
        <ele>721</ele>
        <time>2021-05-23T15:44:17+02:00</time>
      </trkpt>
      <trkpt lat="44.92956" lon="5.16681">
        <ele>721</ele>
        <time>2021-05-23T15:44:20+02:00</time>
      </trkpt>
      <trkpt lat="44.92954" lon="5.16677">
        <ele>719</ele>
        <time>2021-05-23T15:44:29+02:00</time>
      </trkpt>
      <trkpt lat="44.92954" lon="5.16682">
        <ele>721</ele>
        <time>2021-05-23T15:44:48+02:00</time>
      </trkpt>
      <trkpt lat="44.92955" lon="5.16682">
        <ele>721</ele>
        <time>2021-05-23T15:45:09+02:00</time>
      </trkpt>
      <trkpt lat="44.9296" lon="5.16675">
        <ele>719</ele>
        <time>2021-05-23T15:45:22+02:00</time>
      </trkpt>
      <trkpt lat="44.92971" lon="5.16674">
        <ele>718</ele>
        <time>2021-05-23T15:45:37+02:00</time>
      </trkpt>
      <trkpt lat="44.92981" lon="5.16675">
        <ele>716</ele>
        <time>2021-05-23T15:45:51+02:00</time>
      </trkpt>
      <trkpt lat="44.92991" lon="5.16682">
        <ele>716</ele>
        <time>2021-05-23T15:46:06+02:00</time>
      </trkpt>
      <trkpt lat="44.93001" lon="5.16686">
        <ele>715</ele>
        <time>2021-05-23T15:46:21+02:00</time>
      </trkpt>
      <trkpt lat="44.93013" lon="5.16697">
        <ele>713</ele>
        <time>2021-05-23T15:46:37+02:00</time>
      </trkpt>
      <trkpt lat="44.93018" lon="5.16705">
        <ele>712</ele>
        <time>2021-05-23T15:46:51+02:00</time>
      </trkpt>
      <trkpt lat="44.93023" lon="5.1672">
        <ele>712</ele>
        <time>2021-05-23T15:47:05+02:00</time>
      </trkpt>
      <trkpt lat="44.93028" lon="5.16737">
        <ele>712</ele>
        <time>2021-05-23T15:47:19+02:00</time>
      </trkpt>
      <trkpt lat="44.93031" lon="5.16753">
        <ele>713</ele>
        <time>2021-05-23T15:47:31+02:00</time>
      </trkpt>
      <trkpt lat="44.93029" lon="5.16767">
        <ele>712</ele>
        <time>2021-05-23T15:47:42+02:00</time>
      </trkpt>
      <trkpt lat="44.93033" lon="5.16787">
        <ele>710</ele>
        <time>2021-05-23T15:47:55+02:00</time>
      </trkpt>
      <trkpt lat="44.9303" lon="5.16802">
        <ele>710</ele>
        <time>2021-05-23T15:48:10+02:00</time>
      </trkpt>
      <trkpt lat="44.93027" lon="5.16819">
        <ele>709</ele>
        <time>2021-05-23T15:48:25+02:00</time>
      </trkpt>
      <trkpt lat="44.93023" lon="5.16839">
        <ele>708</ele>
        <time>2021-05-23T15:48:40+02:00</time>
      </trkpt>
      <trkpt lat="44.93023" lon="5.16847">
        <ele>706</ele>
        <time>2021-05-23T15:48:53+02:00</time>
      </trkpt>
      <trkpt lat="44.93023" lon="5.1685">
        <ele>706</ele>
        <time>2021-05-23T15:49:07+02:00</time>
      </trkpt>
      <trkpt lat="44.93021" lon="5.16851">
        <ele>706</ele>
        <time>2021-05-23T15:49:32+02:00</time>
      </trkpt>
      <trkpt lat="44.93018" lon="5.1685">
        <ele>708</ele>
        <time>2021-05-23T15:49:52+02:00</time>
      </trkpt>
      <trkpt lat="44.93019" lon="5.1685">
        <ele>707</ele>
        <time>2021-05-23T15:50:14+02:00</time>
      </trkpt>
      <trkpt lat="44.93019" lon="5.16846">
        <ele>708</ele>
        <time>2021-05-23T15:50:32+02:00</time>
      </trkpt>
      <trkpt lat="44.93027" lon="5.1684">
        <ele>706</ele>
        <time>2021-05-23T15:50:45+02:00</time>
      </trkpt>
      <trkpt lat="44.93038" lon="5.16824">
        <ele>705</ele>
        <time>2021-05-23T15:50:59+02:00</time>
      </trkpt>
      <trkpt lat="44.93041" lon="5.1682">
        <ele>705</ele>
        <time>2021-05-23T15:51:02+02:00</time>
      </trkpt>
      <trkpt lat="44.93048" lon="5.16804">
        <ele>704</ele>
        <time>2021-05-23T15:51:15+02:00</time>
      </trkpt>
      <trkpt lat="44.93054" lon="5.16788">
        <ele>703</ele>
        <time>2021-05-23T15:51:29+02:00</time>
      </trkpt>
      <trkpt lat="44.93061" lon="5.16775">
        <ele>702</ele>
        <time>2021-05-23T15:51:42+02:00</time>
      </trkpt>
      <trkpt lat="44.93065" lon="5.16758">
        <ele>701</ele>
        <time>2021-05-23T15:51:55+02:00</time>
      </trkpt>
      <trkpt lat="44.9307" lon="5.16746">
        <ele>699</ele>
        <time>2021-05-23T15:52:06+02:00</time>
      </trkpt>
      <trkpt lat="44.93075" lon="5.16723">
        <ele>695</ele>
        <time>2021-05-23T15:52:20+02:00</time>
      </trkpt>
      <trkpt lat="44.9308" lon="5.16702">
        <ele>692</ele>
        <time>2021-05-23T15:52:36+02:00</time>
      </trkpt>
      <trkpt lat="44.93082" lon="5.16682">
        <ele>689</ele>
        <time>2021-05-23T15:52:51+02:00</time>
      </trkpt>
      <trkpt lat="44.93077" lon="5.1666">
        <ele>686</ele>
        <time>2021-05-23T15:53:08+02:00</time>
      </trkpt>
      <trkpt lat="44.93069" lon="5.16641">
        <ele>683</ele>
        <time>2021-05-23T15:53:24+02:00</time>
      </trkpt>
      <trkpt lat="44.93062" lon="5.16626">
        <ele>681</ele>
        <time>2021-05-23T15:53:38+02:00</time>
      </trkpt>
      <trkpt lat="44.93057" lon="5.16616">
        <ele>680</ele>
        <time>2021-05-23T15:53:54+02:00</time>
      </trkpt>
      <trkpt lat="44.93056" lon="5.16614">
        <ele>680</ele>
        <time>2021-05-23T15:54:11+02:00</time>
      </trkpt>
      <trkpt lat="44.93056" lon="5.16614">
        <ele>680</ele>
        <time>2021-05-23T15:54:35+02:00</time>
      </trkpt>
      <trkpt lat="44.93054" lon="5.16613">
        <ele>680</ele>
        <time>2021-05-23T15:54:54+02:00</time>
      </trkpt>
      <trkpt lat="44.93049" lon="5.16605">
        <ele>680</ele>
        <time>2021-05-23T15:55:07+02:00</time>
      </trkpt>
      <trkpt lat="44.93045" lon="5.16596">
        <ele>679</ele>
        <time>2021-05-23T15:55:21+02:00</time>
      </trkpt>
      <trkpt lat="44.93042" lon="5.16584">
        <ele>677</ele>
        <time>2021-05-23T15:55:35+02:00</time>
      </trkpt>
      <trkpt lat="44.93036" lon="5.16567">
        <ele>674</ele>
        <time>2021-05-23T15:55:53+02:00</time>
      </trkpt>
      <trkpt lat="44.93028" lon="5.16551">
        <ele>672</ele>
        <time>2021-05-23T15:56:08+02:00</time>
      </trkpt>
      <trkpt lat="44.93021" lon="5.16536">
        <ele>669</ele>
        <time>2021-05-23T15:56:24+02:00</time>
      </trkpt>
      <trkpt lat="44.93019" lon="5.16526">
        <ele>666</ele>
        <time>2021-05-23T15:56:38+02:00</time>
      </trkpt>
      <trkpt lat="44.93015" lon="5.16519">
        <ele>663</ele>
        <time>2021-05-23T15:56:53+02:00</time>
      </trkpt>
      <trkpt lat="44.93003" lon="5.16516">
        <ele>662</ele>
        <time>2021-05-23T15:57:10+02:00</time>
      </trkpt>
      <trkpt lat="44.93" lon="5.16516">
        <ele>662</ele>
        <time>2021-05-23T15:57:13+02:00</time>
      </trkpt>
      <trkpt lat="44.92992" lon="5.16517">
        <ele>662</ele>
        <time>2021-05-23T15:57:28+02:00</time>
      </trkpt>
      <trkpt lat="44.92989" lon="5.16516">
        <ele>662</ele>
        <time>2021-05-23T15:57:41+02:00</time>
      </trkpt>
      <trkpt lat="44.92985" lon="5.16519">
        <ele>663</ele>
        <time>2021-05-23T15:58:01+02:00</time>
      </trkpt>
      <trkpt lat="44.92972" lon="5.16523">
        <ele>663</ele>
        <time>2021-05-23T15:58:16+02:00</time>
      </trkpt>
      <trkpt lat="44.9297" lon="5.16524">
        <ele>663</ele>
        <time>2021-05-23T15:58:19+02:00</time>
      </trkpt>
      <trkpt lat="44.92957" lon="5.16528">
        <ele>664</ele>
        <time>2021-05-23T15:58:34+02:00</time>
      </trkpt>
      <trkpt lat="44.92943" lon="5.16531">
        <ele>666</ele>
        <time>2021-05-23T15:58:49+02:00</time>
      </trkpt>
      <trkpt lat="44.92931" lon="5.16534">
        <ele>671</ele>
        <time>2021-05-23T15:59:04+02:00</time>
      </trkpt>
      <trkpt lat="44.92924" lon="5.16533">
        <ele>673</ele>
        <time>2021-05-23T15:59:16+02:00</time>
      </trkpt>
      <trkpt lat="44.92921" lon="5.16532">
        <ele>674</ele>
        <time>2021-05-23T15:59:29+02:00</time>
      </trkpt>
      <trkpt lat="44.92923" lon="5.16519">
        <ele>673</ele>
        <time>2021-05-23T15:59:41+02:00</time>
      </trkpt>
      <trkpt lat="44.92929" lon="5.16504">
        <ele>670</ele>
        <time>2021-05-23T15:59:56+02:00</time>
      </trkpt>
      <trkpt lat="44.92935" lon="5.16496">
        <ele>668</ele>
        <time>2021-05-23T16:00:07+02:00</time>
      </trkpt>
      <trkpt lat="44.92939" lon="5.16492">
        <ele>667</ele>
        <time>2021-05-23T16:00:13+02:00</time>
      </trkpt>
      <trkpt lat="44.92951" lon="5.16476">
        <ele>665</ele>
        <time>2021-05-23T16:00:29+02:00</time>
      </trkpt>
      <trkpt lat="44.92958" lon="5.16456">
        <ele>664</ele>
        <time>2021-05-23T16:00:42+02:00</time>
      </trkpt>
      <trkpt lat="44.92963" lon="5.16436">
        <ele>663</ele>
        <time>2021-05-23T16:00:55+02:00</time>
      </trkpt>
      <trkpt lat="44.92958" lon="5.16419">
        <ele>662</ele>
        <time>2021-05-23T16:01:09+02:00</time>
      </trkpt>
      <trkpt lat="44.92958" lon="5.16418">
        <ele>662</ele>
        <time>2021-05-23T16:01:24+02:00</time>
      </trkpt>
      <trkpt lat="44.92954" lon="5.16415">
        <ele>661</ele>
        <time>2021-05-23T16:01:42+02:00</time>
      </trkpt>
      <trkpt lat="44.92949" lon="5.16412">
        <ele>661</ele>
        <time>2021-05-23T16:01:53+02:00</time>
      </trkpt>
      <trkpt lat="44.92934" lon="5.16407">
        <ele>661</ele>
        <time>2021-05-23T16:02:09+02:00</time>
      </trkpt>
      <trkpt lat="44.9292" lon="5.16402">
        <ele>661</ele>
        <time>2021-05-23T16:02:22+02:00</time>
      </trkpt>
      <trkpt lat="44.92908" lon="5.16395">
        <ele>660</ele>
        <time>2021-05-23T16:02:35+02:00</time>
      </trkpt>
      <trkpt lat="44.92896" lon="5.16386">
        <ele>660</ele>
        <time>2021-05-23T16:02:49+02:00</time>
      </trkpt>
      <trkpt lat="44.92884" lon="5.16374">
        <ele>660</ele>
        <time>2021-05-23T16:03:02+02:00</time>
      </trkpt>
      <trkpt lat="44.9287" lon="5.16363">
        <ele>659</ele>
        <time>2021-05-23T16:03:16+02:00</time>
      </trkpt>
      <trkpt lat="44.92859" lon="5.16351">
        <ele>661</ele>
        <time>2021-05-23T16:03:30+02:00</time>
      </trkpt>
      <trkpt lat="44.92846" lon="5.16335">
        <ele>664</ele>
        <time>2021-05-23T16:03:46+02:00</time>
      </trkpt>
      <trkpt lat="44.92842" lon="5.16325">
        <ele>667</ele>
        <time>2021-05-23T16:04:00+02:00</time>
      </trkpt>
      <trkpt lat="44.92842" lon="5.1632">
        <ele>668</ele>
        <time>2021-05-23T16:04:13+02:00</time>
      </trkpt>
      <trkpt lat="44.92838" lon="5.16322">
        <ele>669</ele>
        <time>2021-05-23T16:04:33+02:00</time>
      </trkpt>
      <trkpt lat="44.92839" lon="5.16321">
        <ele>669</ele>
        <time>2021-05-23T16:04:40+02:00</time>
      </trkpt>
      <trkpt lat="44.92851" lon="5.16322">
        <ele>667</ele>
        <time>2021-05-23T16:04:55+02:00</time>
      </trkpt>
      <trkpt lat="44.92865" lon="5.16324">
        <ele>664</ele>
        <time>2021-05-23T16:05:07+02:00</time>
      </trkpt>
      <trkpt lat="44.92886" lon="5.1632">
        <ele>665</ele>
        <time>2021-05-23T16:05:22+02:00</time>
      </trkpt>
      <trkpt lat="44.929" lon="5.16318">
        <ele>664</ele>
        <time>2021-05-23T16:05:33+02:00</time>
      </trkpt>
      <trkpt lat="44.9292" lon="5.16315">
        <ele>663</ele>
        <time>2021-05-23T16:05:51+02:00</time>
      </trkpt>
      <trkpt lat="44.92924" lon="5.16314">
        <ele>663</ele>
        <time>2021-05-23T16:05:55+02:00</time>
      </trkpt>
      <trkpt lat="44.92937" lon="5.16312">
        <ele>662</ele>
        <time>2021-05-23T16:06:08+02:00</time>
      </trkpt>
      <trkpt lat="44.92957" lon="5.163">
        <ele>659</ele>
        <time>2021-05-23T16:06:28+02:00</time>
      </trkpt>
      <trkpt lat="44.92973" lon="5.16282">
        <ele>657</ele>
        <time>2021-05-23T16:06:44+02:00</time>
      </trkpt>
      <trkpt lat="44.92975" lon="5.16279">
        <ele>657</ele>
        <time>2021-05-23T16:06:46+02:00</time>
      </trkpt>
      <trkpt lat="44.92988" lon="5.16263">
        <ele>655</ele>
        <time>2021-05-23T16:07:01+02:00</time>
      </trkpt>
      <trkpt lat="44.92999" lon="5.16245">
        <ele>654</ele>
        <time>2021-05-23T16:07:16+02:00</time>
      </trkpt>
      <trkpt lat="44.93002" lon="5.16231">
        <ele>655</ele>
        <time>2021-05-23T16:07:29+02:00</time>
      </trkpt>
      <trkpt lat="44.93003" lon="5.16231">
        <ele>654</ele>
        <time>2021-05-23T16:07:50+02:00</time>
      </trkpt>
      <trkpt lat="44.93003" lon="5.16232">
        <ele>654</ele>
        <time>2021-05-23T16:08:08+02:00</time>
      </trkpt>
      <trkpt lat="44.93003" lon="5.16228">
        <ele>655</ele>
        <time>2021-05-23T16:08:33+02:00</time>
      </trkpt>
      <trkpt lat="44.93002" lon="5.16229">
        <ele>655</ele>
        <time>2021-05-23T16:08:59+02:00</time>
      </trkpt>
      <trkpt lat="44.93002" lon="5.16228">
        <ele>655</ele>
        <time>2021-05-23T16:09:23+02:00</time>
      </trkpt>
      <trkpt lat="44.93002" lon="5.16227">
        <ele>655</ele>
        <time>2021-05-23T16:09:44+02:00</time>
      </trkpt>
      <trkpt lat="44.93004" lon="5.16224">
        <ele>655</ele>
        <time>2021-05-23T16:10:07+02:00</time>
      </trkpt>
      <trkpt lat="44.93009" lon="5.16207">
        <ele>656</ele>
        <time>2021-05-23T16:10:25+02:00</time>
      </trkpt>
      <trkpt lat="44.93016" lon="5.16195">
        <ele>655</ele>
        <time>2021-05-23T16:10:38+02:00</time>
      </trkpt>
      <trkpt lat="44.93022" lon="5.16177">
        <ele>653</ele>
        <time>2021-05-23T16:10:53+02:00</time>
      </trkpt>
      <trkpt lat="44.93028" lon="5.16164">
        <ele>651</ele>
        <time>2021-05-23T16:11:07+02:00</time>
      </trkpt>
      <trkpt lat="44.93037" lon="5.16145">
        <ele>648</ele>
        <time>2021-05-23T16:11:23+02:00</time>
      </trkpt>
      <trkpt lat="44.93046" lon="5.1613">
        <ele>646</ele>
        <time>2021-05-23T16:11:41+02:00</time>
      </trkpt>
      <trkpt lat="44.93048" lon="5.16131">
        <ele>645</ele>
        <time>2021-05-23T16:12:01+02:00</time>
      </trkpt>
      <trkpt lat="44.93047" lon="5.1613">
        <ele>646</ele>
        <time>2021-05-23T16:12:23+02:00</time>
      </trkpt>
      <trkpt lat="44.93049" lon="5.1613">
        <ele>645</ele>
        <time>2021-05-23T16:12:36+02:00</time>
      </trkpt>
      <trkpt lat="44.93047" lon="5.16132">
        <ele>646</ele>
        <time>2021-05-23T16:12:51+02:00</time>
      </trkpt>
      <trkpt lat="44.93049" lon="5.1613">
        <ele>645</ele>
        <time>2021-05-23T16:13:04+02:00</time>
      </trkpt>
      <trkpt lat="44.93049" lon="5.16131">
        <ele>645</ele>
        <time>2021-05-23T16:13:31+02:00</time>
      </trkpt>
      <trkpt lat="44.93051" lon="5.16129">
        <ele>644</ele>
        <time>2021-05-23T16:13:59+02:00</time>
      </trkpt>
      <trkpt lat="44.9305" lon="5.16126">
        <ele>645</ele>
        <time>2021-05-23T16:14:20+02:00</time>
      </trkpt>
      <trkpt lat="44.93051" lon="5.16125">
        <ele>644</ele>
        <time>2021-05-23T16:14:39+02:00</time>
      </trkpt>
      <trkpt lat="44.93052" lon="5.16117">
        <ele>644</ele>
        <time>2021-05-23T16:14:52+02:00</time>
      </trkpt>
      <trkpt lat="44.93056" lon="5.16109">
        <ele>643</ele>
        <time>2021-05-23T16:15:04+02:00</time>
      </trkpt>
      <trkpt lat="44.93057" lon="5.16106">
        <ele>643</ele>
        <time>2021-05-23T16:15:19+02:00</time>
      </trkpt>
      <trkpt lat="44.93054" lon="5.16108">
        <ele>644</ele>
        <time>2021-05-23T16:15:38+02:00</time>
      </trkpt>
      <trkpt lat="44.93056" lon="5.16108">
        <ele>643</ele>
        <time>2021-05-23T16:15:55+02:00</time>
      </trkpt>
      <trkpt lat="44.93055" lon="5.16107">
        <ele>643</ele>
        <time>2021-05-23T16:16:16+02:00</time>
      </trkpt>
      <trkpt lat="44.93057" lon="5.16107">
        <ele>643</ele>
        <time>2021-05-23T16:16:46+02:00</time>
      </trkpt>
      <trkpt lat="44.93058" lon="5.16108">
        <ele>643</ele>
        <time>2021-05-23T16:17:07+02:00</time>
      </trkpt>
      <trkpt lat="44.9306" lon="5.16108">
        <ele>643</ele>
        <time>2021-05-23T16:17:27+02:00</time>
      </trkpt>
      <trkpt lat="44.93062" lon="5.16099">
        <ele>643</ele>
        <time>2021-05-23T16:17:39+02:00</time>
      </trkpt>
      <trkpt lat="44.93063" lon="5.16089">
        <ele>643</ele>
        <time>2021-05-23T16:17:51+02:00</time>
      </trkpt>
      <trkpt lat="44.93069" lon="5.16077">
        <ele>642</ele>
        <time>2021-05-23T16:18:04+02:00</time>
      </trkpt>
      <trkpt lat="44.93073" lon="5.16063">
        <ele>641</ele>
        <time>2021-05-23T16:18:15+02:00</time>
      </trkpt>
      <trkpt lat="44.93085" lon="5.16042">
        <ele>638</ele>
        <time>2021-05-23T16:18:32+02:00</time>
      </trkpt>
      <trkpt lat="44.93091" lon="5.16018">
        <ele>635</ele>
        <time>2021-05-23T16:18:49+02:00</time>
      </trkpt>
      <trkpt lat="44.93098" lon="5.15994">
        <ele>630</ele>
        <time>2021-05-23T16:19:05+02:00</time>
      </trkpt>
      <trkpt lat="44.93101" lon="5.15986">
        <ele>628</ele>
        <time>2021-05-23T16:19:10+02:00</time>
      </trkpt>
      <trkpt lat="44.93104" lon="5.15968">
        <ele>625</ele>
        <time>2021-05-23T16:19:24+02:00</time>
      </trkpt>
      <trkpt lat="44.93107" lon="5.15946">
        <ele>621</ele>
        <time>2021-05-23T16:19:39+02:00</time>
      </trkpt>
      <trkpt lat="44.93101" lon="5.15926">
        <ele>617</ele>
        <time>2021-05-23T16:19:55+02:00</time>
      </trkpt>
      <trkpt lat="44.93105" lon="5.15907">
        <ele>610</ele>
        <time>2021-05-23T16:20:11+02:00</time>
      </trkpt>
      <trkpt lat="44.93107" lon="5.15906">
        <ele>609</ele>
        <time>2021-05-23T16:20:14+02:00</time>
      </trkpt>
      <trkpt lat="44.9313" lon="5.15904">
        <ele>606</ele>
        <time>2021-05-23T16:20:34+02:00</time>
      </trkpt>
      <trkpt lat="44.9313" lon="5.15903">
        <ele>606</ele>
        <time>2021-05-23T16:20:49+02:00</time>
      </trkpt>
      <trkpt lat="44.93128" lon="5.15906">
        <ele>607</ele>
        <time>2021-05-23T16:21:08+02:00</time>
      </trkpt>
      <trkpt lat="44.93128" lon="5.15905">
        <ele>607</ele>
        <time>2021-05-23T16:21:27+02:00</time>
      </trkpt>
      <trkpt lat="44.9313" lon="5.15894">
        <ele>603</ele>
        <time>2021-05-23T16:21:40+02:00</time>
      </trkpt>
      <trkpt lat="44.93128" lon="5.15881">
        <ele>600</ele>
        <time>2021-05-23T16:21:55+02:00</time>
      </trkpt>
      <trkpt lat="44.93122" lon="5.15873">
        <ele>599</ele>
        <time>2021-05-23T16:22:07+02:00</time>
      </trkpt>
      <trkpt lat="44.93115" lon="5.15869">
        <ele>599</ele>
        <time>2021-05-23T16:22:19+02:00</time>
      </trkpt>
      <trkpt lat="44.93111" lon="5.15863">
        <ele>599</ele>
        <time>2021-05-23T16:22:32+02:00</time>
      </trkpt>
      <trkpt lat="44.93122" lon="5.15859">
        <ele>598</ele>
        <time>2021-05-23T16:22:44+02:00</time>
      </trkpt>
      <trkpt lat="44.93127" lon="5.15854">
        <ele>598</ele>
        <time>2021-05-23T16:22:50+02:00</time>
      </trkpt>
      <trkpt lat="44.93135" lon="5.15837">
        <ele>597</ele>
        <time>2021-05-23T16:23:05+02:00</time>
      </trkpt>
      <trkpt lat="44.93146" lon="5.1582">
        <ele>598</ele>
        <time>2021-05-23T16:23:21+02:00</time>
      </trkpt>
      <trkpt lat="44.93157" lon="5.15811">
        <ele>597</ele>
        <time>2021-05-23T16:23:34+02:00</time>
      </trkpt>
      <trkpt lat="44.9317" lon="5.15791">
        <ele>596</ele>
        <time>2021-05-23T16:23:50+02:00</time>
      </trkpt>
      <trkpt lat="44.93179" lon="5.15773">
        <ele>594</ele>
        <time>2021-05-23T16:24:05+02:00</time>
      </trkpt>
      <trkpt lat="44.93186" lon="5.15754">
        <ele>591</ele>
        <time>2021-05-23T16:24:20+02:00</time>
      </trkpt>
      <trkpt lat="44.93189" lon="5.15734">
        <ele>588</ele>
        <time>2021-05-23T16:24:33+02:00</time>
      </trkpt>
      <trkpt lat="44.93186" lon="5.15714">
        <ele>588</ele>
        <time>2021-05-23T16:24:47+02:00</time>
      </trkpt>
      <trkpt lat="44.93184" lon="5.15697">
        <ele>588</ele>
        <time>2021-05-23T16:25:01+02:00</time>
      </trkpt>
      <trkpt lat="44.93185" lon="5.15691">
        <ele>588</ele>
        <time>2021-05-23T16:25:06+02:00</time>
      </trkpt>
      <trkpt lat="44.93194" lon="5.1567">
        <ele>588</ele>
        <time>2021-05-23T16:25:22+02:00</time>
      </trkpt>
      <trkpt lat="44.93202" lon="5.15652">
        <ele>588</ele>
        <time>2021-05-23T16:25:36+02:00</time>
      </trkpt>
      <trkpt lat="44.93211" lon="5.15636">
        <ele>586</ele>
        <time>2021-05-23T16:25:48+02:00</time>
      </trkpt>
      <trkpt lat="44.93212" lon="5.15635">
        <ele>585</ele>
        <time>2021-05-23T16:25:49+02:00</time>
      </trkpt>
      <trkpt lat="44.93223" lon="5.15617">
        <ele>582</ele>
        <time>2021-05-23T16:26:04+02:00</time>
      </trkpt>
      <trkpt lat="44.93226" lon="5.15609">
        <ele>581</ele>
        <time>2021-05-23T16:26:09+02:00</time>
      </trkpt>
      <trkpt lat="44.9323" lon="5.15595">
        <ele>581</ele>
        <time>2021-05-23T16:26:17+02:00</time>
      </trkpt>
      <trkpt lat="44.93238" lon="5.15573">
        <ele>580</ele>
        <time>2021-05-23T16:26:34+02:00</time>
      </trkpt>
      <trkpt lat="44.93245" lon="5.15578">
        <ele>576</ele>
        <time>2021-05-23T16:26:48+02:00</time>
      </trkpt>
      <trkpt lat="44.93246" lon="5.15581">
        <ele>575</ele>
        <time>2021-05-23T16:27:02+02:00</time>
      </trkpt>
      <trkpt lat="44.93247" lon="5.15583">
        <ele>575</ele>
        <time>2021-05-23T16:27:20+02:00</time>
      </trkpt>
      <trkpt lat="44.93246" lon="5.15581">
        <ele>575</ele>
        <time>2021-05-23T16:27:42+02:00</time>
      </trkpt>
      <trkpt lat="44.93246" lon="5.15581">
        <ele>575</ele>
        <time>2021-05-23T16:28:01+02:00</time>
      </trkpt>
      <trkpt lat="44.93254" lon="5.15578">
        <ele>571</ele>
        <time>2021-05-23T16:28:16+02:00</time>
      </trkpt>
      <trkpt lat="44.93254" lon="5.15576">
        <ele>571</ele>
        <time>2021-05-23T16:28:35+02:00</time>
      </trkpt>
      <trkpt lat="44.93259" lon="5.15563">
        <ele>569</ele>
        <time>2021-05-23T16:28:47+02:00</time>
      </trkpt>
      <trkpt lat="44.93261" lon="5.15551">
        <ele>569</ele>
        <time>2021-05-23T16:29:00+02:00</time>
      </trkpt>
      <trkpt lat="44.93262" lon="5.15536">
        <ele>569</ele>
        <time>2021-05-23T16:29:14+02:00</time>
      </trkpt>
      <trkpt lat="44.93267" lon="5.15525">
        <ele>566</ele>
        <time>2021-05-23T16:29:28+02:00</time>
      </trkpt>
      <trkpt lat="44.93269" lon="5.15522">
        <ele>565</ele>
        <time>2021-05-23T16:29:35+02:00</time>
      </trkpt>
      <trkpt lat="44.93274" lon="5.15512">
        <ele>562</ele>
        <time>2021-05-23T16:29:48+02:00</time>
      </trkpt>
      <trkpt lat="44.9328" lon="5.15494">
        <ele>559</ele>
        <time>2021-05-23T16:30:01+02:00</time>
      </trkpt>
      <trkpt lat="44.93289" lon="5.15477">
        <ele>553</ele>
        <time>2021-05-23T16:30:15+02:00</time>
      </trkpt>
      <trkpt lat="44.93289" lon="5.15454">
        <ele>554</ele>
        <time>2021-05-23T16:30:30+02:00</time>
      </trkpt>
      <trkpt lat="44.93292" lon="5.15433">
        <ele>553</ele>
        <time>2021-05-23T16:30:44+02:00</time>
      </trkpt>
      <trkpt lat="44.93297" lon="5.15411">
        <ele>549</ele>
        <time>2021-05-23T16:30:58+02:00</time>
      </trkpt>
      <trkpt lat="44.93298" lon="5.15404">
        <ele>549</ele>
        <time>2021-05-23T16:31:03+02:00</time>
      </trkpt>
      <trkpt lat="44.93296" lon="5.15388">
        <ele>550</ele>
        <time>2021-05-23T16:31:17+02:00</time>
      </trkpt>
      <trkpt lat="44.93285" lon="5.15364">
        <ele>556</ele>
        <time>2021-05-23T16:31:31+02:00</time>
      </trkpt>
      <trkpt lat="44.93297" lon="5.15357">
        <ele>553</ele>
        <time>2021-05-23T16:31:46+02:00</time>
      </trkpt>
      <trkpt lat="44.93313" lon="5.15365">
        <ele>547</ele>
        <time>2021-05-23T16:32:02+02:00</time>
      </trkpt>
      <trkpt lat="44.93323" lon="5.15365">
        <ele>543</ele>
        <time>2021-05-23T16:32:11+02:00</time>
      </trkpt>
      <trkpt lat="44.93341" lon="5.1536">
        <ele>540</ele>
        <time>2021-05-23T16:32:27+02:00</time>
      </trkpt>
      <trkpt lat="44.93358" lon="5.15354">
        <ele>538</ele>
        <time>2021-05-23T16:32:41+02:00</time>
      </trkpt>
      <trkpt lat="44.93379" lon="5.1535">
        <ele>536</ele>
        <time>2021-05-23T16:32:59+02:00</time>
      </trkpt>
      <trkpt lat="44.93401" lon="5.15343">
        <ele>533</ele>
        <time>2021-05-23T16:33:17+02:00</time>
      </trkpt>
      <trkpt lat="44.93414" lon="5.15324">
        <ele>533</ele>
        <time>2021-05-23T16:33:36+02:00</time>
      </trkpt>
      <trkpt lat="44.93416" lon="5.15319">
        <ele>533</ele>
        <time>2021-05-23T16:33:47+02:00</time>
      </trkpt>
      <trkpt lat="44.93421" lon="5.15312">
        <ele>534</ele>
        <time>2021-05-23T16:33:55+02:00</time>
      </trkpt>
      <trkpt lat="44.93436" lon="5.15285">
        <ele>535</ele>
        <time>2021-05-23T16:34:16+02:00</time>
      </trkpt>
      <trkpt lat="44.93449" lon="5.15267">
        <ele>536</ele>
        <time>2021-05-23T16:34:34+02:00</time>
      </trkpt>
      <trkpt lat="44.93454" lon="5.15263">
        <ele>536</ele>
        <time>2021-05-23T16:34:40+02:00</time>
      </trkpt>
      <trkpt lat="44.93477" lon="5.15259">
        <ele>534</ele>
        <time>2021-05-23T16:35:02+02:00</time>
      </trkpt>
      <trkpt lat="44.93491" lon="5.15263">
        <ele>533</ele>
        <time>2021-05-23T16:35:19+02:00</time>
      </trkpt>
      <trkpt lat="44.93495" lon="5.15263">
        <ele>532</ele>
        <time>2021-05-23T16:35:31+02:00</time>
      </trkpt>
      <trkpt lat="44.93504" lon="5.15265">
        <ele>531</ele>
        <time>2021-05-23T16:35:41+02:00</time>
      </trkpt>
      <trkpt lat="44.93526" lon="5.15252">
        <ele>531</ele>
        <time>2021-05-23T16:36:01+02:00</time>
      </trkpt>
      <trkpt lat="44.93543" lon="5.15232">
        <ele>531</ele>
        <time>2021-05-23T16:36:20+02:00</time>
      </trkpt>
      <trkpt lat="44.93563" lon="5.1521">
        <ele>530</ele>
        <time>2021-05-23T16:36:42+02:00</time>
      </trkpt>
      <trkpt lat="44.93585" lon="5.1519">
        <ele>528</ele>
        <time>2021-05-23T16:37:05+02:00</time>
      </trkpt>
      <trkpt lat="44.93606" lon="5.15174">
        <ele>525</ele>
        <time>2021-05-23T16:37:26+02:00</time>
      </trkpt>
      <trkpt lat="44.93624" lon="5.15164">
        <ele>523</ele>
        <time>2021-05-23T16:37:43+02:00</time>
      </trkpt>
      <trkpt lat="44.93644" lon="5.15153">
        <ele>521</ele>
        <time>2021-05-23T16:38:00+02:00</time>
      </trkpt>
      <trkpt lat="44.93663" lon="5.15137">
        <ele>520</ele>
        <time>2021-05-23T16:38:19+02:00</time>
      </trkpt>
      <trkpt lat="44.93679" lon="5.15119">
        <ele>521</ele>
        <time>2021-05-23T16:38:36+02:00</time>
      </trkpt>
      <trkpt lat="44.93696" lon="5.15101">
        <ele>521</ele>
        <time>2021-05-23T16:38:55+02:00</time>
      </trkpt>
      <trkpt lat="44.93713" lon="5.15087">
        <ele>522</ele>
        <time>2021-05-23T16:39:13+02:00</time>
      </trkpt>
      <trkpt lat="44.9373" lon="5.15077">
        <ele>523</ele>
        <time>2021-05-23T16:39:27+02:00</time>
      </trkpt>
      <trkpt lat="44.93749" lon="5.15071">
        <ele>523</ele>
        <time>2021-05-23T16:39:42+02:00</time>
      </trkpt>
      <trkpt lat="44.93754" lon="5.1507">
        <ele>522</ele>
        <time>2021-05-23T16:39:47+02:00</time>
      </trkpt>
      <trkpt lat="44.93756" lon="5.1507">
        <ele>522</ele>
        <time>2021-05-23T16:39:49+02:00</time>
      </trkpt>
      <trkpt lat="44.93774" lon="5.15066">
        <ele>521</ele>
        <time>2021-05-23T16:40:05+02:00</time>
      </trkpt>
      <trkpt lat="44.93783" lon="5.15062">
        <ele>522</ele>
        <time>2021-05-23T16:40:16+02:00</time>
      </trkpt>
      <trkpt lat="44.93795" lon="5.1506">
        <ele>523</ele>
        <time>2021-05-23T16:40:28+02:00</time>
      </trkpt>
      <trkpt lat="44.93801" lon="5.1506">
        <ele>523</ele>
        <time>2021-05-23T16:40:34+02:00</time>
      </trkpt>
      <trkpt lat="44.9382" lon="5.15061">
        <ele>521</ele>
        <time>2021-05-23T16:40:49+02:00</time>
      </trkpt>
      <trkpt lat="44.93837" lon="5.15064">
        <ele>519</ele>
        <time>2021-05-23T16:41:02+02:00</time>
      </trkpt>
      <trkpt lat="44.93841" lon="5.1507">
        <ele>517</ele>
        <time>2021-05-23T16:41:16+02:00</time>
      </trkpt>
      <trkpt lat="44.93845" lon="5.15066">
        <ele>518</ele>
        <time>2021-05-23T16:41:32+02:00</time>
      </trkpt>
      <trkpt lat="44.93859" lon="5.15068">
        <ele>518</ele>
        <time>2021-05-23T16:41:46+02:00</time>
      </trkpt>
      <trkpt lat="44.93873" lon="5.15071">
        <ele>517</ele>
        <time>2021-05-23T16:42:00+02:00</time>
      </trkpt>
      <trkpt lat="44.93888" lon="5.15075">
        <ele>516</ele>
        <time>2021-05-23T16:42:15+02:00</time>
      </trkpt>
      <trkpt lat="44.93898" lon="5.1508">
        <ele>514</ele>
        <time>2021-05-23T16:42:29+02:00</time>
      </trkpt>
      <trkpt lat="44.939" lon="5.15078">
        <ele>515</ele>
        <time>2021-05-23T16:42:42+02:00</time>
      </trkpt>
      <trkpt lat="44.93897" lon="5.15078">
        <ele>515</ele>
        <time>2021-05-23T16:42:58+02:00</time>
      </trkpt>
      <trkpt lat="44.93895" lon="5.15072">
        <ele>517</ele>
        <time>2021-05-23T16:43:09+02:00</time>
      </trkpt>
      <trkpt lat="44.93897" lon="5.15073">
        <ele>516</ele>
        <time>2021-05-23T16:43:20+02:00</time>
      </trkpt>
      <trkpt lat="44.93894" lon="5.15075">
        <ele>516</ele>
        <time>2021-05-23T16:43:38+02:00</time>
      </trkpt>
      <trkpt lat="44.93891" lon="5.15076">
        <ele>516</ele>
        <time>2021-05-23T16:43:48+02:00</time>
      </trkpt>
      <trkpt lat="44.93885" lon="5.15078">
        <ele>515</ele>
        <time>2021-05-23T16:44:03+02:00</time>
      </trkpt>
      <trkpt lat="44.93882" lon="5.15078">
        <ele>515</ele>
        <time>2021-05-23T16:44:35+02:00</time>
      </trkpt>
      <trkpt lat="44.93889" lon="5.15077">
        <ele>515</ele>
        <time>2021-05-23T16:44:49+02:00</time>
      </trkpt>
      <trkpt lat="44.93892" lon="5.15077">
        <ele>515</ele>
        <time>2021-05-23T16:44:52+02:00</time>
      </trkpt>
      <trkpt lat="44.93899" lon="5.15079">
        <ele>514</ele>
        <time>2021-05-23T16:44:59+02:00</time>
      </trkpt>
      <trkpt lat="44.93915" lon="5.15082">
        <ele>513</ele>
        <time>2021-05-23T16:45:14+02:00</time>
      </trkpt>
      <trkpt lat="44.93929" lon="5.15083">
        <ele>513</ele>
        <time>2021-05-23T16:45:27+02:00</time>
      </trkpt>
      <trkpt lat="44.9394" lon="5.15083">
        <ele>513</ele>
        <time>2021-05-23T16:45:35+02:00</time>
      </trkpt>
      <trkpt lat="44.93957" lon="5.15085">
        <ele>512</ele>
        <time>2021-05-23T16:45:49+02:00</time>
      </trkpt>
      <trkpt lat="44.93963" lon="5.15084">
        <ele>512</ele>
        <time>2021-05-23T16:45:54+02:00</time>
      </trkpt>
      <trkpt lat="44.93981" lon="5.15089">
        <ele>510</ele>
        <time>2021-05-23T16:46:10+02:00</time>
      </trkpt>
      <trkpt lat="44.93999" lon="5.15089">
        <ele>508</ele>
        <time>2021-05-23T16:46:24+02:00</time>
      </trkpt>
      <trkpt lat="44.94018" lon="5.15087">
        <ele>508</ele>
        <time>2021-05-23T16:46:39+02:00</time>
      </trkpt>
      <trkpt lat="44.94037" lon="5.15086">
        <ele>506</ele>
        <time>2021-05-23T16:46:54+02:00</time>
      </trkpt>
      <trkpt lat="44.94053" lon="5.15084">
        <ele>504</ele>
        <time>2021-05-23T16:47:08+02:00</time>
      </trkpt>
      <trkpt lat="44.94054" lon="5.15084">
        <ele>504</ele>
        <time>2021-05-23T16:47:09+02:00</time>
      </trkpt>
      <trkpt lat="44.94073" lon="5.15079">
        <ele>505</ele>
        <time>2021-05-23T16:47:24+02:00</time>
      </trkpt>
      <trkpt lat="44.94093" lon="5.15072">
        <ele>503</ele>
        <time>2021-05-23T16:47:41+02:00</time>
      </trkpt>
      <trkpt lat="44.94113" lon="5.15061">
        <ele>500</ele>
        <time>2021-05-23T16:47:58+02:00</time>
      </trkpt>
      <trkpt lat="44.94135" lon="5.15048">
        <ele>498</ele>
        <time>2021-05-23T16:48:19+02:00</time>
      </trkpt>
      <trkpt lat="44.94154" lon="5.15034">
        <ele>497</ele>
        <time>2021-05-23T16:48:38+02:00</time>
      </trkpt>
      <trkpt lat="44.94171" lon="5.15021">
        <ele>496</ele>
        <time>2021-05-23T16:48:54+02:00</time>
      </trkpt>
      <trkpt lat="44.94187" lon="5.15012">
        <ele>495</ele>
        <time>2021-05-23T16:49:10+02:00</time>
      </trkpt>
      <trkpt lat="44.94202" lon="5.15002">
        <ele>494</ele>
        <time>2021-05-23T16:49:25+02:00</time>
      </trkpt>
      <trkpt lat="44.94215" lon="5.14992">
        <ele>493</ele>
        <time>2021-05-23T16:49:38+02:00</time>
      </trkpt>
      <trkpt lat="44.94229" lon="5.14979">
        <ele>493</ele>
        <time>2021-05-23T16:49:51+02:00</time>
      </trkpt>
      <trkpt lat="44.94238" lon="5.14969">
        <ele>493</ele>
        <time>2021-05-23T16:50:05+02:00</time>
      </trkpt>
      <trkpt lat="44.94257" lon="5.14956">
        <ele>493</ele>
        <time>2021-05-23T16:50:24+02:00</time>
      </trkpt>
      <trkpt lat="44.9427" lon="5.14947">
        <ele>493</ele>
        <time>2021-05-23T16:50:40+02:00</time>
      </trkpt>
      <trkpt lat="44.94284" lon="5.14937">
        <ele>491</ele>
        <time>2021-05-23T16:50:55+02:00</time>
      </trkpt>
      <trkpt lat="44.94295" lon="5.14926">
        <ele>490</ele>
        <time>2021-05-23T16:51:07+02:00</time>
      </trkpt>
      <trkpt lat="44.94305" lon="5.14918">
        <ele>488</ele>
        <time>2021-05-23T16:51:17+02:00</time>
      </trkpt>
      <trkpt lat="44.9432" lon="5.14907">
        <ele>486</ele>
        <time>2021-05-23T16:51:31+02:00</time>
      </trkpt>
      <trkpt lat="44.9433" lon="5.14892">
        <ele>485</ele>
        <time>2021-05-23T16:51:43+02:00</time>
      </trkpt>
      <trkpt lat="44.94332" lon="5.14887">
        <ele>485</ele>
        <time>2021-05-23T16:51:47+02:00</time>
      </trkpt>
      <trkpt lat="44.94341" lon="5.14867">
        <ele>485</ele>
        <time>2021-05-23T16:52:02+02:00</time>
      </trkpt>
      <trkpt lat="44.9436" lon="5.14863">
        <ele>484</ele>
        <time>2021-05-23T16:52:17+02:00</time>
      </trkpt>
      <trkpt lat="44.9436" lon="5.14862">
        <ele>484</ele>
        <time>2021-05-23T16:52:31+02:00</time>
      </trkpt>
      <trkpt lat="44.9436" lon="5.14861">
        <ele>484</ele>
        <time>2021-05-23T16:52:46+02:00</time>
      </trkpt>
      <trkpt lat="44.94361" lon="5.1486">
        <ele>484</ele>
        <time>2021-05-23T16:53:03+02:00</time>
      </trkpt>
      <trkpt lat="44.94362" lon="5.1486">
        <ele>484</ele>
        <time>2021-05-23T16:53:20+02:00</time>
      </trkpt>
      <trkpt lat="44.94368" lon="5.1486">
        <ele>484</ele>
        <time>2021-05-23T16:53:32+02:00</time>
      </trkpt>
      <trkpt lat="44.94371" lon="5.14859">
        <ele>484</ele>
        <time>2021-05-23T16:53:34+02:00</time>
      </trkpt>
      <trkpt lat="44.94387" lon="5.14852">
        <ele>484</ele>
        <time>2021-05-23T16:53:50+02:00</time>
      </trkpt>
      <trkpt lat="44.94388" lon="5.14852">
        <ele>484</ele>
        <time>2021-05-23T16:53:51+02:00</time>
      </trkpt>
      <trkpt lat="44.94404" lon="5.14844">
        <ele>484</ele>
        <time>2021-05-23T16:54:06+02:00</time>
      </trkpt>
      <trkpt lat="44.94419" lon="5.14835">
        <ele>483</ele>
        <time>2021-05-23T16:54:22+02:00</time>
      </trkpt>
      <trkpt lat="44.9443" lon="5.14827">
        <ele>483</ele>
        <time>2021-05-23T16:54:32+02:00</time>
      </trkpt>
      <trkpt lat="44.94438" lon="5.14819">
        <ele>482</ele>
        <time>2021-05-23T16:54:40+02:00</time>
      </trkpt>
      <trkpt lat="44.94453" lon="5.14809">
        <ele>481</ele>
        <time>2021-05-23T16:54:53+02:00</time>
      </trkpt>
      <trkpt lat="44.94465" lon="5.14799">
        <ele>479</ele>
        <time>2021-05-23T16:55:04+02:00</time>
      </trkpt>
      <trkpt lat="44.94482" lon="5.14787">
        <ele>478</ele>
        <time>2021-05-23T16:55:18+02:00</time>
      </trkpt>
      <trkpt lat="44.94496" lon="5.14777">
        <ele>477</ele>
        <time>2021-05-23T16:55:31+02:00</time>
      </trkpt>
      <trkpt lat="44.94511" lon="5.14766">
        <ele>477</ele>
        <time>2021-05-23T16:55:44+02:00</time>
      </trkpt>
      <trkpt lat="44.94525" lon="5.14758">
        <ele>477</ele>
        <time>2021-05-23T16:55:58+02:00</time>
      </trkpt>
      <trkpt lat="44.9454" lon="5.1475">
        <ele>478</ele>
        <time>2021-05-23T16:56:11+02:00</time>
      </trkpt>
      <trkpt lat="44.94554" lon="5.14743">
        <ele>478</ele>
        <time>2021-05-23T16:56:23+02:00</time>
      </trkpt>
      <trkpt lat="44.9457" lon="5.14736">
        <ele>478</ele>
        <time>2021-05-23T16:56:37+02:00</time>
      </trkpt>
      <trkpt lat="44.94578" lon="5.14732">
        <ele>478</ele>
        <time>2021-05-23T16:56:44+02:00</time>
      </trkpt>
      <trkpt lat="44.94598" lon="5.14727">
        <ele>476</ele>
        <time>2021-05-23T16:57:00+02:00</time>
      </trkpt>
      <trkpt lat="44.94619" lon="5.14726">
        <ele>474</ele>
        <time>2021-05-23T16:57:17+02:00</time>
      </trkpt>
      <trkpt lat="44.94637" lon="5.14723">
        <ele>471</ele>
        <time>2021-05-23T16:57:35+02:00</time>
      </trkpt>
      <trkpt lat="44.94653" lon="5.1472">
        <ele>468</ele>
        <time>2021-05-23T16:57:51+02:00</time>
      </trkpt>
      <trkpt lat="44.94668" lon="5.14716">
        <ele>465</ele>
        <time>2021-05-23T16:58:06+02:00</time>
      </trkpt>
      <trkpt lat="44.9467" lon="5.14716">
        <ele>464</ele>
        <time>2021-05-23T16:58:08+02:00</time>
      </trkpt>
      <trkpt lat="44.94686" lon="5.14708">
        <ele>462</ele>
        <time>2021-05-23T16:58:22+02:00</time>
      </trkpt>
      <trkpt lat="44.94704" lon="5.14703">
        <ele>460</ele>
        <time>2021-05-23T16:58:36+02:00</time>
      </trkpt>
      <trkpt lat="44.94723" lon="5.14695">
        <ele>458</ele>
        <time>2021-05-23T16:58:51+02:00</time>
      </trkpt>
      <trkpt lat="44.94746" lon="5.14677">
        <ele>455</ele>
        <time>2021-05-23T16:59:12+02:00</time>
      </trkpt>
      <trkpt lat="44.9476" lon="5.14653">
        <ele>455</ele>
        <time>2021-05-23T16:59:32+02:00</time>
      </trkpt>
      <trkpt lat="44.94775" lon="5.1463">
        <ele>455</ele>
        <time>2021-05-23T16:59:51+02:00</time>
      </trkpt>
      <trkpt lat="44.94792" lon="5.14604">
        <ele>456</ele>
        <time>2021-05-23T17:00:10+02:00</time>
      </trkpt>
      <trkpt lat="44.94805" lon="5.14593">
        <ele>455</ele>
        <time>2021-05-23T17:00:25+02:00</time>
      </trkpt>
      <trkpt lat="44.94821" lon="5.14586">
        <ele>455</ele>
        <time>2021-05-23T17:00:38+02:00</time>
      </trkpt>
      <trkpt lat="44.94837" lon="5.14582">
        <ele>454</ele>
        <time>2021-05-23T17:00:51+02:00</time>
      </trkpt>
      <trkpt lat="44.94853" lon="5.14576">
        <ele>455</ele>
        <time>2021-05-23T17:01:07+02:00</time>
      </trkpt>
      <trkpt lat="44.94873" lon="5.14562">
        <ele>454</ele>
        <time>2021-05-23T17:01:26+02:00</time>
      </trkpt>
      <trkpt lat="44.94897" lon="5.14543">
        <ele>453</ele>
        <time>2021-05-23T17:01:49+02:00</time>
      </trkpt>
      <trkpt lat="44.94917" lon="5.14531">
        <ele>452</ele>
        <time>2021-05-23T17:02:07+02:00</time>
      </trkpt>
      <trkpt lat="44.94938" lon="5.14518">
        <ele>451</ele>
        <time>2021-05-23T17:02:26+02:00</time>
      </trkpt>
      <trkpt lat="44.94959" lon="5.14506">
        <ele>449</ele>
        <time>2021-05-23T17:02:46+02:00</time>
      </trkpt>
      <trkpt lat="44.94976" lon="5.14497">
        <ele>447</ele>
        <time>2021-05-23T17:03:02+02:00</time>
      </trkpt>
      <trkpt lat="44.94994" lon="5.14486">
        <ele>445</ele>
        <time>2021-05-23T17:03:19+02:00</time>
      </trkpt>
      <trkpt lat="44.95015" lon="5.14477">
        <ele>444</ele>
        <time>2021-05-23T17:03:38+02:00</time>
      </trkpt>
      <trkpt lat="44.95031" lon="5.14475">
        <ele>442</ele>
        <time>2021-05-23T17:03:53+02:00</time>
      </trkpt>
      <trkpt lat="44.95038" lon="5.14476">
        <ele>441</ele>
        <time>2021-05-23T17:04:06+02:00</time>
      </trkpt>
      <trkpt lat="44.95055" lon="5.14481">
        <ele>439</ele>
        <time>2021-05-23T17:04:22+02:00</time>
      </trkpt>
      <trkpt lat="44.95072" lon="5.1449">
        <ele>437</ele>
        <time>2021-05-23T17:04:36+02:00</time>
      </trkpt>
      <trkpt lat="44.95086" lon="5.14505">
        <ele>435</ele>
        <time>2021-05-23T17:04:52+02:00</time>
      </trkpt>
      <trkpt lat="44.95101" lon="5.14526">
        <ele>435</ele>
        <time>2021-05-23T17:05:10+02:00</time>
      </trkpt>
      <trkpt lat="44.95109" lon="5.14535">
        <ele>435</ele>
        <time>2021-05-23T17:05:19+02:00</time>
      </trkpt>
      <trkpt lat="44.95112" lon="5.14542">
        <ele>436</ele>
        <time>2021-05-23T17:05:33+02:00</time>
      </trkpt>
      <trkpt lat="44.95114" lon="5.14543">
        <ele>436</ele>
        <time>2021-05-23T17:05:37+02:00</time>
      </trkpt>
      <trkpt lat="44.95126" lon="5.14557">
        <ele>436</ele>
        <time>2021-05-23T17:05:53+02:00</time>
      </trkpt>
      <trkpt lat="44.95127" lon="5.14564">
        <ele>436</ele>
        <time>2021-05-23T17:06:00+02:00</time>
      </trkpt>
      <trkpt lat="44.95123" lon="5.14569">
        <ele>436</ele>
        <time>2021-05-23T17:06:13+02:00</time>
      </trkpt>
      <trkpt lat="44.95123" lon="5.14574">
        <ele>436</ele>
        <time>2021-05-23T17:06:35+02:00</time>
      </trkpt>
      <trkpt lat="44.95127" lon="5.14571">
        <ele>436</ele>
        <time>2021-05-23T17:06:54+02:00</time>
      </trkpt>
      <trkpt lat="44.95125" lon="5.14571">
        <ele>436</ele>
        <time>2021-05-23T17:07:19+02:00</time>
      </trkpt>
    </trkseg>
  </trk>
</gpx>